[[{"header":{"parameterUnit":"m.s-1","parameterCategory":1,"la1":30.6,"la2":28.766,"lo1":-90.7593,"lo2":-88.6598,"dy":0.0162,"dx":0.0183,"nx":116,"ny":114,"refTime":"2023-06-08T06:00:00:Z","depth":0,"parameterNumber":2,"parameterNumberName":"U-component_of_WINDS"},"data":[0.0,0.0,0.0,0.0,0.0,0.0,0.0,0.0,0.0,0.0,0.0,0.0,0.0,0.0,0.0,0.0,0.0,0.0,0.0,0.0,0.0,0.0,0.0,0.0,0.0,0.0,0.0,0.0,0.0,0.0,0.0,0.0,0.0,0.0,0.0,0.0,0.0,0.0,0.0,0.0,0.0,0.0,0.0,0.0,0.0,0.0,0.0,0.0,0.0,0.0,0.0,0.0,0.0,0.0,0.0,0.0,0.0,0.0,0.0,0.0,0.0,0.0,0.0,0.0,0.0,0.0,0.0,0.0,0.0,0.0,0.0,0.0,0.0,0.0,0.0,0.0,0.0,0.0,0.0,0.0,0.0,0.0,0.0,0.0,0.0,0.0,0.0,0.0,0.0,0.0,0.0,0.0,0.0,0.0,0.0,0.0,0.0,0.0,0.0,0.0,0.0,0.0,0.0,0.0,0.0,0.0,0.0,0.0,0.0,0.0,0.0,0.0,0.0,0.0,0.0,0.0,0.0,0.0,0.0,0.0,0.0,0.0,0.0,0.0,0.0,0.0,0.0,0.0,0.0,0.0,0.0,0.0,0.0,0.0,0.0,0.0,0.0,0.0,0.0,0.0,0.0,0.0,0.0,0.0,0.0,0.0,0.0,0.0,0.0,0.0,0.0,0.0,0.0,0.0,0.0,0.0,0.0,0.0,0.0,0.0,0.0,0.0,0.0,0.0,0.0,0.0,0.0,0.0,0.0,0.0,0.0,0.0,0.0,0.0,0.0,0.0,0.0,0.0,0.0,0.0,0.0,0.0,0.0,0.0,0.0,0.0,0.0,0.0,0.0,0.0,0.0,0.0,0.0,0.0,0.0,0.0,0.0,0.0,0.0,0.0,0.0,0.0,0.0,0.0,0.0,0.0,0.0,0.0,0.0,0.0,0.0,0.0,0.0,0.0,0.0,0.0,0.0,0.0,0.0,0.0,0.0,0.0,0.0,0.0,0.0,0.0,0.0,0.0,0.0,0.0,0.0,0.0,0.0,0.0,0.0,0.0,0.0,0.0,0.0,0.0,0.0,0.0,0.0,0.0,0.0,0.0,0.0,0.0,0.0,0.0,0.0,0.0,0.0,0.0,0.0,0.0,0.0,0.0,0.0,0.0,0.0,0.0,0.0,0.0,0.0,0.0,0.0,0.0,0.0,0.0,0.0,0.0,0.0,0.0,0.0,0.0,0.0,0.0,0.0,0.0,0.0,0.0,0.0,0.0,0.0,0.0,0.0,0.0,0.0,0.0,0.0,0.0,0.0,0.0,0.0,0.0,0.0,0.0,0.0,0.0,0.0,0.0,0.0,0.0,0.0,0.0,0.0,0.0,0.0,0.0,0.0,0.0,0.0,0.0,0.0,0.0,0.0,0.0,0.0,0.0,0.0,0.0,0.0,0.0,0.0,0.0,0.0,0.0,0.0,0.0,0.0,0.0,0.0,0.0,0.0,0.0,0.0,0.0,0.0,0.0,0.0,0.0,0.0,0.0,0.0,0.0,0.0,0.0,0.0,0.0,0.0,0.0,0.0,0.0,0.0,0.0,0.0,0.0,0.0,0.0,0.0,0.0,0.0,0.0,0.0,0.0,0.0,0.0,0.0,0.0,0.0,0.0,0.0,0.0,0.0,0.0,0.0,0.0,0.0,0.0,0.0,0.0,0.0,0.0,0.0,0.0,0.0,0.0,0.0,0.0,0.0,0.0,0.0,0.0,0.0,0.0,0.0,0.0,0.0,0.0,0.0,0.0,0.0,0.0,0.0,0.0,0.0,0.0,0.0,0.0,0.0,0.0,0.0,0.0,0.0,0.0,0.0,0.0,0.0,0.0,0.0,0.0,0.0,0.0,0.0,0.0,0.0,0.0,0.0,0.0,0.0,0.0,0.0,0.0,0.0,0.0,0.0,0.0,0.0,0.0,0.0,0.0,0.0,0.0,0.0,0.0,0.0,0.0,0.0,0.0,0.0,0.0,0.0,0.0,0.0,0.0,0.0,0.0,0.0,0.0,0.0,0.0,0.0,0.0,0.0,0.0,0.0,0.0,0.0,0.0,0.0,0.0,0.0,0.0,0.0,0.0,0.0,0.0,0.0,0.0,0.0,0.0,0.0,0.0,0.0,0.0,0.0,0.0,0.0,0.0,0.0,0.0,0.0,0.0,0.0,0.0,0.0,0.0,0.0,0.0,0.0,0.0,0.0,0.0,0.0,0.0,0.0,0.0,0.0,0.0,0.0,0.0,0.0,0.0,0.0,0.0,0.0,0.0,0.0,0.0,0.0,0.0,0.0,0.0,0.0,0.0,0.0,0.0,0.0,0.0,0.0,0.0,0.0,0.0,0.0,0.0,0.0,0.0,0.0,0.0,0.0,0.0,0.0,0.0,0.0,0.0,0.0,0.0,0.0,0.0,0.0,0.0,0.0,0.0,0.0,0.0,0.0,0.0,0.0,0.0,0.0,0.0,0.0,0.0,0.0,0.0,0.0,0.0,0.0,0.0,0.0,0.0,0.0,0.0,0.0,0.0,0.0,0.0,0.0,0.0,0.0,0.0,0.0,0.0,0.0,0.0,0.0,0.0,0.0,0.0,0.0,0.0,0.0,0.0,0.0,0.0,0.0,0.0,0.0,0.0,0.0,0.0,0.0,0.0,0.0,0.0,0.0,0.0,0.0,0.0,0.0,0.0,0.0,0.0,0.0,0.0,0.0,0.0,0.0,0.0,0.0,0.0,0.0,0.0,0.0,0.0,0.0,0.0,0.0,0.0,0.0,0.0,0.0,0.0,0.0,0.0,0.0,0.0,0.0,0.0,0.0,0.0,0.0,0.0,0.0,0.0,0.0,0.0,0.0,0.0,0.0,0.0,0.0,0.0,0.0,0.0,0.0,0.0,0.0,0.0,0.0,0.0,0.0,0.0,0.0,0.0,0.0,0.0,0.0,0.0,0.0,0.0,0.0,0.0,0.0,0.0,0.0,0.0,0.0,0.0,0.0,0.0,0.0,0.0,0.0,0.0,0.0,0.0,0.0,0.0,0.0,0.0,0.0,0.0,0.0,0.0,0.0,0.0,0.0,0.0,0.0,0.0,0.0,0.0,0.0,0.0,0.0,0.0,0.0,0.0,0.0,0.0,0.0,0.0,0.0,0.0,0.0,0.0,0.0,0.0,0.0,0.0,0.0,0.0,0.0,0.0,0.0,0.0,0.0,0.0,0.0,0.0,0.0,0.0,0.0,0.0,0.0,0.0,0.0,0.0,0.0,0.0,0.0,0.0,0.0,0.0,0.0,0.0,0.0,0.0,0.0,0.0,0.0,0.0,0.0,0.0,0.0,0.0,0.0,0.0,0.0,0.0,0.0,0.0,0.0,0.0,0.0,0.0,0.0,0.0,0.0,0.0,0.0,0.0,0.0,0.0,0.0,0.0,0.0,0.0,0.0,0.0,0.0,0.0,0.0,0.0,0.0,0.0,0.0,0.0,0.0,0.0,0.0,0.0,0.0,0.0,0.0,0.0,0.0,0.0,0.0,0.0,0.0,0.0,0.0,0.0,0.0,0.0,0.0,0.0,0.0,0.0,0.0,0.0,0.0,0.0,0.0,0.0,0.0,0.0,0.0,0.0,0.0,0.0,0.0,0.0,0.0,0.0,0.0,0.0,0.0,0.0,0.0,0.0,0.0,0.0,0.0,0.0,0.0,0.0,0.0,0.0,0.0,0.0,0.0,0.0,0.0,0.0,0.0,0.0,0.0,0.0,0.0,0.0,0.0,0.0,0.0,0.0,0.0,0.0,0.0,0.0,0.0,0.0,0.0,0.0,0.0,0.0,0.0,0.0,0.0,0.0,0.0,0.0,0.0,0.0,0.0,0.0,0.0,0.0,0.0,0.0,0.0,0.0,0.0,0.0,0.0,0.0,0.0,0.0,0.0,0.0,0.0,0.0,0.0,0.0,0.0,0.0,0.0,0.0,0.0,0.0,0.0,0.0,0.0,0.0,0.0,0.0,0.0,0.0,0.0,0.0,0.0,0.0,0.0,0.0,0.0,0.0,0.0,0.0,0.0,0.0,0.0,0.0,0.0,0.0,0.0,0.0,0.0,0.0,0.0,0.0,0.0,0.0,0.0,0.0,0.0,0.0,0.0,0.0,0.0,0.0,0.0,0.0,0.0,0.0,0.0,0.0,0.0,0.0,0.0,0.0,0.0,0.0,0.0,0.0,0.0,0.0,0.0,0.0,0.0,0.0,0.0,0.0,0.0,0.0,0.0,0.0,0.0,0.0,0.0,0.0,0.0,0.0,0.0,0.0,0.0,0.0,0.0,0.0,0.0,0.0,0.0,0.0,0.0,0.0,0.0,0.0,0.0,0.0,0.0,0.0,0.0,0.0,0.0,0.0,0.0,0.0,0.0,0.0,0.0,0.0,0.0,0.0,0.0,0.0,0.0,0.0,0.0,0.0,0.0,0.0,0.0,0.0,0.0,0.0,0.0,0.0,0.0,0.0,0.0,0.0,0.0,0.0,0.0,0.0,0.0,0.0,0.0,0.0,0.0,0.0,0.0,0.0,0.0,0.0,0.0,0.0,0.0,0.0,0.0,0.0,0.0,0.0,0.0,0.0,0.0,0.0,0.0,0.0,0.0,0.0,0.0,0.0,0.0,0.0,0.0,0.0,0.0,0.0,0.0,0.0,0.0,0.0,0.0,0.0,0.0,0.0,0.0,0.0,0.0,0.0,0.0,0.0,0.0,0.0,0.0,0.0,0.0,0.0,0.0,0.0,0.0,0.0,0.0,0.0,0.0,0.0,0.0,0.0,0.0,0.0,0.0,0.0,0.0,0.0,0.0,0.0,0.0,0.0,0.0,0.0,0.0,0.0,0.0,0.0,0.0,0.0,0.0,0.0,0.0,0.0,0.0,0.0,0.0,0.0,0.0,0.0,0.0,0.0,0.0,0.0,0.0,0.0,0.0,0.0,0.0,0.0,0.0,0.0,0.0,0.0,0.0,0.0,0.0,0.0,0.0,0.0,0.0,0.0,0.0,0.0,0.0,0.0,0.0,0.0,0.0,0.0,0.0,0.0,0.0,0.0,0.0,0.0,0.0,0.0,0.0,0.0,0.0,0.0,0.0,0.0,0.0,0.0,0.0,0.0,0.0,0.0,0.0,0.0,0.0,0.0,0.0,0.0,0.0,0.0,0.0,0.0,0.0,0.0,0.0,0.0,0.0,0.0,0.0,0.0,0.0,0.0,0.0,0.0,0.0,0.0,0.0,0.0,0.0,0.0,0.0,0.0,0.0,0.0,0.0,0.0,0.0,0.0,0.0,0.0,0.0,0.0,0.0,0.0,0.0,0.0,0.0,0.0,0.0,0.0,0.0,0.0,0.0,0.0,0.0,0.0,0.0,0.0,0.0,0.0,0.0,0.0,0.0,0.0,0.0,0.0,0.0,0.0,0.0,0.0,0.0,0.0,0.0,0.0,0.0,0.0,0.0,0.0,0.0,0.0,0.0,0.0,0.0,0.0,0.0,0.0,0.0,0.0,0.0,0.0,0.0,0.0,0.0,0.0,0.0,0.0,0.0,0.0,0.0,0.0,0.0,0.0,0.0,0.0,0.0,0.0,0.0,0.0,0.0,0.0,0.0,0.0,0.0,0.0,0.0,0.0,0.0,0.0,0.0,0.0,0.0,0.0,0.0,0.0,0.0,0.0,0.0,0.0,0.0,0.0,0.0,0.0,0.0,0.0,0.0,0.0,0.0,0.0,0.0,0.0,0.0,0.0,0.0,0.0,0.0,0.0,0.0,0.0,0.0,0.0,0.0,0.0,0.0,0.0,0.0,0.0,0.0,0.0,0.0,0.0,0.0,0.0,0.0,0.0,0.0,0.0,0.0,0.0,0.0,0.0,0.0,0.0,0.0,0.0,0.0,0.0,0.0,0.0,0.0,0.0,0.0,0.0,0.0,0.0,0.0,0.0,0.0,0.0,0.0,0.0,0.0,0.0,0.0,0.0,0.0,0.0,0.0,0.0,0.0,0.0,0.0,0.0,0.0,0.0,0.0,0.0,0.0,0.0,0.0,0.0,0.0,0.0,0.0,0.0,-3.9265,0.0,0.0,0.0,0.0,0.0,0.0,0.0,0.0,0.0,0.0,0.0,0.0,0.0,0.0,0.0,0.0,0.0,0.0,0.0,0.0,0.0,0.0,0.0,0.0,0.0,0.0,0.0,0.0,0.0,0.0,0.0,0.0,0.0,0.0,0.0,0.0,0.0,0.0,0.0,0.0,0.0,0.0,0.0,0.0,0.0,0.0,0.0,0.0,0.0,0.0,0.0,0.0,0.0,0.0,0.0,0.0,0.0,0.0,0.0,0.0,0.0,0.0,0.0,0.0,0.0,0.0,0.0,0.0,0.0,0.0,0.0,0.0,0.0,0.0,0.0,0.0,0.0,0.0,0.0,0.0,0.0,0.0,0.0,0.0,0.0,0.0,0.0,0.0,0.0,0.0,0.0,0.0,0.0,0.0,0.0,0.0,0.0,0.0,0.0,0.0,0.0,0.0,0.0,0.0,0.0,0.0,0.0,0.0,0.0,0.0,0.0,0.0,0.0,0.0,0.0,0.0,-3.9337,0.0,0.0,0.0,0.0,0.0,0.0,0.0,0.0,0.0,0.0,0.0,0.0,0.0,0.0,0.0,0.0,0.0,0.0,0.0,0.0,0.0,0.0,0.0,0.0,0.0,0.0,0.0,0.0,0.0,0.0,0.0,0.0,0.0,0.0,0.0,0.0,0.0,0.0,0.0,0.0,0.0,0.0,0.0,0.0,0.0,0.0,0.0,0.0,0.0,0.0,0.0,0.0,0.0,0.0,0.0,0.0,0.0,0.0,0.0,0.0,0.0,0.0,0.0,0.0,0.0,0.0,0.0,0.0,0.0,0.0,0.0,0.0,0.0,0.0,0.0,0.0,0.0,0.0,0.0,0.0,0.0,0.0,0.0,0.0,0.0,0.0,0.0,0.0,0.0,0.0,0.0,0.0,0.0,0.0,0.0,0.0,0.0,0.0,0.0,0.0,0.0,0.0,0.0,0.0,0.0,0.0,0.0,0.0,-3.9424,-3.9424,-3.9424,-3.9424,-3.9424,-3.9424,-3.9424,-3.9424,-3.9424,-3.9424,0.0,0.0,0.0,0.0,0.0,0.0,0.0,0.0,0.0,0.0,0.0,0.0,0.0,0.0,0.0,0.0,0.0,0.0,0.0,0.0,0.0,0.0,0.0,0.0,0.0,0.0,0.0,0.0,0.0,0.0,0.0,0.0,0.0,0.0,0.0,0.0,0.0,0.0,-1.2108,-1.22,-1.3312,-1.5104,-1.5605,0.0,0.0,0.0,0.0,0.0,0.0,0.0,0.0,0.0,0.0,0.0,0.0,0.0,0.0,0.0,0.0,0.0,0.0,0.0,0.0,0.0,0.0,0.0,0.0,0.0,0.0,0.0,0.0,0.0,0.0,0.0,0.0,0.0,0.0,0.0,0.0,0.0,0.0,0.0,0.0,0.0,0.0,0.0,-3.3058,-3.4645,0.0,0.0,0.0,0.0,0.0,0.0,0.0,0.0,0.0,0.0,0.0,0.0,0.0,-3.9928,-3.9241,-3.9373,-3.9443,-3.9424,-3.9424,-3.9424,-3.9424,-3.9424,-3.9424,-3.9424,-3.9424,0.0,-3.9424,-3.9424,0.0,0.0,0.0,0.0,0.0,0.0,0.0,0.0,0.0,0.0,0.0,0.0,0.0,0.0,0.0,0.0,0.0,0.0,0.0,0.0,0.0,0.0,0.0,0.0,0.0,0.0,0.0,0.0,0.0,0.0,0.0,0.0,0.0,0.0,0.0,0.0,-0.9651,-1.0653,-1.2016,-1.2564,-1.3574,-1.4977,-1.5231,-1.5344,-1.5344,-1.5344,0.0,0.0,0.0,0.0,0.0,0.0,0.0,0.0,0.0,0.0,0.0,0.0,0.0,0.0,0.0,0.0,0.0,0.0,0.0,0.0,0.0,0.0,0.0,0.0,0.0,0.0,0.0,0.0,0.0,0.0,0.0,0.0,0.0,0.0,0.0,0.0,0.0,0.0,0.0,-3.2662,-3.3865,-3.5045,-3.5309,-3.5554,0.0,0.0,0.0,0.0,0.0,0.0,0.0,0.0,0.0,-3.9978,-4.0675,-4.0561,-3.9462,-3.9847,-4.0063,-4.0005,-3.9625,-3.961,-4.0021,-3.9625,-3.9424,-3.9439,-3.9813,-3.9963,-3.9948,-3.9574,-3.9634,-3.9963,0.0,0.0,0.0,0.0,-4.0421,-4.0187,0.0,0.0,0.0,0.0,0.0,0.0,0.0,0.0,0.0,0.0,0.0,0.0,0.0,0.0,0.0,-0.1717,0.0,0.0,0.0,0.0,0.0,0.0,0.0,0.0,0.0,0.0,0.0,0.0,-0.9958,-1.0945,-1.2198,-1.2921,-1.3735,-1.4743,-1.4743,-1.4823,-1.4963,-1.4963,-1.4777,0.0,0.0,0.0,0.0,0.0,0.0,0.0,0.0,0.0,0.0,0.0,0.0,0.0,0.0,0.0,0.0,0.0,0.0,0.0,0.0,0.0,0.0,0.0,0.0,0.0,0.0,0.0,0.0,0.0,0.0,0.0,0.0,0.0,0.0,0.0,0.0,0.0,0.0,-3.3492,-3.438,-3.5264,-3.5424,-3.5718,0.0,0.0,0.0,0.0,0.0,0.0,-4.0702,-4.1382,-4.1387,-4.0587,-4.1525,-4.1324,-3.9791,-4.0421,-4.0668,-4.0478,-3.9753,-3.9681,-4.0216,-3.9862,-3.9664,-3.9709,-4.0367,-4.0651,-4.0606,-4.0127,-4.0217,-4.0651,-4.0651,-4.095,-4.1399,-4.135,-4.1332,-4.1018,0.0,0.0,0.0,0.0,0.0,0.0,0.0,0.0,0.0,0.0,0.0,0.0,0.0,0.0,-0.2822,-0.1718,-0.1617,-0.1704,0.0,0.0,0.0,0.0,0.0,0.0,0.0,0.0,0.0,-0.9892,-0.9887,-1.084,-1.2655,-1.2741,-1.3266,-1.4135,-1.4135,-1.4442,-1.4963,-1.4687,-1.4591,-1.4591,0.0,0.0,0.0,0.0,0.0,0.0,0.0,0.0,0.0,0.0,0.0,0.0,0.0,0.0,0.0,0.0,0.0,0.0,0.0,0.0,0.0,0.0,0.0,0.0,0.0,0.0,0.0,0.0,0.0,0.0,0.0,0.0,0.0,0.0,0.0,0.0,0.0,0.0,0.0,-3.5544,-3.5539,0.0,0.0,0.0,0.0,-3.8571,-3.9388,-4.0334,-4.1583,-4.2332,-4.2085,-4.0737,-4.2533,-4.2583,-4.069,-4.1178,-4.1127,-4.0478,-3.9753,-3.9409,-3.9511,-4.0068,-4.0352,-4.0382,-4.1055,-4.1324,-4.1324,-4.1294,-4.1309,-4.1324,-4.1324,-4.1354,-4.1459,-4.1826,-4.1814,-4.1427,0.0,0.0,0.0,0.0,0.0,0.0,0.0,0.0,0.0,0.0,0.0,0.0,0.0,-0.3224,-0.2722,-0.1718,-0.222,-0.2302,-0.1671,0.0,0.0,0.0,0.0,0.0,0.0,0.0,-0.8548,-0.9671,-1.0458,-1.1413,-1.2705,-1.3307,-1.3652,-1.3822,-1.3822,-1.3854,-1.3957,-1.4043,-1.3957,-1.3783,-1.3604,-1.343,0.0,0.0,0.0,0.0,0.0,0.0,0.0,0.0,0.0,0.0,0.0,0.0,0.0,0.0,0.0,0.0,0.0,0.0,0.0,0.0,0.0,0.0,0.0,0.0,0.0,0.0,0.0,0.0,0.0,0.0,0.0,0.0,0.0,0.0,0.0,0.0,0.0,-3.5539,-3.5554,0.0,-3.6415,-3.6626,-3.7515,-3.9446,-4.0248,-4.1194,-4.2462,-4.3253,-4.3406,-4.2867,-4.358,-4.3125,-4.1559,-4.2002,-4.1972,-4.1264,-4.0882,-4.0874,-4.1298,-4.1129,-4.1025,-4.107,-4.1728,-4.2013,-4.2043,-4.2462,-4.2387,-4.2013,-4.2013,-4.2267,-4.2671,-4.2817,-4.2812,-4.2524,0.0,0.0,0.0,0.0,0.0,0.0,0.0,0.0,0.0,0.0,0.0,-0.4423,-0.3324,-0.2923,-0.2422,-0.1617,-0.222,-0.2395,-0.1656,0.0,0.0,0.0,0.0,0.0,0.0,-0.7768,-0.8464,-0.9671,-1.0804,-1.1757,-1.2705,-1.3659,-1.3997,-1.3737,-1.3737,-1.3568,-1.3398,-1.3483,-1.3392,-1.3307,-1.3052,-1.2875,-1.2705,0.0,0.0,0.0,0.0,0.0,0.0,0.0,0.0,0.0,0.0,0.0,0.0,0.0,0.0,0.0,0.0,0.0,0.0,0.0,0.0,0.0,0.0,0.0,0.0,0.0,0.0,0.0,0.0,0.0,0.0,0.0,0.0,0.0,0.0,0.0,-3.5504,-3.5554,-3.5734,-3.6179,-3.6894,-3.7143,-3.8054,-4.0,-4.0813,-4.1748,-4.3024,-4.3755,-4.4065,-4.3822,-4.4036,-4.3678,-4.2848,-4.2865,-4.2764,-4.252,-4.1873,-4.173,-4.2145,-4.1897,-4.1713,-4.1743,-4.2402,-4.2686,-4.2716,-4.3165,-4.3075,-4.2686,-4.2686,-4.2955,-4.3329,-4.3329,-4.325,-4.2996,0.0,0.0,0.0,0.0,0.0,0.0,0.0,0.0,0.0,0.0,-0.5429,-0.4423,-0.3324,-0.2321,-0.1617,-0.1617,-0.1617,-0.1592,-0.1532,-0.1527,0.0,0.0,0.0,0.0,-0.7852,-0.7852,-0.8552,-0.9859,-1.0809,-1.1757,-1.2705,-1.3652,-1.3913,-1.3652,-1.3652,-1.3561,-1.3398,-1.3143,-1.3058,-1.3052,-1.279,-1.2705,-1.2705,0.0,0.0,0.0,0.0,0.0,0.0,0.0,0.0,0.0,0.0,0.0,0.0,0.0,0.0,0.0,0.0,0.0,0.0,0.0,0.0,0.0,0.0,0.0,0.0,0.0,0.0,0.0,0.0,0.0,0.0,0.0,0.0,0.0,-3.3213,-3.4572,-3.5539,-3.5688,-3.626,-3.6814,-3.696,-3.7811,-3.8866,-4.0258,-4.1068,-4.2085,-4.3306,-4.3981,-4.4079,-4.3444,-4.3878,-4.4268,-4.4393,-4.3573,-4.3481,-4.4138,-4.2556,-4.1806,-4.1746,-4.2241,-4.2479,-4.2432,-4.306,-4.3329,-4.3329,-4.3329,-4.3329,-4.3329,-4.3329,-4.3329,-4.3329,-4.3329,-4.3155,-4.282,0.0,0.0,0.0,0.0,0.0,0.0,0.0,0.0,0.0,0.0,-0.5429,-0.4423,-0.3324,-0.2923,-0.2421,-0.1718,-0.1617,-0.161,-0.1593,0.0,0.0,0.0,0.0,0.0,-0.7319,-0.7499,-0.8113,-0.9157,-1.0284,-1.1241,-1.2186,-1.3137,-1.3483,-1.3228,-1.3228,-1.3137,-1.2875,-1.279,-1.2619,-1.2357,-1.2619,-1.2705,-1.2705,0.0,0.0,0.0,0.0,0.0,0.0,0.0,0.0,0.0,0.0,0.0,0.0,0.0,0.0,0.0,0.0,0.0,0.0,0.0,0.0,0.0,0.0,0.0,0.0,0.0,0.0,0.0,0.0,0.0,0.0,0.0,0.0,-3.3353,-3.3891,-3.4942,-3.5653,-3.5554,-3.6371,-3.696,-3.6975,-3.8238,-3.9625,-4.1082,-4.2377,-4.3682,-4.5001,-4.5698,-4.601,-4.5818,-4.5433,-4.5077,-4.4608,-4.4171,-4.3816,-4.3572,-4.3411,-4.3272,-4.3133,-4.3235,-4.3247,-4.3075,-4.3254,-4.3329,-4.3329,-4.3329,-4.3329,-4.3329,-4.3329,-4.3329,-4.3329,-4.3329,-4.309,-4.2592,0.0,0.0,0.0,0.0,0.0,0.0,0.0,0.0,0.0,0.0,-0.6132,-0.5229,-0.4628,-0.3726,-0.2923,-0.2321,-0.1818,-0.1611,-0.1598,0.0,0.0,0.0,0.0,-0.5768,-0.7234,-0.7415,-0.7852,-0.8632,-0.9937,-1.0982,-1.1585,-1.279,-1.3222,-1.2796,-1.2796,-1.2534,-1.21,-1.21,-1.1929,-1.1757,-1.2015,-1.2272,-1.2448,-1.2619,-1.2705,-1.2729,-1.3151,-1.3461,-1.358,-1.3735,0.0,0.0,0.0,0.0,0.0,0.0,0.0,0.0,0.0,0.0,0.0,0.0,0.0,0.0,0.0,0.0,0.0,0.0,0.0,0.0,0.0,0.0,0.0,0.0,-3.2173,-3.3452,-3.4264,-3.5407,-3.611,-3.6009,-3.7167,-3.7943,-3.7943,-3.9054,-4.0437,-4.1901,-4.2767,-4.396,-4.5621,-4.6099,-4.633,-4.6304,-4.6242,-4.5993,-4.5565,-4.5087,-4.4881,-4.4752,-4.4235,-4.391,-4.3832,-4.3596,-4.3423,0.0,-4.3329,-4.3329,-4.3329,-4.3329,-4.3329,0.0,0.0,0.0,0.0,0.0,-4.301,-4.2607,0.0,0.0,0.0,0.0,0.0,0.0,0.0,0.0,0.0,0.0,0.0,-0.6537,-0.6437,-0.4728,-0.3525,-0.3425,-0.2422,-0.1904,0.0,0.0,0.0,-0.6866,-0.5448,-0.5476,-0.7418,-0.7415,-0.7676,-0.8197,-0.9763,-1.0722,-1.1068,-1.2619,-1.2966,-1.2363,-1.2363,-1.1929,-1.1327,-1.1327,-1.1241,-1.1241,-1.1241,-1.1585,-1.1929,-1.2357,-1.2619,-1.279,-1.3307,-1.3808,-1.4109,-1.4109,0.0,0.0,0.0,0.0,0.0,0.0,0.0,0.0,0.0,0.0,0.0,0.0,0.0,0.0,0.0,0.0,0.0,0.0,0.0,0.0,0.0,0.0,0.0,0.0,-3.2245,-3.3508,-3.4413,-3.5825,-3.6854,-3.6854,-3.8324,-3.9367,-3.9375,-4.0125,-4.1255,-4.2663,-4.2789,-4.3696,-4.5689,0.0,0.0,0.0,0.0,-4.665,-4.6673,-4.5969,-4.5897,-4.6534,-4.4843,-4.3988,-4.3988,-4.3581,-4.3329,-4.3329,-4.3329,-4.3329,-4.3329,-4.3329,-4.3329,-4.3329,-4.3329,-4.3329,-4.3329,-4.325,-4.301,-4.2688,0.0,0.0,0.0,0.0,0.0,0.0,0.0,0.0,0.0,-0.8038,-0.7839,-0.7338,-0.6537,-0.6034,-0.5429,-0.4524,-0.3827,-0.3403,0.0,0.0,-0.5854,-0.6492,-0.6465,-0.6666,-0.6887,-0.7058,-0.758,-0.8456,-0.9492,-1.0448,-1.1241,-1.2363,-1.2534,-1.21,-1.21,-1.1757,-1.1327,-1.1327,-1.1063,-1.0809,-1.1149,-1.1322,-1.1413,-1.1585,-1.2015,-1.2705,-1.2443,-1.3162,-1.4311,-1.39,-1.4342,-1.5019,-1.5019,0.0,0.0,0.0,0.0,0.0,0.0,0.0,0.0,0.0,0.0,0.0,0.0,0.0,0.0,0.0,0.0,0.0,0.0,0.0,0.0,-3.0898,-3.2245,-3.3508,-3.4413,-3.636,-3.7764,-3.7764,-3.8748,-3.9603,-4.0086,-4.0916,-4.193,-4.3337,-4.3959,-4.4724,-4.5666,-4.6285,-4.6608,-4.6601,-4.6115,-4.5913,-4.5913,-4.5216,-4.4858,-4.4993,0.0,0.0,-4.3988,-4.3754,-4.3518,-4.3329,-4.3329,-4.3329,-4.3329,-4.3329,-4.3329,-4.3329,-4.3329,-4.3329,-4.325,-4.3155,-4.293,-4.2688,0.0,0.0,0.0,0.0,0.0,0.0,0.0,0.0,0.0,0.0,-0.8038,-0.7739,-0.7042,-0.6537,-0.5932,-0.5229,-0.4026,0.0,0.0,-0.5575,-0.5992,-0.649,-0.6222,-0.6492,-0.7258,-0.7265,-0.7841,-0.9074,-0.9845,-1.0539,-1.1154,-1.1929,-1.1929,-1.1327,-1.1327,-1.1068,-1.0641,-1.0641,-1.0467,-1.012,-1.0467,-1.0549,-1.0549,-1.1063,-1.1843,-1.2705,-1.2778,-1.3704,-1.4894,-1.465,-1.4916,-1.5382,-1.5382,-1.566,-1.6134,0.0,0.0,0.0,0.0,0.0,0.0,0.0,0.0,0.0,0.0,0.0,0.0,0.0,0.0,-2.9431,0.0,0.0,-3.052,-3.0898,-3.2563,-3.4172,-3.5011,-3.7159,-3.8681,-3.8681,-3.9787,-4.0624,-4.0892,-4.1623,-4.2643,-4.4047,-4.4125,-4.4741,-4.6193,-4.6271,-4.6253,-4.6253,-4.6253,-4.604,-4.5697,-4.5348,-4.5142,-4.5142,-4.4496,-4.4143,-4.3988,-4.3675,-4.3423,-4.3329,-4.3329,-4.3329,-4.3359,-4.3688,-4.3823,-4.3853,-4.4182,-4.3913,-4.325,-4.317,-4.293,-4.2688,0.0,0.0,0.0,0.0,0.0,0.0,0.0,0.0,0.0,0.0,0.0,-0.7942,-0.7743,-0.6836,-0.6234,0.0,0.0,0.0,0.0,-0.5754,-0.57,-0.6763,-0.6173,-0.642,-0.764,-0.7782,-0.8404,-0.9689,-1.0207,-1.0636,-1.1068,-1.1585,-1.1413,-1.0636,-1.0636,-1.0376,-1.0038,-1.0038,-0.9864,-0.9602,-1.0125,-1.012,-1.0033,-1.1149,-1.2009,-1.2784,-1.3457,-1.4461,-1.5477,-1.5394,-1.556,-1.5816,-1.5899,-1.6147,-1.6558,-1.7221,-1.7959,0.0,0.0,0.0,0.0,0.0,0.0,0.0,0.0,0.0,-2.6166,-2.7321,-2.8746,-2.9934,-3.0292,-3.0368,-3.0559,-3.1055,-3.2891,-3.461,-3.5754,-3.7827,-3.936,-3.9719,-4.0854,-4.1694,-4.1955,-4.2479,-4.334,-4.4614,-4.4111,-4.4564,-4.6292,-4.5841,-4.5494,-4.5494,-4.604,-4.6127,-4.5494,-4.5494,-4.5494,-4.5494,-4.4496,-4.3988,-4.3988,-4.3503,-4.3404,-4.3524,-4.3658,-4.3718,-4.3748,-4.4287,-4.4511,-4.4556,-4.5095,-4.4646,-4.3718,-4.3718,-4.3397,-4.3057,0.0,0.0,0.0,0.0,0.0,0.0,0.0,0.0,0.0,0.0,0.0,0.0,0.0,0.0,0.0,0.0,0.0,0.0,-0.6962,-0.6948,-0.6979,-0.7043,-0.7598,-0.7837,-0.7734,-0.8348,-0.9068,-0.9859,-0.9946,-1.0463,-1.1241,-1.1327,-1.1068,-1.0636,-1.0636,-1.0376,-1.0038,-1.0038,-0.9864,-0.9689,-1.0722,-1.1068,-1.0982,-1.2083,-1.2595,-1.276,-1.3275,-1.4378,-1.565,-1.5477,-1.5809,-1.6312,-1.6566,-1.6648,-1.673,-1.7229,0.0,-1.8201,-1.862,-1.9434,-2.0267,-2.05,-2.0967,-2.1928,0.0,0.0,-2.6268,-2.8021,-2.916,-2.9934,-3.0292,-3.0368,-3.0688,-3.1589,-3.2533,-3.3974,-3.6194,-3.7828,-3.9454,-4.1137,-4.1509,-4.2063,-4.3233,-4.3417,-4.3815,-4.4553,-4.454,-4.4571,-4.4858,-4.4799,-4.4723,-4.4723,-4.4783,-4.4783,-4.4723,-4.4723,-4.4723,-4.4723,-4.4205,-4.3988,-4.3988,-4.3503,-4.3643,-4.4242,-4.4825,-4.508,-4.508,-4.5155,-4.5185,-4.52,-4.5274,-4.5214,-4.508,-4.508,-4.4816,-4.4229,0.0,0.0,0.0,0.0,0.0,0.0,0.0,0.0,0.0,0.0,0.0,0.0,0.0,0.0,0.0,0.0,0.0,0.0,-0.6851,-0.7633,-0.8089,-0.8126,-0.8906,-0.9457,-0.9775,-1.0035,-1.0605,-1.1367,-1.1103,-1.103,-1.1322,-1.0982,-1.0636,-1.0207,-1.0207,-1.0125,-1.0038,-1.0038,-0.9864,-0.9689,-1.0809,-1.1154,-1.1154,-1.2857,-1.3535,-1.3535,-1.3711,-1.4636,0.0,0.0,-1.6072,-1.6476,-1.6648,-1.673,-1.673,-1.6902,-1.7473,0.0,-1.9129,-1.9724,-2.0235,0.0,-2.1729,-2.2822,-2.4156,-2.5795,-2.7289,-2.8255,-2.9209,-2.9934,-3.0292,-3.0368,-3.0701,0.0,-3.2841,-3.4375,-3.6336,-3.8237,-4.0142,-4.195,-4.2525,-4.2956,-4.3525,-4.3925,-4.4279,-4.4556,-4.4572,-4.4572,-4.4572,-4.4572,-4.4572,-4.4572,-4.4572,-4.4572,-4.4572,-4.4572,-4.4511,-4.4435,-4.4523,-4.447,-4.4312,-4.4464,-4.4631,-4.49,-4.517,-4.5289,-4.5334,-4.5723,-4.5888,-4.5933,-4.6322,-4.6456,-4.6367,-4.5589,-4.504,-4.4435,0.0,0.0,0.0,0.0,0.0,0.0,0.0,0.0,0.0,0.0,0.0,0.0,0.0,0.0,0.0,0.0,0.0,0.0,0.0,-0.8513,-0.93,-0.9493,-1.0246,-1.092,-1.1442,-1.147,-1.1742,-1.2333,-1.1731,-1.143,-1.125,-1.0926,-1.0636,-1.0381,-1.0636,-1.0717,-1.0717,-1.0717,-1.0463,-1.012,-1.1494,-1.1752,-1.1574,-1.3626,-1.4482,-1.4482,-1.4482,-1.4985,0.0,0.0,-1.6162,-1.6319,-1.6566,-1.6648,-1.673,-1.673,-1.7376,-1.8408,-1.9679,0.0,0.0,-2.1527,-2.2755,-2.3918,-2.4481,-2.6051,-2.7637,-2.8291,-2.8961,-2.9611,-3.0292,-3.0496,-3.0933,-3.1902,-3.3218,-3.4816,-3.6864,-3.8745,-4.0651,-4.2625,-4.3448,-4.3848,-4.3848,-4.4295,-4.4572,-4.4572,-4.4572,-4.4572,-4.4572,-4.4572,-4.4572,-4.4572,-4.4572,-4.4572,-4.4572,-4.4756,-4.4788,-4.4572,-4.5008,-4.5167,-4.4911,-4.5342,-4.5589,-4.5589,-4.5768,-4.5843,-4.5888,-4.6396,-4.6591,-4.6636,-4.7115,-4.7309,-4.7189,-4.6117,-4.5505,-4.4978,0.0,0.0,0.0,0.0,0.0,0.0,0.0,0.0,0.0,0.0,0.0,0.0,0.0,0.0,0.0,0.0,0.0,0.0,0.0,-0.9792,-1.0583,-1.1072,-1.1653,-1.1849,-1.1731,-1.2099,-1.2264,-1.2129,-1.1361,-1.0985,-1.0969,-1.1179,-1.1241,-1.1327,-1.2254,-1.2589,-1.2589,-1.2589,-1.1997,-1.1154,-1.3203,-1.3275,-1.2498,-1.4566,-1.5347,-1.5347,-1.5347,0.0,0.0,0.0,-1.5906,-1.617,-1.6319,-1.6558,0.0,-1.673,-1.7631,-1.882,0.0,0.0,-2.2516,-2.28,-2.3978,-2.5084,-2.4808,-2.5724,-2.6812,-2.7891,-2.8303,-2.8937,-3.0203,-3.0817,-3.1525,-3.2489,-3.3396,-3.4941,-3.8012,-3.9225,-4.0753,-4.3284,-4.4141,-4.4556,0.0,-4.4572,-4.4572,-4.4572,-4.4572,-4.4572,-4.4572,-4.4572,-4.4572,-4.4572,-4.4572,-4.4572,-4.4572,-4.5234,-4.5479,-4.526,-4.5788,-4.5849,-4.5604,-4.6062,-4.6292,-4.6337,-4.6965,-4.7249,-4.7249,-4.7264,-4.7279,-4.7279,-4.7294,-4.7309,-4.7294,-4.6974,-4.6697,-4.624,0.0,0.0,0.0,0.0,0.0,0.0,0.0,0.0,0.0,0.0,0.0,0.0,0.0,0.0,0.0,0.0,0.0,0.0,0.0,-1.1263,-1.2047,-1.2145,-1.3028,-1.3476,-1.3397,-1.3582,-1.3744,-1.4038,-1.3487,-1.3435,-1.3696,-1.3067,-1.2772,-1.276,-1.2753,-1.2674,-1.2674,-1.2674,-1.2504,-1.2254,-1.3542,-1.388,-1.362,-1.4915,-1.5431,-1.5431,0.0,0.0,0.0,-1.5658,-1.5741,-1.5906,-1.6312,-1.6476,-1.6613,-1.7266,-1.8402,-1.9513,-2.0135,0.0,-2.3281,-2.2755,-2.4033,-2.5411,-2.5641,-2.6472,-2.7545,-2.8688,-2.9015,-2.9328,-3.0203,-3.083,-3.1551,-3.2515,-3.3275,-3.4593,-3.7254,-3.8794,-4.0377,-4.2453,-4.3838,0.0,0.0,0.0,0.0,-4.4572,-4.4572,-4.4572,-4.4572,-4.4572,-4.4572,-4.4572,-4.5018,-4.5249,-4.5249,-4.5769,-4.5948,-4.5803,-4.6079,-4.6371,-4.6706,-4.686,-4.698,-4.6995,-4.7204,-4.7309,-4.7309,-4.7309,-4.7309,-4.7309,-4.7309,-4.7309,-4.7309,-4.7019,-4.6756,-4.6403,0.0,0.0,0.0,0.0,0.0,0.0,0.0,0.0,0.0,0.0,0.0,0.0,0.0,0.0,0.0,0.0,0.0,0.0,0.0,0.0,-1.3028,-1.3221,-1.3902,-1.4298,-1.4298,-1.4586,-1.4874,-1.5165,-1.4868,-1.4989,-1.5237,-1.4497,-1.419,-1.4184,-1.4082,-1.3952,-1.3861,-1.3861,-1.3625,-1.3275,-1.4223,-1.4398,-1.4223,-1.5082,-1.5431,0.0,0.0,0.0,0.0,-1.5658,-1.5733,-1.5906,-1.6312,-1.6562,-1.6961,-1.8021,-1.9186,-2.0345,-2.1295,-2.2899,-2.4126,-2.373,-2.4893,-2.6163,-2.6472,-2.673,-2.7476,-2.8949,-2.8846,-2.8846,-3.0062,-3.0996,-3.1782,-3.2475,-3.3616,-3.5152,-3.7222,-3.8746,-4.0343,-4.241,-4.3514,-4.4251,0.0,0.0,0.0,-4.4572,-4.4572,-4.4572,-4.4572,-4.4572,-4.4695,-4.4926,-4.5357,-4.5711,-4.5942,-4.6379,-4.661,-4.6607,-4.6641,-4.689,-4.7309,-4.7309,-4.7309,-4.7309,-4.7309,-4.7309,-4.7309,-4.7309,-4.7309,-4.7309,-4.7309,-4.7207,-4.7121,-4.6844,-4.6388,-4.5732,0.0,0.0,0.0,0.0,0.0,0.0,0.0,0.0,0.0,0.0,0.0,0.0,0.0,0.0,0.0,0.0,0.0,0.0,0.0,0.0,0.0,-1.4298,-1.4298,-1.4394,-1.4394,-1.5057,-1.5432,-1.5527,-1.5604,-1.564,-1.564,-1.5618,-1.5569,-1.5569,-1.619,-1.6294,-1.5935,-1.5935,-1.5312,-1.4334,-1.5111,-1.4929,-1.4314,-1.5082,0.0,0.0,0.0,0.0,0.0,0.0,0.0,-1.62,-1.6448,-1.6933,-1.7717,-1.8771,-1.9969,-2.1339,-2.3062,-2.4251,-2.5115,-2.5684,-2.6517,-2.7103,-2.7185,-2.6599,-2.6682,-2.8724,-2.7891,-2.7557,0.0,0.0,-3.2127,-3.2419,-3.441,-3.6475,-3.7938,-3.9047,-4.0567,0.0,0.0,0.0,0.0,0.0,0.0,-4.4572,0.0,-4.4572,-4.4572,-4.4618,-4.4926,-4.5572,-4.5649,-4.6003,-4.6634,-4.7084,-4.741,-4.7538,-4.7381,-4.7309,-4.7309,-4.7309,-4.7309,-4.7309,-4.7309,-4.7309,-4.7309,-4.7309,-4.7309,-4.7309,-4.7309,-4.7121,-4.6844,-4.6668,-4.5837,-4.4591,0.0,0.0,0.0,0.0,0.0,0.0,0.0,0.0,0.0,0.0,0.0,0.0,0.0,0.0,0.0,0.0,0.0,0.0,0.0,0.0,0.0,0.0,0.0,0.0,0.0,0.0,0.0,0.0,0.0,-1.7465,-1.7926,-1.7515,-1.7363,-1.7356,-1.7009,-1.6851,-1.6775,-1.6775,-1.65,-1.5945,0.0,-1.5973,-1.5582,0.0,0.0,0.0,0.0,0.0,0.0,0.0,0.0,0.0,0.0,-1.8981,-1.9711,-2.0752,-2.1919,-2.2934,-2.3186,-2.4639,-2.5935,-2.5253,-2.5432,-2.5946,-2.6928,-2.6008,-2.5746,-2.8554,-2.8303,-2.8158,0.0,0.0,0.0,-3.2868,-3.4353,0.0,-3.7093,-3.8402,0.0,-4.2068,0.0,-4.36,-4.4496,-4.4572,0.0,0.0,-4.4572,-4.4572,-4.4572,-4.5049,-4.5403,-4.5588,-4.6573,-4.7173,-4.7342,-4.7705,-4.7628,-4.7396,-4.7309,-4.7309,-4.7309,-4.7309,-4.7309,-4.7309,-4.7309,-4.7309,-4.7309,-4.7309,-4.7309,-4.7309,-4.7309,-4.7121,-4.6844,-4.6668,-4.5837,-4.4499,0.0,0.0,0.0,0.0,0.0,0.0,0.0,0.0,0.0,0.0,0.0,0.0,0.0,0.0,0.0,0.0,0.0,0.0,0.0,0.0,0.0,0.0,0.0,0.0,0.0,0.0,0.0,0.0,0.0,0.0,0.0,-1.837,-1.8193,-1.8185,-1.7696,-1.743,-1.7293,-1.7293,0.0,0.0,0.0,0.0,0.0,0.0,0.0,0.0,0.0,0.0,0.0,0.0,0.0,-1.8946,-1.9466,-2.0238,-2.1193,-2.2279,0.0,-2.3893,-2.448,-2.5495,-2.6445,-2.6196,-2.6279,-2.6622,-2.7603,-2.667,-2.6396,-2.8947,-2.8742,0.0,-3.0741,0.0,0.0,0.0,0.0,0.0,-3.6817,-3.806,-3.954,0.0,-4.2208,0.0,-4.3927,-4.4419,-4.4572,0.0,-4.4572,-4.471,-4.5003,-4.5387,-4.5865,-4.6449,-4.7219,-4.7676,-4.7803,-4.7782,-4.7639,-4.7309,-4.7309,-4.7309,-4.7309,-4.7309,-4.7459,-4.7743,0.0,-4.7893,-4.8162,-4.8162,-4.8162,-4.8162,-4.8162,-4.797,-4.7599,-4.7435,-4.6281,-4.4539,0.0,0.0,0.0,0.0,0.0,0.0,0.0,0.0,0.0,0.0,0.0,0.0,0.0,0.0,0.0,0.0,0.0,0.0,0.0,0.0,0.0,0.0,0.0,0.0,0.0,0.0,0.0,0.0,0.0,0.0,0.0,0.0,0.0,0.0,0.0,0.0,0.0,0.0,0.0,0.0,0.0,0.0,0.0,0.0,0.0,0.0,0.0,0.0,0.0,0.0,-2.0095,-2.0407,-2.0622,-2.1381,-2.2425,-2.3627,-2.4241,-2.4808,-2.6174,-2.6599,-2.6775,-2.7719,-2.78,-2.7869,-2.8351,-2.7812,-2.7649,-2.9626,0.0,-2.9249,-3.1141,-3.2301,-3.2905,-3.2969,0.0,-3.6571,-3.6857,-3.802,-3.9326,-4.0432,-4.1463,-4.2304,-4.3205,-4.4173,-4.471,-4.471,-4.4803,-4.5064,-4.5557,-4.5757,-4.6434,-4.7696,-4.7742,-4.7773,-4.7964,-4.7709,-4.7467,-4.7309,-4.7309,-4.7309,-4.7309,-4.7399,-4.7743,-4.8282,-4.8371,0.0,-4.9269,-4.9269,-4.9269,-4.9269,-4.9269,-4.8983,-4.8525,-4.8311,-4.669,-4.4561,0.0,0.0,0.0,0.0,0.0,0.0,0.0,0.0,0.0,0.0,-1.5203,-1.4853,0.0,0.0,0.0,0.0,0.0,0.0,0.0,0.0,0.0,0.0,0.0,0.0,0.0,0.0,0.0,0.0,0.0,0.0,0.0,0.0,0.0,0.0,0.0,0.0,0.0,0.0,0.0,0.0,0.0,0.0,0.0,0.0,0.0,0.0,0.0,0.0,0.0,0.0,-2.056,-2.0734,-2.2159,-2.3265,-2.4279,-2.5637,-2.6273,-2.6753,-2.701,-2.7103,-2.7185,-2.78,-2.729,-2.7033,-2.8259,-2.7577,0.0,0.0,-2.9617,-2.9797,-3.1714,-3.2555,-3.3034,-3.3495,0.0,0.0,0.0,0.0,-3.91,0.0,0.0,0.0,0.0,0.0,0.0,0.0,0.0,-4.6049,-4.5603,-4.665,-4.7619,-4.8419,-4.8285,-4.8095,-4.7964,-4.7709,-4.7467,-4.7309,-4.7309,-4.7309,-4.7324,-4.7863,-4.8177,-4.8312,-4.8865,0.0,-4.9269,-4.9269,-4.9269,-4.9269,-4.9269,-4.8983,-4.8418,-4.7398,-4.6008,-4.4425,0.0,0.0,0.0,0.0,0.0,0.0,0.0,-1.6311,-1.6212,-1.5946,-1.5673,-1.5351,-1.4741,-1.4576,-1.4592,0.0,0.0,0.0,0.0,0.0,0.0,0.0,0.0,0.0,0.0,0.0,0.0,0.0,0.0,0.0,0.0,0.0,0.0,0.0,0.0,0.0,0.0,0.0,0.0,0.0,0.0,0.0,0.0,0.0,0.0,0.0,0.0,0.0,0.0,0.0,-2.1447,-2.1651,-2.3384,-2.4904,-2.6008,-2.6682,-2.7021,-2.7267,-2.7534,-2.7534,-2.7766,-2.8454,-2.8257,-2.8234,-2.9092,0.0,0.0,0.0,-3.0735,-3.1137,-3.2384,0.0,0.0,0.0,0.0,0.0,0.0,0.0,0.0,0.0,0.0,0.0,0.0,0.0,0.0,0.0,0.0,-4.6973,-4.6665,-4.7588,-4.8199,-4.8453,-4.8218,-4.8049,-4.7794,-4.7553,-4.7381,-4.7309,-4.7309,-4.7489,-4.7833,-4.8132,-4.8656,-4.9329,-4.9643,0.0,-5.0287,-5.0287,-5.0287,-5.0272,-5.0179,-4.9498,-4.86,-4.7881,-4.6345,-4.4595,0.0,0.0,0.0,0.0,0.0,0.0,0.0,-1.673,-1.6654,-1.6437,-1.617,-1.5809,-1.5494,-1.502,-1.4885,0.0,0.0,0.0,0.0,0.0,0.0,0.0,0.0,0.0,0.0,0.0,0.0,0.0,0.0,0.0,0.0,0.0,0.0,0.0,0.0,0.0,0.0,0.0,0.0,0.0,0.0,0.0,0.0,0.0,0.0,0.0,0.0,0.0,0.0,0.0,-2.2353,-2.2784,-2.4231,-2.5673,-2.6846,-2.701,-2.7267,-2.7603,-2.795,-2.8125,-2.8383,-2.9114,-2.9388,-2.9569,-3.0073,-3.041,0.0,0.0,-3.1918,-3.2287,-3.2993,0.0,0.0,0.0,0.0,0.0,0.0,0.0,0.0,0.0,0.0,0.0,0.0,0.0,0.0,0.0,0.0,0.0,-4.7819,-4.8327,-4.8537,-4.8286,-4.8133,-4.788,-4.7624,-4.7381,-4.7309,-4.7309,-4.7309,-4.7653,-4.8282,-4.8431,-4.9134,-5.0242,-5.0391,0.0,0.0,-5.1214,-5.1214,-5.1214,-5.0902,-4.9999,-4.8696,-4.8181,-4.664,-4.4676,0.0,0.0,0.0,0.0,0.0,0.0,0.0,-1.673,-1.6723,-1.6698,-1.645,-1.6375,-1.6562,-1.5652,-1.5083,0.0,0.0,0.0,0.0,0.0,0.0,0.0,0.0,0.0,0.0,0.0,0.0,0.0,0.0,0.0,0.0,0.0,0.0,0.0,0.0,0.0,0.0,0.0,0.0,0.0,0.0,0.0,0.0,0.0,0.0,0.0,0.0,0.0,0.0,0.0,0.0,-2.3963,-2.4402,-2.5073,-2.5746,-2.6351,0.0,0.0,-2.8431,-2.8778,-2.915,-2.9292,-2.9665,-3.0109,-3.0301,0.0,0.0,-3.1806,-3.2301,-3.2747,-3.3068,0.0,0.0,0.0,0.0,-3.6393,0.0,0.0,0.0,0.0,0.0,0.0,0.0,0.0,0.0,0.0,0.0,0.0,-4.8527,-4.8573,-4.8537,-4.8286,-4.8133,-4.788,-4.7624,-4.7381,-4.7309,-4.7309,-4.7309,-4.7653,-4.8312,-4.8895,-4.9568,-5.0272,-5.087,0.0,0.0,-5.1214,-5.1214,-5.1214,-5.0902,-4.9999,-4.8596,-4.7355,-4.591,-4.4568,0.0,0.0,0.0,0.0,0.0,0.0,-1.7265,-1.7265,-1.7265,-1.7265,-1.7016,-1.6839,-1.6942,-1.648,-1.5999,-1.5829,0.0,0.0,0.0,0.0,0.0,0.0,0.0,0.0,0.0,0.0,0.0,0.0,0.0,0.0,0.0,0.0,0.0,0.0,0.0,0.0,0.0,0.0,0.0,0.0,0.0,0.0,0.0,0.0,0.0,0.0,0.0,0.0,0.0,0.0,0.0,0.0,-2.356,-2.4415,0.0,0.0,-2.7567,-2.8304,-2.8817,-2.9446,-2.9999,-3.0242,-3.0664,-3.1089,-3.1308,0.0,0.0,-3.2302,-3.266,-3.2982,-3.3068,0.0,0.0,0.0,0.0,0.0,0.0,0.0,0.0,0.0,0.0,0.0,0.0,0.0,0.0,0.0,0.0,0.0,-4.7734,-4.8256,-4.8453,-4.8133,-4.8049,-4.7794,-4.7381,-4.7309,-4.7309,-4.7309,-4.7713,-4.8237,-4.8895,-4.9553,-5.0212,-5.084,-5.1109,0.0,0.0,-5.1214,-5.1214,-5.112,-5.0013,-4.8865,-4.7633,-4.6018,-4.4725,-4.3636,0.0,0.0,0.0,0.0,0.0,-1.7582,-1.7582,-1.7582,-1.7582,-1.7582,-1.7408,-1.7275,-1.7275,-1.7014,-1.6754,-1.6553,-1.6283,0.0,0.0,0.0,0.0,0.0,0.0,0.0,0.0,0.0,-2.253,-2.2608,-2.2608,0.0,0.0,0.0,0.0,0.0,0.0,0.0,0.0,0.0,0.0,0.0,0.0,0.0,0.0,0.0,0.0,0.0,0.0,0.0,0.0,0.0,0.0,0.0,0.0,0.0,0.0,0.0,-2.7664,-2.8486,-2.9508,-3.0238,-3.0821,-3.104,-3.1443,-3.1921,0.0,0.0,0.0,-3.2797,-3.2982,-3.3131,-3.3294,0.0,0.0,0.0,0.0,-3.7153,0.0,0.0,0.0,0.0,0.0,0.0,0.0,0.0,0.0,0.0,0.0,0.0,0.0,-4.7276,-4.7734,-4.7964,-4.788,-4.7709,-4.7309,-4.7309,-4.7309,-4.7309,-4.7967,-4.8626,-4.9284,-4.9942,-5.0601,-5.1214,-5.1214,0.0,0.0,-5.1214,-5.1011,-5.0618,-4.9303,-4.7951,-4.6501,-4.5195,-4.3932,-4.2974,0.0,0.0,0.0,0.0,0.0,0.0,-1.7582,-1.7582,-1.7582,-1.7582,-1.7582,-1.7582,-1.7582,-1.7321,-1.7141,-1.7141,-1.6912,0.0,0.0,0.0,0.0,0.0,0.0,0.0,0.0,0.0,-2.2882,-2.3047,-2.3047,-2.3047,-2.3047,-2.3047,0.0,0.0,0.0,0.0,0.0,0.0,0.0,0.0,0.0,0.0,0.0,0.0,0.0,0.0,0.0,0.0,0.0,0.0,0.0,0.0,0.0,0.0,0.0,0.0,-2.7986,-2.9253,-3.0467,-3.1146,-3.1577,-3.1589,-3.1994,-3.2463,0.0,0.0,-3.281,-3.3068,-3.3081,-3.3244,-3.3796,-3.4248,0.0,0.0,0.0,0.0,0.0,0.0,0.0,0.0,0.0,0.0,0.0,0.0,0.0,0.0,0.0,0.0,0.0,-4.5403,-4.6226,-4.7964,-4.7709,-4.7467,-4.7309,-4.7309,-4.7309,-4.7309,-4.7967,-4.8626,-4.9284,-4.9942,-5.0601,0.0,0.0,0.0,0.0,-5.1214,-5.0618,-4.9513,-4.9007,-4.7457,-4.5395,-4.4886,-4.3932,-4.2974,0.0,0.0,0.0,0.0,0.0,0.0,0.0,-1.7582,-1.7582,-1.7582,-1.7582,-1.7582,-1.7582,-1.7718,-1.7769,-1.7769,-1.7225,0.0,0.0,0.0,0.0,0.0,0.0,0.0,0.0,0.0,-2.3057,-2.3135,-2.3135,-2.3135,-2.3135,-2.3319,-2.3319,0.0,0.0,0.0,0.0,0.0,0.0,0.0,0.0,0.0,0.0,0.0,0.0,0.0,0.0,0.0,0.0,0.0,0.0,0.0,0.0,0.0,0.0,-2.7889,0.0,0.0,-3.087,-3.1797,-3.2302,-3.2228,-3.2525,-3.2822,-3.2723,0.0,-3.3095,-3.3558,-3.3633,-3.3897,-3.4552,-3.5315,0.0,0.0,0.0,0.0,0.0,0.0,0.0,0.0,0.0,0.0,0.0,0.0,0.0,0.0,0.0,0.0,0.0,-4.4549,-4.5101,-4.566,-4.557,-4.5494,-4.525,-4.525,-4.525,-4.525,-4.6311,-4.7319,-4.8341,-4.9333,-5.033,0.0,0.0,0.0,0.0,-5.1214,-5.0618,-4.9513,-4.8153,-4.6723,-4.5289,-4.4042,-4.3295,-4.2974,0.0,0.0,0.0,0.0,0.0,0.0,0.0,-1.7582,-1.7582,-1.7582,-1.7582,-1.7687,-1.7694,-1.7911,-1.8016,-1.8115,-1.8278,0.0,0.0,0.0,0.0,0.0,0.0,0.0,0.0,-2.3859,-2.3801,-2.39,-2.39,-2.39,-2.39,-2.4078,-2.4078,-2.39,-2.3989,0.0,0.0,0.0,0.0,0.0,0.0,0.0,-2.4053,0.0,0.0,0.0,0.0,0.0,0.0,0.0,0.0,0.0,0.0,0.0,0.0,0.0,-2.9408,-2.9699,0.0,-3.2462,-3.281,-3.2736,-3.2909,0.0,0.0,0.0,-3.3545,-3.4098,-3.4211,-3.4387,-3.512,-3.5863,0.0,0.0,0.0,0.0,0.0,0.0,0.0,0.0,0.0,0.0,0.0,0.0,0.0,0.0,0.0,0.0,0.0,-4.3259,-4.345,-4.3355,-4.4097,-4.4392,-4.4312,-4.4312,-4.4312,-4.4326,-4.5549,-4.6732,-4.7861,-4.9045,-4.9917,0.0,0.0,0.0,0.0,-4.9999,-4.9401,-4.8296,-4.7033,-4.5807,-4.4683,-4.3517,-4.2974,-4.2974,0.0,0.0,0.0,0.0,0.0,0.0,0.0,-1.7582,-1.7582,-1.7582,-1.7582,-1.7694,-1.8016,-1.8023,-1.8227,-1.8527,0.0,0.0,0.0,0.0,0.0,0.0,0.0,0.0,-2.4842,-2.4822,-2.4985,-2.5178,-2.5178,-2.5178,-2.5178,-2.5178,-2.5178,-2.5189,-2.4985,-2.4985,0.0,0.0,0.0,0.0,0.0,0.0,0.0,0.0,0.0,0.0,0.0,0.0,0.0,0.0,0.0,0.0,0.0,0.0,0.0,0.0,0.0,0.0,0.0,-3.3081,0.0,0.0,0.0,0.0,0.0,0.0,0.0,-3.4663,-3.4776,-3.4951,-3.5504,-3.6065,0.0,0.0,0.0,0.0,0.0,0.0,0.0,0.0,0.0,0.0,0.0,0.0,0.0,0.0,0.0,0.0,0.0,-4.1696,-4.1597,-4.1311,-4.3095,-4.4125,-4.4125,-4.4125,-4.4125,-4.4139,-4.5218,-4.6373,-4.7507,-4.8721,-4.93,0.0,0.0,0.0,0.0,-4.7979,-4.7383,-4.6374,-4.5728,-4.4804,-4.3789,-4.3209,-4.2974,-4.2974,0.0,0.0,0.0,0.0,0.0,0.0,0.0,0.0,0.0,0.0,-1.7799,-1.7911,-1.8016,-1.8443,-1.9063,0.0,0.0,0.0,0.0,0.0,0.0,0.0,0.0,0.0,-2.5307,-2.5165,-2.5178,-2.5178,-2.5178,-2.5178,-2.5178,-2.5381,-2.5371,-2.5189,-2.5371,-2.5371,0.0,0.0,0.0,0.0,0.0,0.0,0.0,0.0,0.0,0.0,-2.6089,-2.6184,0.0,0.0,0.0,0.0,0.0,0.0,0.0,0.0,-2.9624,-3.0441,-3.1625,0.0,-3.3181,-3.3608,-3.3709,-3.3847,0.0,0.0,-3.4688,-3.524,0.0,-3.5609,-3.6536,0.0,0.0,0.0,0.0,0.0,0.0,0.0,0.0,0.0,0.0,0.0,0.0,0.0,0.0,0.0,0.0,0.0,0.0,-4.1411,-4.1411,-4.1311,-4.1782,-4.1967,-4.1967,-4.1967,-4.1967,-4.198,-4.2798,-4.3719,-4.4719,-4.5451,-4.6431,0.0,0.0,0.0,-4.7979,-4.7979,-4.7383,-4.6374,-4.5728,-4.4804,-4.3789,-4.3209,-4.2974,-4.2974,0.0,0.0,0.0,0.0,0.0,0.0,0.0,0.0,0.0,0.0,0.0,0.0,0.0,0.0,0.0,0.0,0.0,0.0,0.0,0.0,0.0,0.0,0.0,-2.5849,-2.6144,-2.6007,-2.6072,-2.6155,-2.6155,-2.6155,-2.6155,-2.6352,-2.6259,-2.6155,-2.6352,-2.6259,0.0,0.0,0.0,0.0,-2.6044,0.0,0.0,0.0,0.0,0.0,-2.6699,-2.6794,0.0,-2.688,-2.6976,-2.7081,0.0,0.0,0.0,0.0,-2.925,-3.0158,-3.1603,-3.2707,-3.3533,-3.3822,-3.4085,-3.4424,-3.4977,0.0,0.0,0.0,0.0,0.0,0.0,0.0,0.0,0.0,0.0,0.0,0.0,0.0,0.0,0.0,0.0,0.0,0.0,0.0,0.0,0.0,0.0,0.0,0.0,-4.1311,-4.1311,-4.1311,-4.1311,-4.1311,-4.1311,-4.1311,-4.1311,-4.1324,-4.1886,-4.2756,-4.384,-4.4398,-4.5135,0.0,0.0,0.0,-4.6147,-4.5926,-4.5697,-4.5342,-4.4778,-4.4152,-4.3653,-4.3197,-4.2974,-4.2974,0.0,0.0,0.0,0.0,0.0,0.0,0.0,0.0,0.0,0.0,0.0,0.0,0.0,0.0,0.0,0.0,0.0,0.0,0.0,0.0,0.0,0.0,0.0,-2.64,-2.69,-2.69,-2.7081,-2.7262,-2.7262,-2.7262,-2.7262,-2.7262,-2.7262,-2.7262,-2.7262,-2.7167,0.0,0.0,0.0,0.0,-2.6699,0.0,0.0,0.0,0.0,0.0,0.0,0.0,0.0,-2.7262,-2.7262,-2.7262,-2.7262,0.0,0.0,0.0,0.0,0.0,-3.1852,-3.322,-3.4148,-3.4148,-3.45,-3.5002,-3.5542,0.0,0.0,0.0,0.0,0.0,0.0,0.0,0.0,0.0,0.0,0.0,0.0,0.0,0.0,0.0,0.0,0.0,0.0,0.0,0.0,0.0,0.0,0.0,0.0,-4.1311,-4.1311,-4.1311,-4.1311,-4.1311,-4.1311,-4.1311,-4.1311,-4.1324,-4.1808,-4.2523,-4.3409,-4.3881,-4.4151,-4.4232,0.0,0.0,-4.3742,-4.341,-4.364,-4.4061,-4.35,-4.3318,-4.3394,-4.3085,-4.2924,-4.2836,0.0,0.0,0.0,0.0,0.0,0.0,0.0,0.0,0.0,0.0,0.0,0.0,0.0,0.0,0.0,0.0,0.0,0.0,0.0,0.0,0.0,0.0,-2.6805,-2.6805,-2.69,-2.7081,-2.7262,-2.7262,-2.7262,-2.7262,-2.7262,-2.7262,-2.7262,-2.7262,-2.7262,-2.7262,-2.7262,-2.7262,-2.7262,-2.7262,-2.7167,0.0,0.0,0.0,0.0,0.0,0.0,0.0,0.0,-2.7262,-2.7262,-2.7262,-2.7262,0.0,0.0,0.0,0.0,0.0,-3.1748,-3.3498,-3.529,-3.529,-3.5353,-3.5567,0.0,0.0,0.0,0.0,0.0,0.0,0.0,0.0,0.0,0.0,0.0,0.0,0.0,0.0,0.0,0.0,0.0,0.0,0.0,0.0,0.0,0.0,0.0,0.0,0.0,-4.1311,-4.1311,-4.1311,-4.1311,-4.1311,-4.1311,-4.1311,-4.1311,-4.1311,-4.1402,-4.1542,-4.1642,-4.1721,-4.2124,-4.2584,0.0,-4.2824,-4.3154,-4.2826,-4.3044,-4.3454,-4.2939,-4.3,-4.3394,-4.3085,-4.2685,-4.2221,0.0,0.0,0.0,0.0,0.0,0.0,0.0,0.0,0.0,0.0,0.0,0.0,0.0,0.0,0.0,0.0,0.0,0.0,0.0,0.0,0.0,-2.7081,-2.7081,-2.7081,-2.7081,-2.7262,-2.7262,-2.7262,-2.7262,-2.7262,-2.7262,-2.7262,-2.7262,-2.7262,-2.7262,-2.7262,-2.7262,-2.7262,-2.7262,-2.7262,0.0,0.0,0.0,0.0,0.0,0.0,0.0,0.0,0.0,0.0,-2.7417,-2.7614,-2.7614,0.0,0.0,0.0,0.0,0.0,-3.1991,-3.3624,-3.5297,-3.5887,-3.5994,-3.6056,0.0,0.0,0.0,0.0,0.0,0.0,0.0,0.0,0.0,0.0,0.0,0.0,0.0,0.0,0.0,0.0,0.0,0.0,0.0,0.0,0.0,0.0,0.0,0.0,0.0,0.0,-4.1311,-4.1311,-4.1311,-4.1311,-4.1311,-4.1311,-4.1311,-4.1311,-4.1311,-4.1311,-4.1311,-4.1311,-4.1455,-4.1703,0.0,-4.203,-4.2552,-4.2034,-4.2252,-4.2661,-4.2151,-4.2086,-4.2204,-4.2098,-4.1985,-4.1672,0.0,0.0,0.0,0.0,0.0,0.0,0.0,0.0,0.0,0.0,0.0,0.0,0.0,0.0,0.0,0.0,0.0,0.0,0.0,0.0,-2.6986,-2.7262,-2.7262,-2.7262,-2.7262,-2.7262,-2.7262,-2.7262,-2.7262,-2.7262,-2.7262,-2.7262,-2.7262,-2.7262,-2.7262,-2.7262,-2.7262,-2.7262,-2.7262,-2.7262,0.0,0.0,0.0,0.0,0.0,0.0,0.0,0.0,0.0,0.0,0.0,0.0,0.0,0.0,0.0,-2.8773,-3.007,-3.1617,-3.2419,-3.3882,-3.5367,-3.6156,0.0,0.0,0.0,0.0,0.0,0.0,0.0,0.0,0.0,0.0,0.0,0.0,0.0,0.0,0.0,0.0,0.0,0.0,0.0,0.0,0.0,0.0,0.0,0.0,0.0,0.0,0.0,0.0,-4.1311,-4.1311,-4.1311,-4.1311,-4.1311,-4.1311,-4.1311,-4.1311,-4.1311,-4.1311,-4.1311,-4.1311,-4.1311,-4.1311,-4.1311,-4.1559,-4.1964,-4.1351,-4.1478,-4.1977,-4.1354,-4.1229,-4.1247,-4.113,-4.113,-4.0993,0.0,0.0,0.0,0.0,0.0,0.0,0.0,0.0,0.0,0.0,0.0,0.0,0.0,0.0,0.0,0.0,0.0,0.0,0.0,0.0,-2.6986,-2.7262,-2.7262,-2.7262,-2.7262,-2.7262,-2.7262,-2.7262,-2.7262,-2.7262,-2.7262,-2.7262,-2.7262,-2.7262,-2.7262,-2.7262,-2.7262,-2.7262,-2.7262,-2.7262,-2.7262,0.0,0.0,0.0,0.0,0.0,0.0,0.0,0.0,0.0,0.0,0.0,0.0,0.0,-2.9259,-2.9259,-3.107,-3.3044,-3.3155,-3.4654,-3.6263,-3.6358,-3.6358,0.0,-3.6358,-3.6358,0.0,-3.6358,0.0,0.0,0.0,0.0,0.0,0.0,0.0,0.0,0.0,0.0,0.0,0.0,0.0,0.0,0.0,0.0,0.0,0.0,0.0,0.0,0.0,0.0,0.0,-4.1311,-4.1311,-4.1311,-4.1311,-4.1311,-4.1311,-4.1311,-4.1311,-4.1311,-4.1311,-4.1311,-4.1311,-4.1311,-4.1311,-4.1337,-4.1276,-4.0771,-4.0901,-4.1297,-4.0786,-4.089,-4.1209,-4.0699,-4.0607,-4.0427,0.0,0.0,0.0,0.0,0.0,0.0,0.0,0.0,0.0,0.0,0.0,0.0,0.0,0.0,0.0,0.0,0.0,0.0,0.0,0.0,-2.7167,-2.7262,-2.7262,-2.7262,-2.7262,-2.7262,-2.7262,-2.7262,-2.7262,-2.7262,-2.7262,-2.7262,-2.7262,-2.7262,-2.7262,-2.7262,-2.7262,-2.7262,-2.7262,-2.7262,-2.7262,-2.7262,0.0,0.0,0.0,0.0,0.0,0.0,0.0,0.0,-2.8659,-2.9042,0.0,-2.9363,-2.9735,-2.9735,-3.0955,-3.2387,-3.3001,-3.4288,-3.5571,-3.625,-3.6358,0.0,0.0,-3.6358,-3.6358,-3.6358,-3.6358,0.0,0.0,0.0,0.0,0.0,0.0,0.0,0.0,0.0,0.0,0.0,0.0,0.0,0.0,0.0,0.0,0.0,0.0,0.0,0.0,0.0,0.0,-4.1311,-4.1311,-4.1311,-4.1311,-4.1311,-4.1311,-4.1311,-4.1311,-4.1311,-4.1311,-4.1311,-4.1311,-4.1311,-4.1311,-4.1211,-4.0997,-4.0605,-4.0517,-4.0503,-4.0102,-4.0136,-4.0312,-4.012,-4.0032,-4.0023,0.0,0.0,0.0,0.0,0.0,0.0,0.0,0.0,0.0,0.0,0.0,0.0,0.0,0.0,0.0,0.0,0.0,0.0,-2.6996,-2.7177,-2.7262,-2.7262,-2.7262,-2.7262,-2.7262,-2.7262,-2.7262,-2.7262,-2.7262,-2.7262,-2.7262,-2.7262,-2.7262,-2.7262,-2.7262,-2.7262,-2.7262,-2.7262,-2.7262,-2.7262,-2.7262,-2.7345,0.0,0.0,0.0,0.0,0.0,0.0,0.0,0.0,-2.9135,-2.9528,0.0,0.0,0.0,-2.9994,-3.0785,-3.1779,-3.2488,-3.3685,-3.4981,0.0,0.0,0.0,-3.6358,-3.6358,-3.6358,-3.6358,-3.6358,0.0,0.0,0.0,0.0,0.0,0.0,0.0,0.0,0.0,0.0,0.0,0.0,0.0,0.0,0.0,0.0,0.0,0.0,0.0,0.0,0.0,0.0,0.0,-4.1311,-4.1311,-4.1311,-4.1311,-4.1311,-4.1311,-4.1311,-4.1311,-4.1311,-4.1311,-4.1311,-4.1311,-4.1211,-4.1097,-4.0883,-4.0491,-4.0198,-3.9981,-3.9788,-3.9697,-3.9697,-3.9697,-3.9697,-3.9697,0.0,0.0,0.0,0.0,0.0,0.0,0.0,0.0,0.0,0.0,0.0,0.0,0.0,0.0,0.0,0.0,0.0,0.0,-2.7262,-2.7262,-2.7262,-2.7262,-2.7262,-2.7262,-2.7262,-2.7262,-2.7262,-2.7262,-2.7262,-2.7262,-2.7262,-2.7262,-2.7262,-2.7262,-2.7262,-2.7262,-2.7262,-2.7262,-2.7262,-2.7262,-2.7262,-2.7531,-2.7924,0.0,0.0,0.0,0.0,0.0,0.0,0.0,-2.9622,-2.9994,0.0,0.0,0.0,0.0,-3.0785,-3.1575,-3.1575,-3.3178,-3.4775,0.0,0.0,0.0,0.0,0.0,0.0,0.0,0.0,0.0,0.0,0.0,0.0,0.0,0.0,0.0,0.0,0.0,0.0,0.0,0.0,0.0,0.0,0.0,0.0,0.0,0.0,0.0,0.0,0.0,0.0,0.0,-4.1311,-4.1311,-4.1311,-4.1311,-4.1311,-4.1311,-4.1311,-4.1311,-4.1311,-4.1311,-4.1311,-4.1311,-4.0997,-4.0883,-4.0883,-4.0275,-3.9981,-3.9697,-3.9697,-3.9697,-3.9697,-3.9697,-3.9697,-3.9697,0.0,0.0,0.0,0.0,0.0,0.0,0.0,0.0,0.0,0.0,0.0,0.0,0.0,0.0,0.0,0.0,0.0,0.0,-2.7262,-2.7262,-2.7262,-2.7262,-2.7262,-2.7262,-2.7262,-2.7262,-2.7262,-2.7262,-2.7262,-2.7262,-2.7262,-2.7262,-2.7262,-2.7262,-2.7262,-2.7262,-2.7262,-2.7262,-2.7262,-2.7293,-2.7603,-2.78,-2.7966,0.0,0.0,0.0,0.0,0.0,0.0,0.0,0.0,0.0,0.0,0.0,0.0,-2.9994,-3.0785,-3.1779,-3.2488,-3.3784,0.0,0.0,0.0,0.0,0.0,0.0,0.0,0.0,0.0,0.0,0.0,0.0,0.0,0.0,0.0,0.0,0.0,0.0,0.0,0.0,0.0,0.0,0.0,0.0,0.0,0.0,0.0,0.0,0.0,0.0,0.0,0.0,-4.0707,-4.0707,-4.0707,-4.0707,-4.0808,-4.0997,-4.0997,-4.111,-4.1311,-4.1311,-4.1311,-4.1311,-4.0997,-4.0795,-4.0605,-3.9993,-3.9788,-3.9697,-3.9697,-3.9697,-3.9697,-3.9697,-3.9697,-3.9697,0.0,0.0,0.0,0.0,0.0,0.0,0.0,0.0,0.0,0.0,0.0,0.0,0.0,0.0,0.0,0.0,0.0,0.0,0.0,0.0,-2.7262,-2.7262,-2.7262,-2.7262,-2.7262,-2.7262,-2.7262,-2.7262,-2.7262,-2.7262,-2.7262,-2.7262,-2.7262,-2.7262,-2.7262,-2.7262,-2.7262,-2.7262,-2.7365,-2.7552,-2.781,-2.8142,-2.8504,0.0,0.0,0.0,0.0,0.0,0.0,0.0,0.0,0.0,0.0,0.0,0.0,-2.9994,-3.0495,-3.1187,-3.2286,0.0,0.0,0.0,0.0,0.0,0.0,0.0,0.0,0.0,0.0,0.0,0.0,0.0,0.0,0.0,0.0,0.0,0.0,0.0,0.0,0.0,0.0,0.0,0.0,0.0,0.0,0.0,0.0,0.0,0.0,0.0,0.0,0.0,-4.0504,-4.0504,-4.0504,-4.0504,-4.0605,-4.0694,-4.0694,-4.0808,-4.101,-4.1211,-4.1211,-4.111,-4.0782,-4.0389,-4.0198,-3.9788,-3.9697,-3.9697,-3.9697,-3.9697,-3.9697,-3.9697,-3.9697,-3.9697,0.0,0.0,0.0,0.0,0.0,0.0,0.0,0.0,0.0,0.0,0.0,0.0,0.0,0.0,0.0,0.0,0.0,0.0,0.0,0.0,-2.7262,-2.7262,-2.7262,-2.7262,-2.7262,-2.7262,-2.7262,-2.7262,-2.7262,-2.7262,-2.7262,-2.7262,-2.7262,-2.7262,-2.7262,-2.7262,-2.7262,-2.7303,-2.7552,-2.7935,-2.8017,-2.8556,-2.9311,-2.9352,0.0,0.0,0.0,0.0,0.0,0.0,0.0,0.0,-2.9994,0.0,-2.9994,-2.9994,-3.0099,-3.0391,-3.1483,0.0,0.0,0.0,0.0,0.0,0.0,0.0,0.0,0.0,0.0,0.0,0.0,0.0,0.0,0.0,0.0,0.0,0.0,0.0,0.0,0.0,0.0,0.0,0.0,0.0,0.0,0.0,0.0,0.0,0.0,0.0,0.0,-4.0402,-4.0402,-4.0402,-4.0402,-4.0402,-4.0402,-4.0504,-4.0504,-4.0504,-4.0504,-4.101,-4.1097,-4.0782,-4.0275,-3.9981,-3.9697,-3.9697,-3.9697,-3.9697,-3.9697,-3.9697,-3.9697,-3.9697,-3.9697,-3.9697,0.0,0.0,0.0,0.0,0.0,0.0,0.0,0.0,0.0,0.0,0.0,0.0,0.0,0.0,0.0,0.0,0.0,0.0,0.0,0.0,-2.7262,-2.7262,-2.7262,-2.7262,-2.7262,-2.7262,-2.7262,-2.7262,-2.7262,-2.7262,-2.7262,-2.7262,-2.7262,-2.7262,-2.7262,-2.7262,-2.7282,-2.7634,-2.7831,-2.7986,-2.8711,-2.9125,-2.9342,-2.9704,-2.9911,0.0,0.0,0.0,0.0,0.0,0.0,0.0,-2.9994,-2.9994,-2.9994,-2.9994,-3.0588,-3.1483,0.0,-3.3586,0.0,0.0,0.0,0.0,0.0,0.0,0.0,0.0,0.0,0.0,0.0,0.0,0.0,0.0,0.0,0.0,0.0,0.0,0.0,0.0,0.0,0.0,0.0,0.0,0.0,0.0,0.0,0.0,0.0,0.0,0.0,-3.989,-3.989,-3.989,-3.989,-3.989,-3.9993,0.0,-4.0185,-4.0287,-4.0504,-4.0605,-4.0504,-4.0287,-4.0173,-3.9981,-3.9697,-3.9697,-3.9697,-3.9697,-3.9697,-3.9697,-3.9697,-3.9697,-3.9697,-3.9697,0.0,0.0,0.0,0.0,0.0,0.0,0.0,0.0,0.0,0.0,0.0,0.0,0.0,0.0,0.0,0.0,0.0,0.0,0.0,0.0,0.0,-2.7262,-2.7262,-2.7262,-2.7262,-2.7262,-2.7262,-2.7262,-2.7262,-2.7262,-2.7262,-2.7262,-2.7262,-2.7262,-2.7262,-2.7262,-2.7293,-2.7738,-2.8048,-2.8317,-2.9021,-2.9435,-2.9663,-2.9901,-2.9994,-2.9994,-2.9994,0.0,0.0,0.0,0.0,0.0,0.0,0.0,-2.9994,-2.9994,-3.0391,-3.1094,0.0,0.0,0.0,0.0,0.0,0.0,0.0,0.0,0.0,0.0,0.0,0.0,0.0,0.0,0.0,0.0,0.0,0.0,0.0,0.0,0.0,0.0,0.0,0.0,0.0,0.0,0.0,0.0,0.0,0.0,0.0,-3.9697,-3.9697,-3.9697,-3.9697,-3.9697,-3.9697,-3.9697,-3.9788,-3.9878,-3.9878,-3.9993,-4.0096,-4.0287,-4.0185,-4.007,-3.9981,-3.9788,-3.9697,-3.9697,-3.9697,-3.9697,-3.9697,-3.9697,-3.9697,-3.9697,-3.9697,-3.9697,0.0,0.0,0.0,0.0,0.0,0.0,0.0,0.0,0.0,0.0,0.0,0.0,0.0,0.0,0.0,0.0,0.0,0.0,0.0,0.0,0.0,0.0,-2.7262,-2.7262,-2.7262,-2.7262,-2.7262,-2.7262,-2.7262,0.0,0.0,-2.7262,-2.7262,-2.7262,-2.7262,-2.7303,-2.7407,-2.7852,-2.8307,-2.8773,-2.9239,-2.9653,-2.9994,-2.9994,-2.9994,-2.9994,-2.9994,-2.9994,-2.9994,-2.9994,0.0,0.0,0.0,0.0,-2.9994,-2.9994,-2.9994,-3.0297,0.0,0.0,0.0,0.0,0.0,0.0,0.0,0.0,0.0,0.0,0.0,0.0,0.0,0.0,0.0,0.0,0.0,0.0,0.0,0.0,0.0,0.0,0.0,0.0,0.0,0.0,0.0,0.0,0.0,0.0,-3.9383,-3.9396,-3.9396,-3.9396,-3.9396,-3.9396,-3.9396,-3.9396,-3.9396,-3.9408,-3.9496,-3.9546,-3.9546,-3.984,-4.0083,-3.9981,-3.9788,-3.9697,-3.9697,-3.9697,-3.9697,-3.9697,-3.9697,-3.9697,-3.9697,-3.9697,-3.9697,-3.9697,0.0,0.0,0.0,0.0,0.0,0.0,0.0,0.0,0.0,0.0,0.0,0.0,0.0,0.0,0.0,0.0,0.0,0.0,0.0,0.0,0.0,-2.7262,-2.7262,-2.7262,-2.7262,-2.7262,-2.7262,-2.7262,0.0,0.0,0.0,0.0,0.0,-2.7262,-2.7262,-2.7469,-2.7862,-2.8328,-2.8794,-2.9259,-2.9715,-2.9942,-2.9994,-2.9994,-2.9994,-2.9994,-2.9994,-2.9994,-2.9994,-2.9994,-2.9994,0.0,0.0,0.0,-2.9994,-2.9994,-2.9994,-3.0391,0.0,0.0,0.0,0.0,0.0,0.0,0.0,0.0,0.0,0.0,0.0,0.0,0.0,0.0,0.0,0.0,0.0,0.0,0.0,0.0,0.0,0.0,0.0,0.0,0.0,0.0,0.0,0.0,0.0,0.0,-3.8228,-3.8228,-3.8228,-3.8228,-3.8228,-3.8228,-3.8228,-3.8228,-3.8228,-3.8228,-3.8743,-3.8981,-3.8994,-3.9574,-3.9788,-3.9788,-3.9697,-3.9697,-3.9697,-3.9697,-3.9697,-3.9697,-3.9697,-3.9697,-3.9697,-3.9697,-3.9697,-3.9697,0.0,0.0,0.0,0.0,0.0,0.0,0.0,0.0,0.0,0.0,0.0,0.0,0.0,0.0,0.0,0.0,0.0,0.0,0.0,0.0,0.0,-2.7262,-2.7262,-2.7262,-2.7262,-2.7262,-2.7262,-2.7262,0.0,0.0,0.0,-2.7262,-2.7262,0.0,0.0,0.0,-2.7976,-2.869,-2.9114,-2.9342,-2.9808,-2.9994,-2.9994,-2.9994,-2.9994,-2.9994,-2.9994,-2.9994,-2.9994,-2.9994,-2.9994,-2.9994,-2.9994,0.0,0.0,0.0,-2.9994,0.0,0.0,0.0,0.0,0.0,0.0,0.0,0.0,0.0,0.0,0.0,0.0,0.0,0.0,0.0,0.0,0.0,0.0,0.0,0.0,0.0,0.0,0.0,0.0,0.0,0.0,0.0,0.0,0.0,0.0,-3.7676,-3.799,-3.8002,-3.8002,-3.8002,-3.8002,-3.8002,-3.8002,-3.8002,-3.8002,-3.8002,-3.8266,-3.8391,-3.8391,-3.863,-3.9094,-3.9697,-3.9697,-3.9697,-3.9697,-3.9697,-3.9697,-3.9697,-3.9697,-3.9697,-3.9697,-3.9697,-3.9697,-3.9697,0.0,0.0,0.0,0.0,0.0,0.0,0.0,0.0,0.0,0.0,0.0,0.0,0.0,0.0,0.0,0.0,0.0,0.0,0.0,0.0,0.0,-2.7262,-2.7262,-2.7262,-2.7262,-2.7262,-2.7262,0.0,0.0,0.0,-2.7262,-2.7262,-2.7262,0.0,-2.7728,-2.7986,0.0,0.0,0.0,-2.9508,-2.986,-2.9994,-2.9994,-2.9994,-2.9994,-2.9994,-2.9994,-2.9994,-2.9994,-2.9994,-2.9994,-2.9994,-2.9994,-2.9994,0.0,0.0,0.0,0.0,0.0,0.0,0.0,0.0,0.0,0.0,0.0,0.0,0.0,0.0,0.0,0.0,0.0,0.0,0.0,0.0,0.0,0.0,0.0,0.0,0.0,0.0,0.0,0.0,0.0,0.0,0.0,0.0,0.0,-3.7149,-3.7563,-3.7281,-3.7183,-3.7183,-3.7183,-3.7183,-3.7183,-3.7478,-3.7588,-3.7588,-3.7726,-3.7801,-3.7801,-3.7939,-3.8467,-3.927,-3.9421,-3.9559,-3.9697,-3.9697,-3.9697,-3.9697,-3.9697,-3.9697,-3.9697,-3.9697,-3.9697,-3.9697,0.0,0.0,0.0,0.0,0.0,0.0,0.0,0.0,0.0,0.0,0.0,0.0,-2.7158,-2.7262,-2.7262,-2.7262,0.0,0.0,0.0,0.0,0.0,-2.7262,-2.7262,0.0,-2.7262,-2.7262,0.0,0.0,0.0,0.0,-2.7262,-2.7262,-2.7262,-2.7282,-2.7728,-2.8173,-2.8607,0.0,0.0,0.0,0.0,0.0,0.0,0.0,0.0,0.0,-2.9994,-2.9994,-2.9994,-2.9994,-2.9994,-2.9994,-2.9994,-2.9994,-2.9994,0.0,0.0,0.0,0.0,0.0,0.0,0.0,0.0,0.0,0.0,0.0,0.0,0.0,0.0,0.0,0.0,0.0,0.0,0.0,0.0,0.0,0.0,0.0,0.0,0.0,0.0,0.0,0.0,0.0,0.0,0.0,0.0,-3.642,-3.6445,-3.5549,-3.4957,-3.4957,-3.4957,-3.4957,-3.4957,-3.5957,-3.6445,-3.6458,-3.6973,-3.7224,-3.7249,-3.7764,-3.804,-3.8128,-3.868,-3.9207,-3.9697,-3.9697,-3.9697,-3.9697,-3.9697,-3.9697,-3.9697,-3.9697,-3.9697,-3.9697,0.0,0.0,0.0,0.0,0.0,0.0,0.0,0.0,0.0,0.0,0.0,0.0,0.0,-2.7262,-2.7262,-2.7262,-2.7262,0.0,0.0,0.0,0.0,-2.7262,-2.7262,-2.7262,-2.7262,-2.7262,0.0,0.0,0.0,-2.7262,-2.7262,-2.7262,-2.7407,-2.7707,-2.8162,-2.8452,-2.8659,-2.9425,0.0,0.0,0.0,0.0,0.0,0.0,0.0,0.0,0.0,0.0,0.0,0.0,-2.9994,-2.9994,-2.9994,-2.9994,-2.9994,-2.9994,-3.0297,0.0,0.0,0.0,0.0,0.0,0.0,0.0,0.0,0.0,0.0,0.0,0.0,0.0,0.0,0.0,0.0,0.0,0.0,0.0,0.0,0.0,0.0,0.0,0.0,0.0,0.0,0.0,0.0,0.0,0.0,0.0,-3.4385,-3.3773,-3.3575,-3.3796,-3.3796,-3.3796,-3.3796,-3.4872,-3.5367,-3.5379,-3.626,-3.6659,-3.6659,-3.686,-3.7149,-3.7487,-3.7701,-3.8103,-3.8617,-3.8617,-3.8617,-3.8617,-3.8617,-3.8617,-3.8617,-3.8617,-3.8617,-3.8617,0.0,0.0,0.0,0.0,0.0,0.0,0.0,0.0,0.0,-2.5823,0.0,0.0,0.0,0.0,-2.7262,-2.7262,-2.7262,-2.7262,-2.7262,-2.7262,-2.7262,-2.7262,-2.7262,-2.7262,-2.7262,0.0,0.0,0.0,0.0,0.0,0.0,-2.7262,-2.7489,-2.7945,-2.8411,-2.87,0.0,0.0,0.0,-2.9994,0.0,0.0,-2.9994,0.0,0.0,0.0,0.0,0.0,0.0,0.0,0.0,0.0,-2.9994,-2.9994,-2.9994,-2.9994,0.0,0.0,0.0,0.0,0.0,0.0,0.0,0.0,0.0,0.0,0.0,0.0,0.0,0.0,0.0,0.0,0.0,0.0,0.0,0.0,0.0,0.0,0.0,0.0,0.0,0.0,0.0,0.0,0.0,0.0,0.0,0.0,-3.2978,-3.2353,-3.2264,-3.2488,-3.2499,-3.27,-3.3201,-3.3895,-3.4483,-3.4775,-3.5571,-3.6061,-3.6358,-3.6358,-3.6558,-3.691,-3.691,-3.7324,-3.8002,-3.8002,-3.8002,-3.8002,-3.8002,-3.8002,-3.8002,-3.8002,-3.8002,-3.8002,0.0,0.0,0.0,0.0,0.0,0.0,0.0,0.0,-2.5399,-2.5823,0.0,0.0,0.0,0.0,0.0,-2.7262,-2.7262,-2.7262,-2.7262,-2.7262,-2.7262,-2.7262,0.0,0.0,0.0,0.0,0.0,0.0,0.0,0.0,0.0,0.0,-2.7521,-2.7966,-2.8421,-2.8887,-2.9352,0.0,-2.9994,-2.9994,0.0,-2.9994,-2.9994,0.0,0.0,0.0,-2.9994,-2.9994,0.0,-2.9994,0.0,0.0,0.0,0.0,0.0,0.0,0.0,0.0,0.0,0.0,0.0,0.0,0.0,0.0,0.0,0.0,0.0,0.0,0.0,0.0,0.0,0.0,0.0,0.0,0.0,0.0,0.0,0.0,0.0,0.0,0.0,0.0,0.0,0.0,0.0,0.0,0.0,-3.2555,-3.223,-3.1224,-3.0835,-3.1084,-3.1187,-3.179,-3.3101,-3.3101,-3.3697,-3.4775,-3.4775,-3.5367,-3.6358,-3.6358,-3.6358,-3.6358,-3.6358,-3.6973,-3.7952,-3.7952,-3.7952,-3.7952,-3.7952,-3.7952,-3.7952,-3.7952,-3.7952,-3.7952,0.0,0.0,0.0,0.0,0.0,0.0,-2.4368,-2.5202,-2.574,0.0,0.0,0.0,-2.7251,-2.7262,-2.7262,-2.7262,-2.7262,-2.7262,-2.7262,-2.7262,-2.7262,-2.7262,-2.7262,-2.7262,-2.7262,0.0,0.0,0.0,0.0,0.0,0.0,0.0,0.0,0.0,-2.8907,-2.9373,-2.9808,-2.9942,0.0,0.0,-2.9994,-2.9994,0.0,0.0,0.0,0.0,0.0,-2.9994,-2.9994,0.0,-2.9994,-2.9994,0.0,0.0,0.0,0.0,0.0,0.0,-2.9994,0.0,0.0,0.0,0.0,0.0,0.0,0.0,0.0,0.0,0.0,0.0,0.0,0.0,0.0,0.0,0.0,0.0,0.0,0.0,0.0,0.0,0.0,0.0,0.0,0.0,0.0,0.0,-3.1451,-3.0927,-3.0037,-2.9733,-2.9638,-2.9638,-2.9963,-3.0266,-3.0567,-3.1575,-3.2588,-3.3697,-3.4385,-3.5367,-3.6358,-3.6358,-3.6358,-3.6358,-3.6358,-3.6533,-3.681,-3.681,-3.681,-3.681,-3.681,-3.681,-3.681,-3.681,-3.681,-3.681,0.0,0.0,0.0,0.0,0.0,-2.3907,-2.4454,-2.5306,-2.5875,0.0,0.0,0.0,-2.7262,-2.7262,-2.7262,-2.7262,-2.7262,-2.7262,-2.7262,-2.7262,-2.7262,-2.7262,-2.7262,-2.7262,-2.7262,-2.7438,0.0,0.0,0.0,0.0,0.0,0.0,0.0,0.0,0.0,0.0,0.0,0.0,0.0,0.0,-2.9994,0.0,0.0,-2.9994,-2.9994,0.0,0.0,0.0,-2.9994,-2.9994,-2.9994,0.0,0.0,0.0,0.0,0.0,0.0,0.0,0.0,0.0,0.0,0.0,0.0,0.0,-3.0888,-3.0888,0.0,0.0,0.0,0.0,0.0,0.0,0.0,0.0,0.0,0.0,0.0,0.0,0.0,0.0,0.0,0.0,0.0,0.0,0.0,-3.0266,-2.9932,-2.9513,-2.8814,-2.8814,-2.8814,-2.893,-2.9237,-2.9448,-2.9554,-3.0474,-3.1688,-3.3201,-3.3784,-3.4969,-3.6358,-3.6358,-3.6358,-3.6358,-3.6358,-3.6358,-3.6358,-3.6358,-3.6358,-3.6358,-3.6358,-3.6358,-3.6358,-3.6358,-3.6358,-3.6358,0.0,0.0,-2.3028,-2.3927,-2.4282,-2.454,-2.454,-2.5306,-2.5875,0.0,-2.6682,-2.7262,-2.7262,-2.7262,-2.7262,-2.7262,-2.7262,-2.7262,-2.7262,-2.7262,-2.7262,-2.7262,-2.7262,-2.7262,-2.7262,-2.7645,0.0,0.0,0.0,0.0,0.0,0.0,0.0,0.0,0.0,0.0,0.0,0.0,0.0,-2.9994,-2.9994,-2.9994,0.0,0.0,-2.9994,-2.9994,-2.9994,-2.9994,-2.9994,-2.9994,-2.9994,0.0,0.0,0.0,0.0,0.0,-2.9994,0.0,0.0,0.0,0.0,0.0,0.0,0.0,-2.9994,-2.9994,-2.9994,0.0,0.0,0.0,0.0,0.0,0.0,0.0,0.0,0.0,0.0,0.0,0.0,0.0,0.0,0.0,0.0,-3.0172,-2.9353,-2.8737,-2.8621,-2.8514,-2.8291,-2.8291,-2.8408,-2.8631,-2.893,-2.9237,-2.9554,-2.9889,-3.1105,-3.3201,-3.3201,-3.4288,-3.6358,-3.6358,-3.6358,-3.6358,-3.6358,-3.6358,-3.6358,-3.6358,-3.6358,-3.6358,-3.6358,-3.6358,-3.6358,-3.6358,-3.6358,-3.6358,0.0,0.0,-2.2833,-2.328,-2.4003,-2.454,-2.454,-2.5306,-2.5875,-2.5875,-2.6682,-2.7262,-2.7262,-2.7262,-2.7262,-2.7262,-2.7262,-2.7262,-2.7262,-2.7262,-2.7262,-2.7262,-2.7262,-2.7262,-2.7262,-2.7345,-2.7345,0.0,0.0,0.0,0.0,0.0,0.0,0.0,0.0,0.0,0.0,0.0,0.0,-2.9994,-2.9994,0.0,-2.9994,-2.9994,-2.9994,-2.9994,-2.9994,-2.9994,-2.9994,-2.9994,-2.9994,-2.9994,0.0,0.0,0.0,-2.9994,0.0,0.0,0.0,0.0,0.0,0.0,0.0,0.0,-2.9994,-2.9994,-2.9994,0.0,0.0,0.0,0.0,0.0,0.0,0.0,0.0,0.0,0.0,0.0,0.0,0.0,0.0,0.0,0.0,-2.9764,-2.9353,-2.8737,-2.8514,-2.8398,-2.8291,-2.8291,-2.8291,-2.8398,-2.8814,-2.9132,-2.9237,-2.9774,-3.1105,-3.3201,-3.3201,-3.4288,-3.6358,-3.6358,-3.6358,-3.6358,-3.6358,-3.6358,-3.6358,-3.6358,-3.6358,-3.6358,-3.6358,-3.6358,-3.6358,-3.6358,-3.6358,-3.6358,0.0,-2.1933,-2.2394,-2.3551,-2.382,-2.3993,-2.4454,-2.5306,-2.5875,-2.5875,-2.6682,-2.7262,-2.7262,-2.7262,-2.7262,-2.7262,-2.7262,-2.7262,-2.7262,-2.7262,-2.7262,-2.7262,-2.7262,-2.7262,-2.7262,-2.7262,-2.7262,-2.7262,0.0,0.0,0.0,0.0,0.0,0.0,0.0,0.0,0.0,0.0,-2.9994,-2.9994,-2.9994,0.0,-2.9994,-2.9994,-2.9994,-2.9994,-2.9994,-2.9994,-2.9994,-2.9994,-2.9994,0.0,0.0,-2.9994,-2.9994,0.0,-2.9994,-2.9994,0.0,0.0,0.0,-2.9994,0.0,0.0,0.0,-2.9994,-2.9994,0.0,0.0,0.0,0.0,0.0,0.0,0.0,0.0,0.0,0.0,0.0,0.0,0.0,0.0,0.0,0.0,-2.9248,-2.893,-2.8514,-2.8398,-2.8291,-2.8291,-2.8291,-2.8291,-2.8291,-2.8717,-2.893,-2.9132,-2.9564,-3.0981,-3.3201,-3.3201,-3.4288,-3.6358,-3.6358,-3.6358,-3.6358,-3.6358,-3.6358,-3.6358,-3.6358,-3.6358,-3.6358,-3.6358,-3.6358,-3.6358,-3.6358,-3.6358,-3.6358,-2.2492,-2.2129,-2.2217,-2.4186,-2.3907,-2.3637,-2.4368,-2.5233,-2.5844,-2.6113,-2.6868,-2.7386,-2.7386,-2.7314,-2.7262,-2.7262,-2.7262,-2.7262,-2.7262,-2.7262,-2.7262,-2.7262,-2.7262,-2.7262,-2.7262,-2.7262,-2.7262,-2.7262,0.0,0.0,0.0,0.0,0.0,0.0,0.0,0.0,0.0,0.0,0.0,-2.987,0.0,-2.9994,-2.9994,-2.9994,-2.9994,-2.9994,-2.9994,-2.9994,-2.9994,-2.9994,-2.9994,-2.9994,-2.9994,-2.9994,0.0,0.0,0.0,0.0,0.0,0.0,0.0,0.0,0.0,-2.9994,0.0,0.0,0.0,0.0,0.0,0.0,0.0,0.0,0.0,0.0,0.0,0.0,0.0,0.0,0.0,0.0,0.0,0.0,0.0,-2.8834,-2.8514,-2.8291,-2.8291,-2.8291,-2.8291,-2.8291,-2.8291,-2.8291,-2.8514,-2.8834,-2.9132,-2.9448,-3.0774,-3.3201,-3.3201,-3.4288,-3.6358,-3.6358,-3.6358,-3.6358,-3.6358,-3.6358,-3.6358,-3.6358,-3.6358,-3.6358,-3.6358,-3.6358,-3.6358,-3.6358,-3.6358,-3.6358,-2.3667,-2.3193,-2.2921,-2.4272,-2.4444,-2.4368,-2.4454,-2.4974,-2.574,-2.6941,-2.7541,-2.7852,0.0,0.0,0.0,0.0,0.0,0.0,-2.7262,0.0,-2.7262,-2.7262,-2.7262,-2.7262,-2.7262,-2.7262,-2.7262,-2.7262,0.0,0.0,0.0,0.0,0.0,0.0,-2.8107,0.0,0.0,0.0,-2.9168,0.0,-2.9829,-2.9994,0.0,-2.9994,-2.9994,-2.9994,-2.9994,-2.9994,-2.9994,0.0,-2.9994,-2.9994,0.0,-2.9994,-2.9994,0.0,0.0,0.0,0.0,0.0,0.0,0.0,-2.9994,0.0,0.0,0.0,0.0,0.0,0.0,0.0,0.0,0.0,0.0,0.0,0.0,0.0,0.0,0.0,0.0,0.0,0.0,0.0,0.0,0.0,-2.8291,-2.8291,-2.8291,-2.8291,-2.8291,-2.8291,-2.8291,-2.8291,-2.8514,-2.8834,-2.9132,-2.9448,-3.0774,-3.3201,-3.3201,-3.4288,-3.6358,-3.6358,-3.6358,-3.6358,-3.6358,-3.6358,-3.6358,-3.6358,-3.6358,-3.6358,-3.6358,-3.6358,-3.6358,-3.6358,-3.6358,-3.6358,-2.2668,-2.258,-2.2755,-2.41,-2.3917,-2.3734,-2.4368,-2.5378,-2.6206,0.0,0.0,0.0,0.0,0.0,0.0,0.0,0.0,-2.7262,0.0,0.0,-2.7262,-2.7262,-2.7262,-2.7262,-2.7262,-2.7262,-2.7262,-2.7081,-2.7081,0.0,0.0,0.0,0.0,0.0,-2.7603,0.0,-2.8411,0.0,-2.8737,0.0,0.0,0.0,0.0,-2.9994,-2.9994,-2.9994,-2.9994,-2.9994,-2.9994,0.0,-2.9994,0.0,0.0,0.0,0.0,0.0,0.0,0.0,0.0,0.0,0.0,0.0,0.0,0.0,-2.9994,0.0,-2.9994,0.0,0.0,0.0,0.0,0.0,0.0,0.0,0.0,0.0,0.0,0.0,0.0,0.0,0.0,0.0,0.0,0.0,0.0,0.0,-2.8291,-2.8291,-2.8291,-2.8291,-2.8291,-2.8291,-2.8408,-2.8717,-2.9132,-2.9237,-3.0359,-3.2286,-3.2889,-3.3993,-3.5463,-3.6156,-3.6358,-3.6358,-3.6358,-3.6358,-3.6358,-3.6358,-3.6358,-3.6358,-3.6358,-3.6358,-3.6358,-3.6358,-3.6358,-3.6358,-2.1311,0.0,0.0,0.0,0.0,-2.3232,-2.4533,0.0,0.0,0.0,0.0,0.0,-2.7479,-2.7334,0.0,0.0,-2.7262,-2.7262,0.0,0.0,-2.7262,0.0,0.0,0.0,0.0,-2.7167,-2.7081,-2.6794,-2.6794,0.0,0.0,0.0,0.0,0.0,0.0,-2.7332,-2.7371,0.0,0.0,-2.8604,-2.9034,-2.9477,-2.9994,-2.9994,-2.9994,-2.9994,-2.9994,-2.9994,-2.9994,-2.9994,-2.9994,0.0,-2.9994,0.0,0.0,0.0,0.0,0.0,-2.9994,0.0,0.0,0.0,0.0,0.0,0.0,0.0,0.0,0.0,0.0,0.0,0.0,0.0,0.0,0.0,0.0,0.0,0.0,0.0,0.0,0.0,0.0,0.0,0.0,0.0,0.0,-2.8291,-2.8291,-2.8291,-2.8291,-2.8291,-2.8291,-2.8291,-2.8291,-2.8611,-2.9132,-2.9132,-2.9942,-3.1575,-3.2689,-3.3796,-3.4872,-3.587,-3.6358,-3.6358,-3.6358,-3.6358,-3.6358,-3.6358,-3.6358,-3.6358,-3.6358,-3.6358,-3.6358,-3.6358,-3.6358,-3.6358,-2.0232,-2.0503,0.0,0.0,0.0,0.0,0.0,0.0,0.0,0.0,0.0,0.0,0.0,0.0,0.0,0.0,0.0,-2.7262,-2.7262,0.0,-2.7262,0.0,0.0,-2.7167,0.0,0.0,-2.6805,-2.6496,-2.6496,0.0,0.0,0.0,0.0,0.0,0.0,-2.6527,-2.7794,-2.7162,-2.7232,-2.7874,-2.8604,-2.9363,-2.9994,0.0,-2.9994,-2.9994,-2.9994,0.0,0.0,-2.9994,-2.9994,0.0,0.0,0.0,0.0,0.0,0.0,0.0,0.0,0.0,0.0,-2.9994,0.0,0.0,0.0,0.0,-2.9132,0.0,0.0,0.0,0.0,0.0,0.0,0.0,0.0,0.0,0.0,0.0,0.0,0.0,0.0,0.0,0.0,0.0,0.0,-2.8291,-2.8291,-2.8291,-2.8291,-2.8291,-2.8291,-2.8291,-2.8291,-2.8611,-2.9132,-2.9132,-2.9942,-3.1575,-3.2689,-3.3796,-3.4872,-3.587,-3.6358,-3.6358,-3.6358,-3.6358,-3.6358,-3.6358,-3.6358,-3.6358,-3.6358,-3.6358,-3.6358,-3.6358,-3.6358,-3.6358,0.0,0.0,0.0,0.0,0.0,0.0,0.0,-2.5898,0.0,0.0,0.0,0.0,0.0,-2.7345,-2.7262,0.0,0.0,-2.7262,-2.7262,-2.7262,0.0,0.0,0.0,-2.689,0.0,0.0,0.0,0.0,0.0,0.0,0.0,0.0,0.0,0.0,0.0,-2.6084,0.0,0.0,0.0,0.0,0.0,-2.9526,-2.9774,0.0,0.0,-2.9994,-2.9994,-2.9994,0.0,-2.9994,-2.9994,-2.9994,-2.9994,-2.9994,-2.9994,-2.9994,-2.9994,0.0,0.0,0.0,-2.9659,-2.9459,0.0,0.0,0.0,0.0,0.0,0.0,0.0,0.0,0.0,0.0,0.0,0.0,0.0,0.0,0.0,0.0,0.0,0.0,0.0,0.0,0.0,0.0,0.0,-2.8291,-2.8291,-2.8291,-2.8291,-2.8291,-2.8291,-2.8291,-2.8291,-2.8611,-2.9132,-2.9132,-2.9554,-3.0588,-3.1586,-3.2689,-3.3796,-3.4872,-3.5763,-3.6358,-3.6358,-3.6358,-3.6358,-3.6358,-3.6358,-3.6358,-3.6358,-3.6358,-3.6358,-3.6358,-3.6358,-3.6358,-1.9695,0.0,0.0,0.0,0.0,0.0,0.0,0.0,0.0,0.0,-2.6667,0.0,-2.7017,0.0,-2.6572,0.0,-2.7071,-2.7081,-2.7071,-2.7071,0.0,-2.6794,-2.6794,0.0,0.0,0.0,0.0,0.0,0.0,-2.5917,0.0,0.0,0.0,0.0,0.0,0.0,-2.6033,0.0,-2.6912,0.0,0.0,-2.9353,0.0,0.0,-2.9774,-2.9994,0.0,-2.9994,-2.9994,-2.9994,-2.9994,-2.9879,-2.9879,-2.9774,-2.9669,-2.9669,-2.9669,-2.9669,-2.9448,-2.9448,0.0,-2.9132,-2.9026,0.0,-2.893,0.0,0.0,0.0,0.0,0.0,0.0,0.0,0.0,0.0,0.0,0.0,0.0,-2.8291,0.0,0.0,0.0,0.0,0.0,0.0,-2.8291,-2.8291,-2.8291,-2.8291,0.0,0.0,-2.8291,-2.8291,-2.8291,-2.8504,-2.893,-2.9026,-2.9353,-2.9879,-3.1084,-3.1982,-3.27,-3.419,-3.5174,-3.5858,-3.625,-3.6358,-3.6358,-3.6358,-3.6358,-3.6358,-3.6358,-3.6358,-3.6358,-3.6358,-3.6358,-3.6358,0.0,0.0,0.0,0.0,-2.0916,0.0,0.0,0.0,-2.4785,0.0,-2.5324,-2.5637,-2.6277,-2.5528,-2.5333,-2.6354,-2.6769,0.0,-2.643,-2.6729,0.0,0.0,-2.6496,-2.639,-2.61,0.0,0.0,0.0,0.0,0.0,0.0,0.0,0.0,0.0,-2.5635,0.0,-2.5664,-2.623,-2.668,-2.7148,-2.8295,-2.8834,-2.9132,-2.9132,-2.9459,-2.9994,-2.9994,-2.9994,-2.9994,-2.9994,-2.9774,-2.9554,-2.9554,-2.9343,-2.9132,-2.9132,-2.9132,-2.9132,-2.9132,-2.9132,-2.9026,-2.9026,0.0,0.0,0.0,0.0,-2.8291,0.0,0.0,0.0,0.0,0.0,0.0,0.0,0.0,0.0,0.0,0.0,0.0,0.0,0.0,0.0,0.0,-2.8291,-2.8291,-2.8291,-2.8291,-2.8291,0.0,0.0,-2.8291,-2.8291,-2.8291,-2.8408,-2.8737,-2.893,-2.9237,-2.9659,-3.0877,-3.1586,-3.1677,-3.3773,-3.4775,-3.4884,-3.5966,-3.6358,-3.6358,-3.6358,-3.6358,-3.6358,-3.6358,-3.6358,-3.6263,-3.6358,-3.6358,-3.6358,-1.7878,-1.8334,-1.8783,0.0,-2.0104,-2.1564,0.0,0.0,0.0,0.0,-2.3872,-2.4008,-2.44,-2.493,-2.5572,-2.6088,-2.7052,0.0,0.0,0.0,0.0,-2.5099,-2.579,-2.61,-2.583,-2.583,0.0,-2.4501,0.0,0.0,-2.4501,0.0,0.0,0.0,0.0,0.0,-2.4646,-2.6212,-2.7285,-2.7988,-2.8532,-2.8727,0.0,0.0,-2.9237,-2.9343,-2.9343,-2.9343,-2.9343,-2.9343,-2.9237,-2.9237,-2.9237,-2.9132,-2.9132,-2.9132,-2.9132,-2.9026,-2.8834,-2.8834,-2.8727,-2.8611,-2.8398,-2.8408,0.0,0.0,0.0,0.0,0.0,0.0,0.0,0.0,0.0,0.0,0.0,0.0,0.0,0.0,0.0,0.0,0.0,0.0,0.0,-2.8291,-2.8291,-2.8291,-2.8291,-2.8291,0.0,0.0,0.0,-2.8291,-2.8291,-2.8408,-2.8737,-2.893,-2.9237,-2.9659,-3.0183,-3.0785,-3.1677,-3.2989,-3.4091,-3.4884,-3.5966,-3.6358,-3.6358,-3.6358,-3.6358,-3.6358,-3.6358,-3.5763,-3.5066,-3.6061,-3.6358,-3.6263,-1.7419,0.0,0.0,-1.8434,0.0,0.0,-2.0622,0.0,0.0,-2.2383,-2.2571,0.0,-2.3349,-2.3703,-2.4207,-2.4855,-2.56,0.0,-2.466,0.0,0.0,-2.3862,-2.4288,-2.4501,-2.4313,-2.4716,0.0,-2.3384,0.0,0.0,-2.3384,0.0,0.0,0.0,0.0,-2.389,0.0,-2.5498,-2.7083,-2.8291,-2.8514,0.0,0.0,-2.8717,-2.8708,-2.8708,-2.8708,-2.892,-2.9132,-2.9132,-2.9026,-2.893,-2.893,-2.8824,-2.8708,-2.8708,-2.8708,-2.8717,-2.8621,-2.8514,-2.8514,-2.8291,-2.8291,-2.8291,-2.8291,-2.8291,-2.8291,0.0,0.0,0.0,0.0,0.0,0.0,0.0,0.0,0.0,0.0,0.0,0.0,0.0,0.0,0.0,0.0,-2.8291,-2.8291,-2.8291,-2.8291,-2.8291,0.0,0.0,0.0,-2.8291,-2.8291,-2.8398,-2.8514,-2.8824,-2.9036,-2.9343,-2.9669,-3.0183,-3.0991,-3.1993,-3.2789,-3.3476,-3.4581,-3.4981,-3.4981,-3.4981,-3.4969,-3.486,-3.4642,-3.4154,-3.3552,-3.435,-3.4642,-3.4545,0.0,0.0,0.0,0.0,0.0,0.0,0.0,-2.0553,0.0,-2.1194,0.0,-2.1988,-2.2603,-2.2233,-2.2336,-2.3342,0.0,-2.3734,-2.3381,-2.3496,-2.3264,-2.2859,-2.2639,-2.2535,-2.2484,-2.3384,0.0,0.0,0.0,-2.3185,-2.2291,0.0,0.0,0.0,0.0,0.0,0.0,-2.4602,-2.6436,0.0,-2.8291,-2.8291,-2.8291,-2.8291,-2.8291,-2.8291,-2.8291,-2.8601,-2.9026,-2.9026,-2.8824,-2.8631,-2.8631,-2.8514,-2.8291,-2.8291,-2.8291,-2.8291,-2.8291,-2.8291,-2.8291,-2.8291,-2.8291,-2.8291,-2.8291,-2.8291,-2.8291,-2.8291,-2.8291,-2.8291,0.0,0.0,0.0,0.0,0.0,0.0,0.0,0.0,0.0,0.0,0.0,0.0,0.0,0.0,-2.8291,-2.8291,-2.8291,0.0,0.0,0.0,0.0,-2.8291,-2.8291,-2.8291,-2.8291,0.0,-2.8834,-2.9026,-2.9448,-2.9669,-2.9889,-3.1084,-3.1472,-3.1564,-3.2588,-3.3089,-3.3089,-3.3089,-3.2978,-3.2655,-3.2241,-3.2028,-3.2028,-3.1825,-3.1735,-3.1825,0.0,0.0,0.0,0.0,0.0,-1.9287,-1.9287,-1.9695,-2.0053,-2.0061,-2.0082,-2.0442,-2.1038,-2.1892,-2.2584,-2.3102,-2.3988,0.0,0.0,0.0,0.0,-2.1748,-2.2482,-2.2809,-2.2492,-2.2685,-2.2282,0.0,-2.1387,-2.1387,-2.1191,0.0,0.0,0.0,0.0,0.0,-2.3522,-2.4837,0.0,-2.6853,-2.7853,-2.8291,-2.8291,-2.8291,-2.8291,-2.8291,-2.8291,-2.8398,-2.8398,-2.8398,-2.8398,-2.8398,-2.8398,-2.8291,-2.8291,-2.8291,-2.8291,-2.8291,-2.8291,-2.8291,-2.8291,-2.8291,-2.8291,-2.8291,-2.8291,-2.8291,-2.8291,-2.8291,-2.8291,-2.8291,-2.8291,0.0,0.0,0.0,0.0,0.0,0.0,0.0,0.0,0.0,0.0,0.0,0.0,0.0,0.0,0.0,0.0,0.0,0.0,0.0,0.0,0.0,-2.8291,0.0,0.0,0.0,-2.8727,-2.8727,-2.9353,-2.9448,-2.9343,-3.0671,-3.1165,-3.0927,-3.2039,-3.2443,-3.2443,-3.2443,-3.2443,-3.2241,-3.1133,-3.0618,-3.0525,-2.9408,-2.9006,-2.9207,0.0,0.0,0.0,0.0,0.0,0.0,0.0,-1.9633,0.0,-1.9847,-2.0055,-2.0377,-2.0691,-2.1421,-2.1918,-2.2078,-2.2531,-2.2566,-2.1864,-2.2118,-2.19,-2.0864,-2.109,0.0,-2.0893,-2.1387,-2.1183,-2.0078,-2.0585,-2.0585,-2.0078,0.0,0.0,0.0,0.0,-2.1065,0.0,0.0,0.0,-2.6636,-2.7843,-2.8291,-2.8291,-2.8291,-2.8291,-2.8291,-2.8291,-2.8291,-2.8291,-2.8291,-2.8291,-2.8291,-2.8291,-2.8291,-2.8291,-2.8291,-2.8291,-2.8291,-2.8291,-2.8291,-2.8291,-2.8291,-2.8291,-2.8291,-2.8291,-2.8291,-2.8291,-2.8291,-2.8291,-2.8291,-2.8291,-2.8291,0.0,0.0,0.0,0.0,0.0,0.0,0.0,0.0,0.0,0.0,0.0,0.0,0.0,0.0,0.0,0.0,0.0,0.0,0.0,0.0,0.0,0.0,0.0,0.0,0.0,-2.8737,-2.9036,-2.9142,-2.9132,-2.9848,-3.0047,-2.9922,-3.0432,-3.0628,-3.0628,-3.0535,-3.0432,-3.0328,-2.9618,-2.9313,-2.9207,-2.8495,-2.8291,-2.8398,0.0,-1.8613,0.0,0.0,-1.9162,0.0,-1.9725,-1.9879,-1.9967,-1.9967,-2.0406,-2.075,-2.0823,-2.1057,-2.1211,-2.1211,-2.1211,-2.1211,-2.1211,-2.0969,-2.0647,-2.0252,-1.9996,-1.9681,-1.9286,-2.0078,-2.0181,0.0,-2.0181,-2.0078,0.0,0.0,0.0,0.0,0.0,0.0,0.0,0.0,-2.4454,-2.5737,-2.7032,-2.7511,-2.7511,-2.7843,-2.796,-2.796,-2.8184,-2.8291,-2.8291,-2.8291,-2.8291,-2.8291,-2.8291,-2.8291,-2.8291,-2.8291,-2.8291,-2.8291,-2.8291,-2.8291,-2.8291,-2.8291,-2.8291,-2.8291,-2.8291,-2.8291,-2.8291,-2.8291,-2.8291,-2.8291,-2.8291,-2.8291,0.0,0.0,0.0,0.0,0.0,0.0,0.0,0.0,0.0,0.0,0.0,0.0,0.0,0.0,0.0,-2.8291,-2.8291,-2.8291,-2.8291,0.0,0.0,-2.8291,-2.8291,0.0,-2.8408,-2.8621,-2.8621,-2.8834,-2.892,-2.9036,-2.9026,-2.892,-2.892,-2.892,-2.892,-2.8727,-2.8621,-2.8621,-2.8398,-2.8291,-2.8291,-2.8291,-2.8291,-2.8291,0.0,0.0,0.0,0.0,0.0,0.0,0.0,-2.0259,-2.0633,-2.0633,-2.0684,-2.0837,-2.113,-2.1189,-2.1211,-2.1211,-2.1211,-2.1211,-2.1211,-2.1181,-2.0889,-2.0267,-2.0208,-1.9901,-1.9286,-1.9376,-1.9376,0.0,0.0,-1.9376,0.0,0.0,0.0,0.0,0.0,0.0,0.0,-2.2633,-2.3319,-2.2962,-2.448,-2.5058,-2.5168,-2.6291,-2.6636,-2.6853,-2.796,-2.8291,-2.8291,-2.8291,-2.8291,-2.8291,-2.8291,-2.8291,-2.8291,-2.8291,-2.8291,-2.8291,-2.8291,-2.8291,-2.8291,-2.8291,-2.8291,-2.8291,-2.8291,-2.8291,-2.8291,-2.8291,-2.8291,-2.8291,-2.8291,-2.8291,-2.8291,0.0,0.0,0.0,0.0,0.0,0.0,0.0,0.0,0.0,0.0,-2.8291,0.0,0.0,-2.8291,-2.8291,-2.8291,-2.8291,-2.8291,-2.8291,0.0,-2.8291,-2.8291,-2.8291,-2.8291,-2.8291,-2.8621,-2.8621,-2.8398,-2.8621,-2.8621,-2.8398,-2.8398,-2.8398,-2.8398,-2.8398,-2.8291,-2.8291,-2.8291,-2.8291,-2.8291,-2.8291,-2.8291,-2.8291,0.0,0.0,0.0,0.0,0.0,0.0,0.0,-2.0435,-2.0794,-2.0991,-2.1013,-2.1064,-2.1196,-2.1211,-2.1211,-2.1211,-2.1211,-2.1211,-2.1211,-2.1211,-2.0918,-2.0267,-2.0237,-1.9938,-1.9294,-1.9279,-1.9279,0.0,0.0,0.0,0.0,0.0,0.0,0.0,0.0,-1.9867,-1.9876,-2.1658,-2.2773,-2.3645,-2.4993,-2.6073,-2.6844,-2.6626,-2.6527,-2.6527,-2.6173,-2.6173,-2.6173,-2.6173,-2.707,-2.8291,-2.8291,-2.8291,-2.8291,-2.8291,-2.8291,-2.8291,-2.8291,-2.8291,-2.8291,-2.8291,-2.8291,-2.8291,-2.8291,-2.8291,-2.8291,-2.8291,-2.8291,-2.8291,-2.8291,-2.8291,-2.8291,0.0,0.0,0.0,0.0,0.0,0.0,0.0,0.0,0.0,0.0,0.0,0.0,0.0,0.0,-2.8291,-2.8291,-2.8291,-2.8291,-2.8291,0.0,-2.8291,-2.8291,-2.8291,-2.8291,-2.8291,-2.8408,-2.8408,-2.8291,-2.8398,-2.8408,-2.8291,-2.8291,-2.8291,-2.8291,-2.8291,-2.8291,-2.8291,-2.8291,-2.8291,-2.8291,-2.8291,-2.8291,-2.8291,-1.9279,0.0,-1.9301,0.0,-1.9689,-2.0011,-2.0333,-2.0655,-2.0947,-2.1181,-2.1211,-2.1211,-2.1211,-2.1211,-2.1211,-2.1211,-2.1211,-2.1211,-2.1211,-2.1123,-2.0815,-2.0259,-2.0142,0.0,-1.9286,-1.9279,-1.9279,-1.9279,-1.9279,0.0,0.0,0.0,0.0,0.0,-1.9576,-1.971,-1.9729,-2.095,-2.1998,-2.3005,-2.3973,-2.4933,-2.5847,-2.553,-2.5575,-2.5802,-2.5362,-2.5278,-2.5278,-2.5278,-2.6173,-2.7286,-2.7628,-2.796,-2.8291,-2.8291,-2.8291,-2.8291,-2.8291,-2.8291,-2.8291,-2.8291,-2.8291,-2.8291,-2.8291,-2.8291,-2.8291,-2.8291,-2.8291,-2.8291,-2.8291,-2.8291,-2.8291,-2.8291,0.0,0.0,0.0,0.0,0.0,0.0,-2.8291,-2.8291,-2.8291,0.0,0.0,0.0,0.0,0.0,-2.8291,-2.8291,0.0,0.0,0.0,0.0,0.0,-2.8291,-2.8291,-2.8291,-2.8291,-2.8291,-2.8291,-2.8291,-2.8291,-2.8291,-2.8291,-2.8291,-2.8291,-2.8291,-2.8291,-2.8291,-2.8291,-2.8291,-2.8291,-2.8291,-2.8291,-2.8291,-1.9279,-1.9279,-1.9374,-1.9703,-2.0018,-2.034,-2.0669,-2.0998,-2.1203,-2.1211,-2.1211,-2.1211,-2.1211,-2.1211,-2.1211,-2.1211,-2.1211,-2.1211,-2.1211,-2.0911,-2.0581,0.0,0.0,-1.9616,-1.9286,-1.9279,-1.9279,-1.9279,0.0,0.0,-1.9279,0.0,-1.9279,-1.9383,-2.0388,-2.0285,-1.9405,-2.0856,-2.0801,-1.9905,-2.0113,-2.0237,-2.0493,-2.2002,-2.3318,-2.4555,-2.5937,-2.6527,-2.6527,-2.6527,-2.5735,-2.4948,-2.6191,-2.7295,-2.8291,-2.8291,-2.8291,-2.8291,-2.8291,-2.8291,-2.8291,-2.8291,-2.8291,-2.8291,-2.8291,-2.8291,-2.8291,-2.8291,-2.8291,-2.8291,-2.8291,-2.8291,-2.8291,-2.8291,0.0,0.0,0.0,0.0,0.0,0.0,-2.8291,-2.8291,-2.8291,0.0,0.0,0.0,0.0,0.0,0.0,0.0,0.0,-2.8291,-2.8291,0.0,-2.8291,-2.8291,-2.8291,-2.8291,-2.8291,-2.8291,-2.8291,-2.8291,-2.8291,-2.8291,-2.8291,-2.8291,-2.8291,-2.8291,-2.8291,-2.8291,-2.8291,-2.8291,-2.8291,-2.8291,-2.8291,-2.8291,-1.9279,-1.9279,-1.9381,-1.9703,-2.0025,-2.0347,-2.0676,-2.0998,-2.1211,-2.1211,-2.1211,-2.1211,-2.1211,-2.1211,-2.1211,0.0,-2.1211,-2.1115,0.0,-2.0779,-2.0479,-1.9938,-1.982,-1.9608,-1.9286,-1.9279,-1.9279,-1.9279,0.0,0.0,0.0,-1.9279,-1.9279,-1.9272,-1.968,-1.9576,-1.9286,-1.9792,-2.0368,-2.0997,-2.1,-2.1719,-2.2593,-2.2269,-2.2409,-2.2665,-2.2608,-2.2514,-2.2553,-2.279,-2.3199,-2.3631,-2.3975,-2.4956,-2.5836,-2.5836,-2.5836,-2.6063,-2.6853,-2.7079,-2.7295,-2.8067,-2.7628,-2.7295,-2.8067,-2.7628,-2.7305,-2.8174,-2.7628,-2.7295,-2.8184,-2.8291,-2.8291,-2.8291,-2.8291,0.0,0.0,0.0,0.0,0.0,-2.7861,-2.7744,0.0,-2.7422,0.0,0.0,0.0,0.0,0.0,0.0,0.0,0.0,-2.8291,0.0,-2.8291,-2.8291,-2.8291,-2.8291,-2.8291,-2.8291,-2.8291,-2.8291,-2.8291,-2.8291,-2.8291,-2.8291,-2.8291,-2.8291,-2.8291,-2.8291,-2.8291,-2.8291,-2.8291,-2.8291,-2.8291,-2.8291,-1.9279,-1.9279,-1.9381,-1.9703,-1.993,-2.0164,-2.0494,-2.0713,-2.0845,-2.0845,-2.0845,-2.0845,-2.0845,-2.0845,0.0,-2.1013,-2.1028,-2.0889,-2.0559,-2.0428,-2.0179,-1.9777,-1.9645,-1.9484,-1.9279,0.0,0.0,-1.9279,-1.9279,-1.9279,-1.9279,-1.9279,-1.9279,-1.9279,-1.9279,-1.9279,-1.9279,-1.9279,-1.9792,-2.0697,-2.0697,-2.1241,-2.2087,-2.1368,-2.1415,-2.1767,-2.1386,-2.1178,-2.1216,-2.1428,-2.1711,-2.195,-2.2081,-2.2664,-2.3451,-2.4913,-2.5726,-2.6173,-2.6961,-2.7187,-2.7403,-2.8067,-2.7736,-2.7403,-2.8184,-2.7736,-2.7413,-2.8184,-2.7736,-2.7413,-2.8184,-2.8291,-2.8291,-2.8291,-2.8291,-2.8232,-2.8086,0.0,0.0,0.0,0.0,0.0,0.0,-2.7012,-2.7012,0.0,0.0,0.0,0.0,0.0,0.0,-2.8057,-2.8057,0.0,-2.8291,-2.8291,-2.8291,-2.8291,-2.8291,-2.8291,-2.8291,-2.8291,-2.8291,-2.8291,-2.8291,-2.8291,-2.8291,-2.8291,-2.8291,-2.8291,-2.8291,-2.8291,-2.8291,-2.8291,-2.8291,-2.8291,-1.9279,-1.9279,0.0,0.0,-1.9762,0.0,-2.0186,-2.0237,-2.0237,-2.0237,-2.0237,-2.0237,-2.0237,-2.0237,-2.0347,-2.0633,0.0,0.0,0.0,-1.993,-1.9755,-1.9733,-1.944,-1.9279,-1.9279,-1.9279,-1.9279,-1.9279,-1.9279,-1.9279,-1.9279,-1.9279,-1.9279,-1.9279,-1.9279,-1.9279,-1.9279,-1.9279,-1.9279,-1.9279,-1.9279,-1.9279,-1.9308,-1.9616,-2.0446,-2.1401,-2.1759,-2.1886,-2.1894,-2.1918,-2.1078,-2.0289,-2.0596,-2.0684,-2.1516,-2.5072,-2.6961,-2.7843,-2.796,-2.796,-2.796,-2.8067,-2.8067,-2.8184,-2.8184,-2.8184,-2.8184,-2.8291,-2.8184,-2.8174,-2.8252,-2.8135,-2.8126,-2.8096,-2.8087,-2.7854,-2.7457,0.0,0.0,0.0,0.0,0.0,0.0,-2.6822,-2.6924,0.0,0.0,0.0,0.0,0.0,-2.7139,-2.7607,-2.7617,-2.7803,-2.8203,-2.8203,-2.8223,-2.8252,-2.8252,-2.8262,-2.8291,-2.8291,-2.8291,-2.8291,-2.8291,-2.8291,-2.8291,-2.8291,-2.8291,-2.8291,-2.8291,-2.8291,-2.8291,-2.8291,-2.8291,-2.8291,0.0,0.0,-1.9381,-1.9703,-1.9762,-1.9872,-2.0186,-2.0237,-2.0237,-2.0237,-2.0237,-2.0237,-2.0237,-2.0237,-2.0172,-2.0003,-2.0208,-2.0216,-1.9894,-1.9806,-1.9652,-1.9403,-1.9316,-1.9279,-1.9279,-1.9279,-1.9279,-1.9279,-1.9279,-1.9279,-1.9279,-1.9279,-1.9279,-1.9279,-1.9279,-1.9279,-1.9279,-1.9279,-1.9279,-1.9279,-1.9279,-1.9279,-1.9286,-1.936,-1.9598,-1.9837,-2.0166,-2.0293,-2.0323,-2.0577,-2.0448,-2.0245,-2.0325,-2.099,-2.1744,-2.2247,-2.2652,-2.3095,-2.3975,-2.43,-2.4411,-2.5287,-2.6291,-2.6971,-2.6971,-2.6971,-2.7187,-2.8067,-2.752,-2.7093,-2.7766,-2.7151,-2.6393,-2.6085,-2.54,-2.4836,-2.4747,-2.4729,-2.4578,0.0,-2.4756,-2.5163,-2.4818,-2.5522,-2.6045,0.0,0.0,0.0,0.0,-2.6045,-2.6387,-2.7148,-2.7168,-2.7217,-2.7314,-2.7314,-2.748,-2.7812,-2.7812,-2.7988,-2.8291,-2.8291,-2.8291,-2.8291,-2.8291,-2.8291,-2.8291,-2.8291,-2.8291,-2.8291,-2.8291,-2.8291,-2.8291,-2.8291,-2.8291,-2.8291,-1.9279,-1.9279,-1.933,-1.9513,-1.9542,-1.9601,-1.9769,-1.9798,-1.9798,-1.9798,-1.9798,-1.9798,-1.9798,-1.9798,-1.9725,-1.9557,-1.9835,-1.9886,-1.9557,-1.9542,-1.9462,-1.9286,-1.9279,-1.9279,-1.9279,-1.9279,-1.9279,-1.9279,-1.9279,-1.9279,-1.9279,-1.9279,-1.9279,-1.9279,-1.9279,-1.9279,-1.9279,-1.9279,-1.9279,-1.9279,-1.9279,-1.9279,-1.9279,-1.9279,-1.9279,-1.9301,-1.9477,-1.9542,-1.9564,-1.974,-1.9798,-1.9828,-1.9974,-2.0442,-2.0956,-2.0833,-2.1532,-2.2513,-2.3165,-2.3376,-2.3485,-2.4122,-2.4779,-2.5219,-2.5219,-2.5219,-2.5433,-2.6083,-2.5763,-2.537,-2.5807,-2.5436,-2.4942,-2.4727,-2.4167,-2.3685,-2.3496,-2.347,-2.3324,-2.2835,-2.341,-2.3643,-2.3411,-2.4304,-2.5011,-2.5011,-2.543,0.0,-2.5742,-2.5742,-2.6045,-2.6709,-2.6728,-2.6816,-2.7012,-2.7012,-2.7139,-2.7373,-2.7373,-2.749,-2.7715,-2.791,-2.8008,-2.8018,-2.8203,-2.8291,-2.8291,-2.8291,-2.8291,-2.8291,-2.8291,-2.8291,-2.8291,-2.8291,-2.8291,-2.8291,-1.9279,-1.9279,-1.9279,-1.9279,-1.9279,-1.9279,-1.9279,-1.9279,-1.9279,-1.9279,-1.9279,-1.9279,-1.9279,-1.9279,-1.9279,-1.9279,-1.9528,-1.9572,-1.9294,-1.9279,-1.9279,-1.9279,-1.9279,-1.9279,-1.9279,-1.9279,-1.9279,-1.9279,-1.9279,-1.9279,-1.9279,-1.9279,-1.9279,-1.9279,-1.9279,-1.9279,-1.9279,-1.9279,-1.9279,-1.9279,-1.9279,-1.9279,-1.9279,-1.9279,-1.9279,-1.9279,-1.9279,-1.9279,-1.9279,-1.9279,-1.9279,-1.9323,-1.9601,-1.9689,-1.974,-2.0011,-2.1569,-2.3178,-2.3182,-2.3216,-2.3322,-2.3534,-2.3534,-2.3534,-2.3745,-2.3745,-2.3745,-2.3745,-2.3745,-2.3728,-2.3668,-2.3554,-2.3431,-2.3372,-2.3258,-2.293,-2.2593,0.0,-2.2434,-2.2021,-2.219,-2.2291,-2.2484,-2.3484,-2.4187,-2.4295,-2.5226,-2.5742,-2.5742,-2.5742,-2.5908,-2.6279,-2.6289,-2.6465,-2.6816,-2.6826,-2.6855,-2.6914,-2.6914,-2.6953,-2.7021,-2.7402,-2.7568,-2.7588,-2.7949,-2.8135,-2.8193,-2.8193,-2.8232,-2.8291,-2.8291,-2.8291,-2.8291,-2.8291,-2.8291,-2.8291,-1.9279,-1.9279,-1.9279,-1.9279,-1.9279,-1.9279,-1.9279,-1.9279,-1.9279,-1.9279,-1.9279,-1.9279,-1.9279,-1.9279,-1.9279,-1.9279,-1.9323,-1.933,-1.9279,-1.9279,-1.9279,-1.9279,-1.9279,-1.9279,-1.9279,-1.9279,-1.9279,-1.9279,-1.9279,-1.9279,-1.9279,-1.9279,-1.9279,-1.9279,-1.9279,-1.9279,-1.9279,-1.9279,-1.9279,-1.9279,-1.9279,-1.9279,-1.9279,-1.9279,-1.9279,-1.9279,-1.9279,-1.9279,-1.9279,-1.9279,-1.9279,-1.9286,-1.9338,-1.9352,-1.936,-1.9411,-1.9732,-2.0061,-2.0617,-2.0768,-2.0977,-2.2033,-2.2247,-2.2568,-2.3534,-2.3745,-2.3745,-2.3745,-2.3745,-2.3642,-2.3298,-2.2511,-2.1804,-2.1401,-2.0542,-1.9919,-1.9858,0.0,-1.9836,-1.9783,-2.0585,-2.1489,-2.2383,-2.3484,-2.4501,-2.543,-2.5635,-2.5742,-2.5742,-2.5742,-2.5762,-2.584,-2.584,-2.5869,-2.5937,-2.5937,-2.6123,-2.6484,-2.6484,-2.667,-2.7012,-2.709,-2.7119,-2.7119,-2.7187,-2.7422,-2.7764,-2.7764,-2.7969,-2.8291,-2.8291,-2.8291,-2.8291,-2.8291,-2.8291,-2.8291,-1.9279,-1.9279,-1.9279,-1.9279,-1.9279,-1.9279,-1.9279,-1.9279,-1.9279,-1.9279,-1.9279,-1.9279,-1.9279,-1.9279,-1.9279,-1.9279,-1.9279,-1.9279,-1.9279,-1.9279,-1.9279,-1.9279,-1.9279,-1.9279,-1.9279,-1.9279,-1.9279,-1.9279,-1.9279,-1.9279,-1.9279,-1.9279,-1.9279,-1.9279,-1.9279,-1.9279,-1.9279,-1.9279,-1.9279,-1.9279,-1.9279,-1.9279,-1.9279,-1.9279,-1.9279,-1.9279,-1.9279,-1.9279,-1.9279,-1.9279,-1.9279,-1.9279,-1.9279,-1.9279,-1.9279,-1.9279,-1.9279,-1.9338,-1.9638,-1.9619,-1.9619,-2.0234,-2.0219,-2.0212,-2.0732,-2.0942,-2.0942,-2.0942,-2.0942,-2.0783,-2.0612,-2.018,-1.9725,-1.9576,-1.9153,0.0,0.0,-1.8848,-1.8848,-1.8848,-1.925,-1.996,-2.1081,-2.1667,-2.2576,-2.4332,-2.4421,-2.4716,-2.544,-2.544,-2.5538,-2.5742,-2.5742,-2.5742,-2.5742,-2.5742,-2.584,-2.6035,-2.6035,-2.6143,-2.6338,-2.6572,-2.668,-2.6689,-2.6914,-2.7129,-2.7314,-2.7314,-2.7432,-2.7627,-2.7861,-2.7959,-2.7988,-2.8203,-2.8291,-2.8291,-1.9279,-1.9279,-1.9279,-1.9279,-1.9279,-1.9279,-1.9279,-1.9279,-1.9279,-1.9279,-1.9279,-1.9279,-1.9279,-1.9279,-1.9279,-1.9279,-1.9279,-1.9279,-1.9279,-1.9279,-1.9279,-1.9279,-1.9279,-1.9279,-1.9279,-1.9279,-1.9279,-1.9279,-1.9279,-1.9279,-1.9279,-1.9279,-1.9279,-1.9279,-1.9279,-1.9279,-1.9279,-1.9279,-1.9279,-1.9279,-1.9279,-1.9279,-1.9279,-1.9279,-1.9279,-1.9279,-1.9279,-1.9279,-1.9279,-1.9279,-1.9279,-1.9279,-1.9279,-1.9175,-1.9175,-1.9063,-1.9063,-1.9063,-1.9175,-1.8966,-1.8757,-1.8757,-1.8541,-1.8422,-1.8422,-1.8422,-1.8422,-1.8422,-1.8422,-1.8422,-1.8422,-1.8422,-1.8422,-1.8422,0.0,0.0,0.0,-1.8422,-1.8422,-1.8422,-1.8422,-1.8833,-1.9968,-2.0048,-2.0853,-2.2802,-2.2894,-2.3493,-2.4726,-2.4627,-2.4726,-2.4922,-2.543,-2.5742,-2.5742,-2.5742,-2.5742,-2.5742,-2.5742,-2.5742,-2.5752,-2.6084,-2.624,-2.626,-2.6572,-2.6777,-2.6865,-2.6865,-2.6934,-2.7051,-2.7383,-2.751,-2.7559,-2.7766,-2.7892,-2.7902,-1.9279,-1.9279,-1.9279,-1.9279,-1.9279,-1.9279,-1.9279,-1.9279,-1.9279,-1.9279,-1.9279,-1.9279,-1.9279,-1.9279,-1.9279,-1.9279,-1.9279,-1.9279,-1.9279,-1.9279,-1.9279,-1.9279,-1.9279,-1.9279,-1.9279,-1.9279,-1.9279,-1.9279,-1.9279,-1.9279,-1.9279,-1.9279,-1.9279,-1.9279,-1.9279,-1.9279,-1.9279,-1.9279,-1.9279,-1.9279,-1.9279,-1.9279,-1.9279,-1.9279,-1.9279,-1.9279,-1.9279,-1.9279,-1.9279,-1.9279,-1.9279,-1.9279,-1.8974,-1.8981,-1.8869,-1.8534,-1.8422,-1.8527,-1.8869,-1.8646,-1.8422,-1.8422,-1.8422,-1.8422,-1.8422,-1.8422,-1.8422,-1.8422,-1.8422,-1.8422,-1.8422,-1.8422,-1.8422,-1.8422,0.0,0.0,-1.8422,-1.8422,-1.8422,-1.8422,-1.8422,-1.8826,-1.993,-2.0033,-2.0538,-2.1752,-2.1853,-2.2265,-2.3393,-2.2693,-2.2492,-2.2693,-2.4618,-2.5742,-2.5742,-2.5742,-2.5742,-2.5742,-2.5742,-2.5742,-2.5742,-2.5771,-2.5781,-2.5781,-2.582,-2.6064,-2.6435,-2.6435,-2.666,-2.7021,-2.7051,-2.706,-2.707,-2.6782,-2.6689,-2.6747,-1.9279,-1.9279,-1.9279,-1.9279,-1.9279,-1.9279,-1.9279,-1.9279,-1.9279,-1.9279,-1.9279,-1.9279,-1.9279,-1.9279,-1.9279,-1.9279,-1.9279,-1.9279,-1.9279,-1.9279,-1.9279,-1.9279,-1.9279,-1.9279,-1.9279,-1.9279,-1.9279,-1.9279,-1.9279,-1.9279,-1.9279,-1.9279,-1.9279,-1.9279,-1.9279,-1.9279,-1.9279,-1.9279,-1.9279,-1.9279,-1.9279,-1.9279,-1.9279,-1.9279,-1.9279,-1.9279,-1.9279,-1.9279,-1.9279,-1.9279,-1.9279,-1.9279,-1.9175,-1.9182,-1.9071,-1.8959,-1.8855,-1.8757,-1.8869,-1.8548,-1.8115,-1.8115,-1.801,-1.7898,-1.7898,-1.7898,-1.7898,-1.7898,-1.7898,-1.7898,-1.7898,-1.7898,-1.7898,-1.7898,0.0,-1.7898,-1.7898,-1.7898,-1.7898,-1.7898,-1.7898,-1.8304,-1.9428,-1.8909,-1.922,-2.1065,-2.0546,-2.0751,-2.1988,-2.2584,-2.3194,-2.3917,-2.4824,-2.503,-2.4707,-2.4707,-2.502,-2.5742,-2.5742,-2.5742,-2.5742,-2.5742,-2.5635,-2.543,-2.543,-2.5429,-2.5475,-2.5475,-2.557,-2.5743,-2.6002,-2.6107,-2.6136,-2.6292,-2.6378,-2.6406,-1.9279,-1.9279,-1.9279,-1.9279,-1.9279,-1.9279,-1.9279,-1.9279,-1.9279,-1.9279,-1.9279,-1.9279,-1.9279,-1.9279,-1.9279,-1.9279,-1.9279,-1.9235,-1.9133,-1.903,-1.9016,-1.9118,-1.9023,-1.8972,-1.8972,-1.8972,-1.8972,-1.8972,-1.9074,-1.9118,-1.9125,-1.9228,-1.9279,-1.9279,-1.9279,-1.9279,-1.9279,-1.9279,-1.9279,-1.9279,-1.9279,-1.9279,-1.9279,-1.9279,-1.9279,-1.9279,-1.9279,-1.9279,-1.9279,-1.9279,-1.9279,-1.9279,-1.9175,-1.9071,-1.8959,-1.8959,-1.8757,-1.8555,-1.8548,-1.8227,-1.7911,-1.8016,-1.7799,-1.7582,-1.7582,-1.7582,-1.7582,-1.7582,-1.7582,-1.7582,-1.7582,-1.7582,-1.7582,-1.7582,-1.7582,-1.7582,-1.7582,-1.7582,-1.7582,-1.7582,-1.7582,-1.7891,-1.861,-1.7996,-1.8199,-1.9753,-1.9131,-1.9131,-2.0158,-2.1481,-2.2391,-2.2793,-2.2894,-2.2885,-2.2767,-2.3791,-2.4716,-2.544,-2.544,-2.544,-2.544,-2.544,-2.5342,-2.5137,-2.5137,-2.503,-2.4932,-2.4932,-2.4932,-2.496,-2.5254,-2.5367,-2.5396,-2.5579,-2.5682,-2.5701,-1.9279,-1.9279,-1.9279,-1.9279,-1.9279,-1.9279,-1.9279,-1.9279,-1.9279,-1.9279,-1.9279,-1.9279,-1.9279,-1.9279,-1.9279,-1.9279,-1.9272,-1.9133,-1.8803,-1.8482,-1.8445,-1.8767,-1.8474,-1.8299,-1.8299,-1.8299,-1.8299,-1.8299,-1.8628,-1.8789,-1.8789,-1.9118,-1.9264,-1.9264,-1.9264,-1.9264,-1.9272,-1.9272,-1.9272,-1.9279,-1.9279,-1.9279,-1.9279,-1.9279,-1.9279,-1.9279,-1.9279,-1.9279,-1.9279,-1.9279,-1.9279,-1.9279,-1.8974,-1.8653,-1.8318,-1.8122,-1.8016,-1.7911,-1.7687,-1.7582,-1.7687,-1.7911,-1.7799,-1.7582,-1.7582,-1.7582,-1.7582,-1.7582,-1.7582,-1.7582,-1.7582,-1.7582,-1.7582,-1.7582,-1.7582,-1.7582,-1.7582,-1.7582,-1.7582,-1.7582,-1.7582,-1.7582,-1.7582,-1.7582,-1.7582,-1.7582,-1.7582,-1.7694,-1.8016,-1.9056,-1.9257,-1.8422,-1.8422,-1.8923,-2.0033,-2.3194,-2.4833,-2.4932,-2.4932,-2.4932,-2.4932,-2.4932,-2.4932,-2.4833,-2.4833,-2.4833,-2.4833,-2.4833,-2.4833,-2.4833,-2.4833,-2.4833,-2.4833,-2.4529,-2.443,-2.4495,-1.9279,-1.9279,-1.9279,-1.9279,-1.9279,-1.9279,-1.9279,-1.9279,-1.9279,-1.9279,-1.9279,-1.9279,-1.9279,-1.9279,-1.9279,-1.9279,-1.9067,-1.8796,-1.8467,-1.8138,-1.8006,-1.8101,-1.8233,-1.8299,-1.8299,-1.8299,-1.8299,-1.8299,-1.8401,-1.8445,-1.8445,-1.8547,-1.8591,-1.8591,-1.8591,-1.8723,-1.8935,-1.8935,-1.9067,-1.9279,-1.9279,-1.9279,-1.9279,-1.9279,-1.9279,-1.9279,-1.9279,-1.9279,-1.9272,-1.9078,-1.8974,-1.8974,-1.8646,-1.8527,-1.8422,-1.8325,-1.8325,-1.8213,-1.8213,-1.801,-1.7806,-1.7799,-1.7694,-1.7582,-1.7582,-1.7582,-1.7582,-1.7582,-1.7582,-1.7582,-1.7582,-1.7582,-1.7582,-1.7582,-1.7582,-1.7582,-1.7582,-1.7582,-1.7582,-1.7582,-1.7582,-1.7582,-1.7582,-1.7582,-1.7582,-1.7582,-1.7582,-1.7996,-1.8826,-1.9138,-1.9546,-2.0166,-2.0166,-2.0269,-2.0672,-2.1988,-2.2994,-2.38,-2.4529,-2.4932,-2.4932,-2.4932,-2.4421,-2.3502,-2.3502,-2.3003,-2.2097,-2.2097,-2.2097,-2.2097,-2.2097,-2.2097,-2.2198,-2.282,-2.3129,-2.3247,-1.9279,-1.9279,-1.9279,-1.9279,-1.9279,-1.9279,-1.9279,-1.9279,-1.9279,-1.9279,-1.9279,-1.9279,-1.9279,-1.9162,-1.9081,-1.9081,-1.8664,-1.8321,-1.8123,-1.7801,-1.7625,-1.7625,-1.7808,-1.7918,-1.7918,-1.7918,-1.7918,-1.7918,-1.805,-1.8108,-1.8116,-1.824,-1.8299,-1.8299,-1.8299,-1.8408,-1.8599,-1.8599,-1.8708,-1.8891,-1.8891,-1.8891,-1.8891,-1.8891,-1.8891,-1.8891,-1.8789,-1.8796,-1.8694,-1.849,-1.8394,-1.8387,-1.8175,-1.8149,-1.8247,-1.8144,-1.8123,-1.822,-1.8108,-1.801,-1.7799,-1.7687,-1.7582,-1.7582,-1.7582,-1.7582,-1.7582,-1.7582,-1.7582,-1.7582,-1.7582,-1.7582,-1.7582,-1.7582,-1.7582,-1.7582,-1.7582,-1.7582,-1.7582,-1.7582,-1.7582,-1.7582,-1.7582,-1.7582,-1.7582,-1.7582,-1.7582,-1.7891,-1.8506,-1.861,-1.8923,-1.9539,-1.9539,-1.9539,-1.9539,-2.0357,-2.1269,-2.2391,-2.3003,-2.3311,-2.3311,-2.3311,-2.2902,-2.2089,-2.2089,-2.1692,-2.0885,-2.0885,-2.0885,-2.0885,-2.0885,-2.0885,-2.0987,-2.1599,-2.1912,-2.2013,-1.9279,-1.9279,-1.9279,-1.9279,-1.9279,-1.9279,-1.9279,-1.9279,-1.9279,-1.9279,-1.9279,-1.9264,-1.9235,-1.8964,-1.8774,-1.8752,-1.8174,-1.7801,-1.7772,-1.7494,-1.7326,-1.7326,-1.7326,-1.7326,-1.7326,-1.7326,-1.7326,-1.7326,-1.7625,-1.7772,-1.7779,-1.8072,-1.8218,-1.8218,-1.8218,-1.8233,-1.8255,-1.8255,-1.8277,-1.8299,-1.8299,-1.8299,-1.8299,-1.8299,-1.8306,-1.8207,-1.8016,-1.7917,-1.7818,-1.7619,-1.7512,-1.7519,-1.7519,-1.7708,-1.7823,-1.7633,-1.7722,-1.783,-1.7613,-1.7522,-1.7542,-1.7542,-1.7562,-1.7582,-1.7582,-1.7582,-1.7582,-1.7582,-1.7582,-1.7582,-1.7582,-1.7582,-1.7582,-1.7582,-1.7582,-1.7582,-1.7582,-1.7582,-1.7582,-1.7582,-1.7582,-1.7582,-1.7582,-1.7582,-1.7582,-1.7582,-1.7582,-1.7582,-1.7582,-1.7582,-1.7582,-1.7582,-1.7582,-1.7582,-1.7582,-1.861,-1.9642,-2.0783,-2.0885,-2.0885,-2.0885,-2.0885,-2.0885,-2.0783,-2.0783,-2.068,-2.0577,-2.0577,-2.0577,-2.0577,-2.0577,-2.0577,-2.0577,-2.079,-2.079,-2.079,-1.9279,-1.9279,-1.9279,-1.9279,-1.9279,-1.9279,-1.9279,-1.9279,-1.9279,-1.9279,-1.9279,-1.9177,-1.8921,-1.8833,-1.8686,-1.843,-1.805,-1.7706,-1.745,-1.7369,-1.7326,-1.7326,-1.7326,-1.7326,-1.7326,-1.7326,-1.7326,-1.7326,-1.7399,-1.7435,-1.7435,-1.7508,-1.7538,-1.7538,-1.7538,-1.7684,-1.7918,-1.7918,-1.8064,-1.8299,-1.8299,-1.8299,-1.8306,-1.8115,-1.8016,-1.7917,-1.7718,-1.7718,-1.7619,-1.732,-1.7114,-1.6907,-1.6907,-1.6948,-1.7002,-1.6908,-1.6948,-1.7002,-1.6894,-1.7068,-1.7241,-1.7241,-1.7415,-1.7582,-1.7582,-1.7582,-1.7582,-1.7582,-1.7582,-1.7582,-1.7582,-1.7582,-1.7582,-1.7582,-1.7582,-1.7582,-1.7582,-1.7582,-1.7582,-1.7582,-1.7582,-1.7582,-1.7582,-1.7582,-1.7582,-1.7582,-1.7582,-1.7582,-1.7582,-1.7582,-1.7582,-1.7582,-1.7582,-1.7582,-1.7582,-1.7786,-1.8506,-1.9539,-2.0467,-2.0885,-2.0885,-2.0885,-2.0364,-1.9539,-1.9539,-1.9131,-1.8311,-1.8311,-1.8311,-1.8311,-1.8311,-1.8311,-1.8415,-1.9591,-2.0021,-2.0005,-1.9279,-1.9279,-1.9279,-1.9279,-1.9279,-1.9279,-1.9279,-1.9279,-1.9279,-1.9279,-1.9279,-1.9147,-1.8825,-1.865,-1.8364,-1.7882,-1.7684,-1.7508,-1.734,-1.7326,-1.7326,-1.7326,-1.7326,-1.7326,-1.7326,-1.7326,-1.7326,-1.7326,-1.7326,-1.7326,-1.7326,-1.7326,-1.7326,-1.7326,-1.7326,-1.7421,-1.7582,-1.7582,-1.7596,-1.7659,-1.7659,-1.7556,-1.7459,-1.7362,-1.7265,-1.7272,-1.6981,-1.6884,-1.6683,-1.6585,-1.639,-1.6286,-1.6286,-1.6386,-1.65,-1.65,-1.66,-1.6707,-1.6707,-1.682,-1.6941,-1.6941,-1.7161,-1.7415,-1.7549,-1.7582,-1.7582,-1.7582,-1.7582,-1.7582,-1.7582,-1.7582,-1.7582,-1.7582,-1.7582,-1.7582,-1.7582,-1.7582,-1.7582,-1.7582,-1.7582,-1.7582,-1.7582,-1.7582,-1.7582,-1.7582,-1.7582,-1.7582,-1.7582,-1.7582,-1.7582,-1.7582,-1.7582,-1.7582,-1.7582,-1.7582,-1.7891,-1.8401,-1.9027,-1.9339,-1.9339,-1.9339,-1.9027,-1.8401,-1.8401,-1.8094,-1.7582,-1.7582,-1.7582,-1.7582,-1.7582,-1.7582,-1.7687,-1.8436,-1.8757,-1.875,-1.9279,-1.9279,-1.9279,-1.9279,-1.9279,-1.9279,-1.9279,-1.9279,-1.9279,-1.9279,-1.9279,-1.9133,-1.8752,-1.8364,-1.7918,-1.7377,-1.7326,-1.7326,-1.7326,-1.7326,-1.7326,-1.7326,-1.7326,-1.7326,-1.7326,-1.7326,-1.7326,-1.7326,-1.7326,-1.7326,-1.7326,-1.7326,-1.7326,-1.7326,-1.7326,-1.7326,-1.7326,-1.7239,-1.7153,-1.6979,-1.6979,-1.6784,-1.6581,-1.6588,-1.6494,-1.6494,-1.6218,-1.6028,-1.5832,-1.5832,-1.5832,-1.5832,-1.5832,-1.5999,-1.6192,-1.6192,-1.6366,-1.6553,-1.6553,-1.6593,-1.6627,-1.6627,-1.6854,-1.7134,-1.7382,-1.7508,-1.7582,-1.7582,-1.7582,-1.7582,-1.7582,-1.7582,-1.7582,-1.7582,-1.7582,-1.7582,-1.7582,-1.7582,-1.7582,-1.7582,-1.7582,-1.7582,-1.7582,-1.7582,-1.7582,-1.7582,-1.7582,-1.7582,-1.7582,-1.7582,-1.7582,-1.7582,-1.7582,-1.7582,-1.7582,-1.7582,-1.7582,-1.7582,-1.7582,-1.7582,-1.7582,-1.7582,-1.7582,-1.7582,-1.7582,-1.7582,-1.7582,-1.7582,-1.7582,-1.7582,-1.7582,-1.7582,-1.7582,-1.7582,-1.7582,-1.7582,-1.9279,-1.9279,-1.9279,-1.9279,-1.9279,-1.9279,-1.9279,-1.9279,-1.9279,-1.9279,-1.9279,-1.9045,-1.8438,-1.7823,-1.7428,-1.7333,-1.7326,-1.7326,-1.7326,-1.7326,-1.7326,-1.7326,-1.7326,-1.7326,-1.7326,-1.7326,-1.7326,-1.7326,-1.7326,-1.7326,-1.7326,-1.7326,-1.7326,-1.7326,-1.7326,-1.7326,-1.7333,-1.7153,-1.6979,-1.6979,-1.6777,-1.6588,-1.6581,-1.6312,-1.6218,-1.6218,-1.5927,-1.5832,-1.5832,-1.5832,-1.5832,-1.5832,-1.5832,-1.5852,-1.5885,-1.5885,-1.5919,-1.5945,-1.5945,-1.6132,-1.6333,-1.6333,-1.6553,-1.6774,-1.6814,-1.7215,-1.7582,-1.7582,-1.7582,-1.7582,-1.7582,-1.7582,-1.7582,-1.7582,-1.7582,-1.7582,-1.7582,-1.7582,-1.7582,-1.7582,-1.7582,-1.7582,-1.7582,-1.7582,-1.7582,-1.7582,-1.7582,-1.7582,-1.7582,-1.7582,-1.7582,-1.7582,-1.7582,-1.7582,-1.7582,-1.7582,-1.7582,-1.7582,-1.7582,-1.7582,-1.7582,-1.7582,-1.7582,-1.7582,-1.7582,-1.7582,-1.7582,-1.7582,-1.7582,-1.7582,-1.7582,-1.7582,-1.7582,-1.7582,-1.7582,-1.7582,-1.9279,-1.9279,-1.9279,-1.9279,-1.9279,-1.9279,-1.9279,-1.9279,-1.9279,-1.9279,-1.9118,-1.8825,-1.8357,-1.7721,-1.7326,-1.7326,-1.7326,-1.7326,-1.7326,-1.7326,-1.7326,-1.7326,-1.7326,-1.7326,-1.7326,-1.7326,-1.7326,-1.7326,-1.7326,-1.7326,-1.7326,-1.7326,-1.7326,-1.7326,-1.7326,-1.7326,-1.7326,-1.7239,-1.7066,-1.6979,-1.6878,-1.6683,-1.6588,-1.6494,-1.6312,-1.613,-1.5927,-1.5832,-1.5832,-1.5832,-1.5832,-1.5832,-1.5832,-1.5832,-1.5832,-1.5832,-1.5832,-1.5832,-1.5832,-1.5925,-1.6025,-1.6025,-1.6246,-1.6466,-1.6466,-1.6794,-1.7141,-1.7308,-1.7341,-1.7388,-1.7555,-1.7582,-1.7582,-1.7582,-1.7582,-1.7582,-1.7582,-1.7582,-1.7582,-1.7582,-1.7582,-1.7582,-1.7582,-1.7582,-1.7582,-1.7582,-1.7582,-1.7582,-1.7582,-1.7582,-1.7582,-1.7582,-1.7582,-1.7582,-1.7582,-1.7582,-1.7582,-1.7582,-1.7582,-1.7582,-1.7582,-1.7582,-1.7582,-1.7582,-1.7582,-1.7582,-1.7582,-1.7582,-1.7582,-1.7582,-1.7582,-1.7582,-1.7582,-1.7582,-1.7582,-1.7582]},{"header":{"parameterUnit":"m.s-1","parameterCategory":1,"la1":30.6,"la2":28.766,"lo1":-90.7593,"lo2":-88.6598,"dy":0.0162,"dx":0.0183,"nx":116,"ny":114,"refTime":"2023-06-08T06:00:00:Z","depth":0,"parameterNumber":3,"parameterNumberName":"V-component_of_WINDS"},"data":[0.0,0.0,0.0,0.0,0.0,0.0,0.0,0.0,0.0,0.0,0.0,0.0,0.0,0.0,0.0,0.0,0.0,0.0,0.0,0.0,0.0,0.0,0.0,0.0,0.0,0.0,0.0,0.0,0.0,0.0,0.0,0.0,0.0,0.0,0.0,0.0,0.0,0.0,0.0,0.0,0.0,0.0,0.0,0.0,0.0,0.0,0.0,0.0,0.0,0.0,0.0,0.0,0.0,0.0,0.0,0.0,0.0,0.0,0.0,0.0,0.0,0.0,0.0,0.0,0.0,0.0,0.0,0.0,0.0,0.0,0.0,0.0,0.0,0.0,0.0,0.0,0.0,0.0,0.0,0.0,0.0,0.0,0.0,0.0,0.0,0.0,0.0,0.0,0.0,0.0,0.0,0.0,0.0,0.0,0.0,0.0,0.0,0.0,0.0,0.0,0.0,0.0,0.0,0.0,0.0,0.0,0.0,0.0,0.0,0.0,0.0,0.0,0.0,0.0,0.0,0.0,0.0,0.0,0.0,0.0,0.0,0.0,0.0,0.0,0.0,0.0,0.0,0.0,0.0,0.0,0.0,0.0,0.0,0.0,0.0,0.0,0.0,0.0,0.0,0.0,0.0,0.0,0.0,0.0,0.0,0.0,0.0,0.0,0.0,0.0,0.0,0.0,0.0,0.0,0.0,0.0,0.0,0.0,0.0,0.0,0.0,0.0,0.0,0.0,0.0,0.0,0.0,0.0,0.0,0.0,0.0,0.0,0.0,0.0,0.0,0.0,0.0,0.0,0.0,0.0,0.0,0.0,0.0,0.0,0.0,0.0,0.0,0.0,0.0,0.0,0.0,0.0,0.0,0.0,0.0,0.0,0.0,0.0,0.0,0.0,0.0,0.0,0.0,0.0,0.0,0.0,0.0,0.0,0.0,0.0,0.0,0.0,0.0,0.0,0.0,0.0,0.0,0.0,0.0,0.0,0.0,0.0,0.0,0.0,0.0,0.0,0.0,0.0,0.0,0.0,0.0,0.0,0.0,0.0,0.0,0.0,0.0,0.0,0.0,0.0,0.0,0.0,0.0,0.0,0.0,0.0,0.0,0.0,0.0,0.0,0.0,0.0,0.0,0.0,0.0,0.0,0.0,0.0,0.0,0.0,0.0,0.0,0.0,0.0,0.0,0.0,0.0,0.0,0.0,0.0,0.0,0.0,0.0,0.0,0.0,0.0,0.0,0.0,0.0,0.0,0.0,0.0,0.0,0.0,0.0,0.0,0.0,0.0,0.0,0.0,0.0,0.0,0.0,0.0,0.0,0.0,0.0,0.0,0.0,0.0,0.0,0.0,0.0,0.0,0.0,0.0,0.0,0.0,0.0,0.0,0.0,0.0,0.0,0.0,0.0,0.0,0.0,0.0,0.0,0.0,0.0,0.0,0.0,0.0,0.0,0.0,0.0,0.0,0.0,0.0,0.0,0.0,0.0,0.0,0.0,0.0,0.0,0.0,0.0,0.0,0.0,0.0,0.0,0.0,0.0,0.0,0.0,0.0,0.0,0.0,0.0,0.0,0.0,0.0,0.0,0.0,0.0,0.0,0.0,0.0,0.0,0.0,0.0,0.0,0.0,0.0,0.0,0.0,0.0,0.0,0.0,0.0,0.0,0.0,0.0,0.0,0.0,0.0,0.0,0.0,0.0,0.0,0.0,0.0,0.0,0.0,0.0,0.0,0.0,0.0,0.0,0.0,0.0,0.0,0.0,0.0,0.0,0.0,0.0,0.0,0.0,0.0,0.0,0.0,0.0,0.0,0.0,0.0,0.0,0.0,0.0,0.0,0.0,0.0,0.0,0.0,0.0,0.0,0.0,0.0,0.0,0.0,0.0,0.0,0.0,0.0,0.0,0.0,0.0,0.0,0.0,0.0,0.0,0.0,0.0,0.0,0.0,0.0,0.0,0.0,0.0,0.0,0.0,0.0,0.0,0.0,0.0,0.0,0.0,0.0,0.0,0.0,0.0,0.0,0.0,0.0,0.0,0.0,0.0,0.0,0.0,0.0,0.0,0.0,0.0,0.0,0.0,0.0,0.0,0.0,0.0,0.0,0.0,0.0,0.0,0.0,0.0,0.0,0.0,0.0,0.0,0.0,0.0,0.0,0.0,0.0,0.0,0.0,0.0,0.0,0.0,0.0,0.0,0.0,0.0,0.0,0.0,0.0,0.0,0.0,0.0,0.0,0.0,0.0,0.0,0.0,0.0,0.0,0.0,0.0,0.0,0.0,0.0,0.0,0.0,0.0,0.0,0.0,0.0,0.0,0.0,0.0,0.0,0.0,0.0,0.0,0.0,0.0,0.0,0.0,0.0,0.0,0.0,0.0,0.0,0.0,0.0,0.0,0.0,0.0,0.0,0.0,0.0,0.0,0.0,0.0,0.0,0.0,0.0,0.0,0.0,0.0,0.0,0.0,0.0,0.0,0.0,0.0,0.0,0.0,0.0,0.0,0.0,0.0,0.0,0.0,0.0,0.0,0.0,0.0,0.0,0.0,0.0,0.0,0.0,0.0,0.0,0.0,0.0,0.0,0.0,0.0,0.0,0.0,0.0,0.0,0.0,0.0,0.0,0.0,0.0,0.0,0.0,0.0,0.0,0.0,0.0,0.0,0.0,0.0,0.0,0.0,0.0,0.0,0.0,0.0,0.0,0.0,0.0,0.0,0.0,0.0,0.0,0.0,0.0,0.0,0.0,0.0,0.0,0.0,0.0,0.0,0.0,0.0,0.0,0.0,0.0,0.0,0.0,0.0,0.0,0.0,0.0,0.0,0.0,0.0,0.0,0.0,0.0,0.0,0.0,0.0,0.0,0.0,0.0,0.0,0.0,0.0,0.0,0.0,0.0,0.0,0.0,0.0,0.0,0.0,0.0,0.0,0.0,0.0,0.0,0.0,0.0,0.0,0.0,0.0,0.0,0.0,0.0,0.0,0.0,0.0,0.0,0.0,0.0,0.0,0.0,0.0,0.0,0.0,0.0,0.0,0.0,0.0,0.0,0.0,0.0,0.0,0.0,0.0,0.0,0.0,0.0,0.0,0.0,0.0,0.0,0.0,0.0,0.0,0.0,0.0,0.0,0.0,0.0,0.0,0.0,0.0,0.0,0.0,0.0,0.0,0.0,0.0,0.0,0.0,0.0,0.0,0.0,0.0,0.0,0.0,0.0,0.0,0.0,0.0,0.0,0.0,0.0,0.0,0.0,0.0,0.0,0.0,0.0,0.0,0.0,0.0,0.0,0.0,0.0,0.0,0.0,0.0,0.0,0.0,0.0,0.0,0.0,0.0,0.0,0.0,0.0,0.0,0.0,0.0,0.0,0.0,0.0,0.0,0.0,0.0,0.0,0.0,0.0,0.0,0.0,0.0,0.0,0.0,0.0,0.0,0.0,0.0,0.0,0.0,0.0,0.0,0.0,0.0,0.0,0.0,0.0,0.0,0.0,0.0,0.0,0.0,0.0,0.0,0.0,0.0,0.0,0.0,0.0,0.0,0.0,0.0,0.0,0.0,0.0,0.0,0.0,0.0,0.0,0.0,0.0,0.0,0.0,0.0,0.0,0.0,0.0,0.0,0.0,0.0,0.0,0.0,0.0,0.0,0.0,0.0,0.0,0.0,0.0,0.0,0.0,0.0,0.0,0.0,0.0,0.0,0.0,0.0,0.0,0.0,0.0,0.0,0.0,0.0,0.0,0.0,0.0,0.0,0.0,0.0,0.0,0.0,0.0,0.0,0.0,0.0,0.0,0.0,0.0,0.0,0.0,0.0,0.0,0.0,0.0,0.0,0.0,0.0,0.0,0.0,0.0,0.0,0.0,0.0,0.0,0.0,0.0,0.0,0.0,0.0,0.0,0.0,0.0,0.0,0.0,0.0,0.0,0.0,0.0,0.0,0.0,0.0,0.0,0.0,0.0,0.0,0.0,0.0,0.0,0.0,0.0,0.0,0.0,0.0,0.0,0.0,0.0,0.0,0.0,0.0,0.0,0.0,0.0,0.0,0.0,0.0,0.0,0.0,0.0,0.0,0.0,0.0,0.0,0.0,0.0,0.0,0.0,0.0,0.0,0.0,0.0,0.0,0.0,0.0,0.0,0.0,0.0,0.0,0.0,0.0,0.0,0.0,0.0,0.0,0.0,0.0,0.0,0.0,0.0,0.0,0.0,0.0,0.0,0.0,0.0,0.0,0.0,0.0,0.0,0.0,0.0,0.0,0.0,0.0,0.0,0.0,0.0,0.0,0.0,0.0,0.0,0.0,0.0,0.0,0.0,0.0,0.0,0.0,0.0,0.0,0.0,0.0,0.0,0.0,0.0,0.0,0.0,0.0,0.0,0.0,0.0,0.0,0.0,0.0,0.0,0.0,0.0,0.0,0.0,0.0,0.0,0.0,0.0,0.0,0.0,0.0,0.0,0.0,0.0,0.0,0.0,0.0,0.0,0.0,0.0,0.0,0.0,0.0,0.0,0.0,0.0,0.0,0.0,0.0,0.0,0.0,0.0,0.0,0.0,0.0,0.0,0.0,0.0,0.0,0.0,0.0,0.0,0.0,0.0,0.0,0.0,0.0,0.0,0.0,0.0,0.0,0.0,0.0,0.0,0.0,0.0,0.0,0.0,0.0,0.0,0.0,0.0,0.0,0.0,0.0,0.0,0.0,0.0,0.0,0.0,0.0,0.0,0.0,0.0,0.0,0.0,0.0,0.0,0.0,0.0,0.0,0.0,0.0,0.0,0.0,0.0,0.0,0.0,0.0,0.0,0.0,0.0,0.0,0.0,0.0,0.0,0.0,0.0,0.0,0.0,0.0,0.0,0.0,0.0,0.0,0.0,0.0,0.0,0.0,0.0,0.0,0.0,0.0,0.0,0.0,0.0,0.0,0.0,0.0,0.0,0.0,0.0,0.0,0.0,0.0,0.0,0.0,0.0,0.0,0.0,0.0,0.0,0.0,0.0,0.0,0.0,0.0,0.0,0.0,0.0,0.0,0.0,0.0,0.0,0.0,0.0,0.0,0.0,0.0,0.0,0.0,0.0,0.0,0.0,0.0,0.0,0.0,0.0,0.0,0.0,0.0,0.0,0.0,0.0,0.0,0.0,0.0,0.0,0.0,0.0,0.0,0.0,0.0,0.0,0.0,0.0,0.0,0.0,0.0,0.0,0.0,0.0,0.0,0.0,0.0,0.0,0.0,0.0,0.0,0.0,0.0,0.0,0.0,0.0,0.0,0.0,0.0,0.0,0.0,0.0,0.0,0.0,0.0,0.0,0.0,0.0,0.0,0.0,0.0,0.0,0.0,0.0,0.0,0.0,0.0,0.0,0.0,0.0,0.0,0.0,0.0,0.0,0.0,0.0,0.0,0.0,0.0,0.0,0.0,0.0,0.0,0.0,0.0,0.0,0.0,0.0,0.0,0.0,0.0,0.0,0.0,0.0,0.0,0.0,0.0,0.0,0.0,0.0,0.0,0.0,0.0,0.0,0.0,0.0,0.0,0.0,0.0,0.0,0.0,0.0,0.0,0.0,0.0,0.0,0.0,0.0,0.0,0.0,0.0,0.0,0.0,0.0,0.0,0.0,0.0,0.0,0.0,0.0,0.0,0.0,0.0,0.0,0.0,0.0,0.0,0.0,0.0,0.0,0.0,0.0,0.0,0.0,0.0,0.0,0.0,0.0,0.0,0.0,0.0,0.0,0.0,0.0,0.0,0.0,0.0,0.0,0.0,0.0,0.0,0.0,0.0,0.0,0.0,0.0,0.0,0.0,0.0,0.0,0.0,0.0,0.0,0.0,0.0,0.0,0.0,0.0,0.0,0.0,0.0,0.0,0.0,0.0,0.0,0.0,0.0,0.0,0.0,0.0,0.0,0.0,0.0,0.0,0.0,0.0,0.0,0.0,0.0,0.0,0.0,0.0,0.0,0.0,0.0,0.0,0.0,0.0,0.0,0.0,0.0,0.0,0.0,0.0,0.0,0.0,0.0,0.0,0.0,0.0,0.0,0.0,0.0,0.0,0.0,0.0,0.0,0.0,0.0,0.0,0.0,0.0,0.0,0.0,0.0,0.0,0.0,0.0,0.0,0.0,0.0,-3.324,0.0,0.0,0.0,0.0,0.0,0.0,0.0,0.0,0.0,0.0,0.0,0.0,0.0,0.0,0.0,0.0,0.0,0.0,0.0,0.0,0.0,0.0,0.0,0.0,0.0,0.0,0.0,0.0,0.0,0.0,0.0,0.0,0.0,0.0,0.0,0.0,0.0,0.0,0.0,0.0,0.0,0.0,0.0,0.0,0.0,0.0,0.0,0.0,0.0,0.0,0.0,0.0,0.0,0.0,0.0,0.0,0.0,0.0,0.0,0.0,0.0,0.0,0.0,0.0,0.0,0.0,0.0,0.0,0.0,0.0,0.0,0.0,0.0,0.0,0.0,0.0,0.0,0.0,0.0,0.0,0.0,0.0,0.0,0.0,0.0,0.0,0.0,0.0,0.0,0.0,0.0,0.0,0.0,0.0,0.0,0.0,0.0,0.0,0.0,0.0,0.0,0.0,0.0,0.0,0.0,0.0,0.0,0.0,0.0,0.0,0.0,0.0,0.0,0.0,0.0,0.0,-3.3154,0.0,0.0,0.0,0.0,0.0,0.0,0.0,0.0,0.0,0.0,0.0,0.0,0.0,0.0,0.0,0.0,0.0,0.0,0.0,0.0,0.0,0.0,0.0,0.0,0.0,0.0,0.0,0.0,0.0,0.0,0.0,0.0,0.0,0.0,0.0,0.0,0.0,0.0,0.0,0.0,0.0,0.0,0.0,0.0,0.0,0.0,0.0,0.0,0.0,0.0,0.0,0.0,0.0,0.0,0.0,0.0,0.0,0.0,0.0,0.0,0.0,0.0,0.0,0.0,0.0,0.0,0.0,0.0,0.0,0.0,0.0,0.0,0.0,0.0,0.0,0.0,0.0,0.0,0.0,0.0,0.0,0.0,0.0,0.0,0.0,0.0,0.0,0.0,0.0,0.0,0.0,0.0,0.0,0.0,0.0,0.0,0.0,0.0,0.0,0.0,0.0,0.0,0.0,0.0,0.0,0.0,0.0,0.0,-3.3081,-3.3081,-3.3081,-3.3081,-3.3081,-3.3081,-3.3081,-3.3081,-3.3081,-3.3081,0.0,0.0,0.0,0.0,0.0,0.0,0.0,0.0,0.0,0.0,0.0,0.0,0.0,0.0,0.0,0.0,0.0,0.0,0.0,0.0,0.0,0.0,0.0,0.0,0.0,0.0,0.0,0.0,0.0,0.0,0.0,0.0,0.0,0.0,0.0,0.0,0.0,0.0,-4.2224,-4.2198,-4.1901,-4.1497,-4.2873,0.0,0.0,0.0,0.0,0.0,0.0,0.0,0.0,0.0,0.0,0.0,0.0,0.0,0.0,0.0,0.0,0.0,0.0,0.0,0.0,0.0,0.0,0.0,0.0,0.0,0.0,0.0,0.0,0.0,0.0,0.0,0.0,0.0,0.0,0.0,0.0,0.0,0.0,0.0,0.0,0.0,0.0,0.0,-3.2345,-3.0786,0.0,0.0,0.0,0.0,0.0,0.0,0.0,0.0,0.0,0.0,0.0,0.0,0.0,-2.8612,-3.0797,-3.1039,-3.1798,-3.3081,-3.3081,-3.3081,-3.3081,-3.3081,-3.3081,-3.3081,-3.3081,0.0,-3.3081,-3.3081,0.0,0.0,0.0,0.0,0.0,0.0,0.0,0.0,0.0,0.0,0.0,0.0,0.0,0.0,0.0,0.0,0.0,0.0,0.0,0.0,0.0,0.0,0.0,0.0,0.0,0.0,0.0,0.0,0.0,0.0,0.0,0.0,0.0,0.0,0.0,0.0,-4.2652,-4.2332,-4.1905,-4.1744,-4.1468,-4.1148,-4.1846,-4.2158,-4.2158,-4.2158,0.0,0.0,0.0,0.0,0.0,0.0,0.0,0.0,0.0,0.0,0.0,0.0,0.0,0.0,0.0,0.0,0.0,0.0,0.0,0.0,0.0,0.0,0.0,0.0,0.0,0.0,0.0,0.0,0.0,0.0,0.0,0.0,0.0,0.0,0.0,0.0,0.0,0.0,0.0,-3.2662,-3.1442,-3.033,-3.0023,-2.9702,0.0,0.0,0.0,0.0,0.0,0.0,0.0,0.0,0.0,-2.6966,-2.7435,-2.8666,-3.0831,-3.1132,-3.1583,-3.2251,-3.281,-3.2797,-3.2264,-3.281,-3.3081,-3.3093,-3.3407,-3.3533,-3.352,-3.3206,-3.3257,-3.3533,0.0,0.0,0.0,0.0,-3.4983,-3.5399,0.0,0.0,0.0,0.0,0.0,0.0,0.0,0.0,0.0,0.0,0.0,0.0,0.0,0.0,0.0,-4.6277,0.0,0.0,0.0,0.0,0.0,0.0,0.0,0.0,0.0,0.0,0.0,0.0,-4.1879,-4.1572,-4.118,-4.098,-4.0755,-4.0506,-4.0506,-4.0726,-4.1111,-4.1111,-4.1158,0.0,0.0,0.0,0.0,0.0,0.0,0.0,0.0,0.0,0.0,0.0,0.0,0.0,0.0,0.0,0.0,0.0,0.0,0.0,0.0,0.0,0.0,0.0,0.0,0.0,0.0,0.0,0.0,0.0,0.0,0.0,0.0,0.0,0.0,0.0,0.0,0.0,0.0,-3.1783,-3.082,-2.9985,-2.9856,-2.9443,0.0,0.0,0.0,0.0,0.0,0.0,-2.531,-2.5733,-2.6494,-2.7635,-2.7746,-2.8802,-3.0949,-3.1156,-3.1347,-3.1625,-3.2624,-3.2711,-3.1989,-3.286,-3.3282,-3.3319,-3.3872,-3.411,-3.4073,-3.3671,-3.3746,-3.411,-3.411,-3.4361,-3.4738,-3.516,-3.5301,-3.5814,0.0,0.0,0.0,0.0,0.0,0.0,0.0,0.0,0.0,0.0,0.0,0.0,0.0,0.0,-4.6144,-4.6296,-4.63,-4.5925,0.0,0.0,0.0,0.0,0.0,0.0,0.0,0.0,0.0,-4.0046,-4.0027,-3.976,-3.924,-3.9212,-3.9079,-3.8836,-3.8836,-3.968,-4.1111,-4.119,-4.1204,-4.1204,0.0,0.0,0.0,0.0,0.0,0.0,0.0,0.0,0.0,0.0,0.0,0.0,0.0,0.0,0.0,0.0,0.0,0.0,0.0,0.0,0.0,0.0,0.0,0.0,0.0,0.0,0.0,0.0,0.0,0.0,0.0,0.0,0.0,0.0,0.0,0.0,0.0,0.0,0.0,-2.9561,-2.9689,0.0,0.0,0.0,0.0,-2.7386,-2.6443,-2.582,-2.5482,-2.5941,-2.707,-2.8924,-2.7886,-2.8588,-3.1223,-3.0609,-3.0711,-3.1625,-3.2624,-3.3068,-3.3007,-3.3621,-3.3859,-3.3884,-3.4449,-3.4675,-3.4675,-3.465,-3.4663,-3.4675,-3.4675,-3.47,-3.4788,-3.5565,-3.6029,-3.6651,0.0,0.0,0.0,0.0,0.0,0.0,0.0,0.0,0.0,0.0,0.0,0.0,0.0,-4.6098,-4.615,-4.6296,-4.6216,-4.5841,-4.5047,0.0,0.0,0.0,0.0,0.0,0.0,0.0,-4.0215,-3.9899,-3.9721,-3.9477,-3.9101,-3.8921,-3.8822,-3.8762,-3.8762,-3.9123,-3.9688,-3.9657,-3.9688,-3.9748,-3.9789,-3.9848,0.0,0.0,0.0,0.0,0.0,0.0,0.0,0.0,0.0,0.0,0.0,0.0,0.0,0.0,0.0,0.0,0.0,0.0,0.0,0.0,0.0,0.0,0.0,0.0,0.0,0.0,0.0,0.0,0.0,0.0,0.0,0.0,0.0,0.0,0.0,0.0,0.0,-2.9689,-2.9702,0.0,-2.845,-2.9003,-2.8527,-2.6357,-2.702,-2.7008,-2.5766,-2.6118,-2.673,-2.7441,-2.6968,-2.7872,-3.0056,-3.0377,-3.0916,-3.195,-3.3402,-3.3844,-3.3293,-3.4055,-3.4424,-3.4462,-3.5014,-3.5253,-3.5278,-3.5629,-3.5567,-3.5253,-3.5253,-3.5466,-3.5805,-3.6087,-3.6243,-3.6641,0.0,0.0,0.0,0.0,0.0,0.0,0.0,0.0,0.0,0.0,0.0,-4.594,-4.6091,-4.6138,-4.6206,-4.63,-4.6216,-4.5699,-4.4637,0.0,0.0,0.0,0.0,0.0,0.0,-4.0432,-4.0252,-3.9899,-3.9628,-3.9376,-3.9101,-3.884,-3.8719,-3.8792,-3.8792,-3.8851,-3.891,-3.8881,-3.8892,-3.8921,-3.9007,-3.9045,-3.9101,0.0,0.0,0.0,0.0,0.0,0.0,0.0,0.0,0.0,0.0,0.0,0.0,0.0,0.0,0.0,0.0,0.0,0.0,0.0,0.0,0.0,0.0,0.0,0.0,0.0,0.0,0.0,0.0,0.0,0.0,0.0,0.0,0.0,0.0,0.0,-2.9792,-2.9702,-2.9852,-2.9559,-2.8566,-2.9545,-2.9332,-2.7108,-2.7788,-2.7763,-2.6494,-2.6421,-2.6739,-2.765,-2.7383,-2.8095,-2.9724,-3.0717,-3.1356,-3.1751,-3.3607,-3.4247,-3.3674,-3.4537,-3.5002,-3.5027,-3.5579,-3.5818,-3.5843,-3.6219,-3.6144,-3.5818,-3.5818,-3.6044,-3.6358,-3.6358,-3.6452,-3.6722,0.0,0.0,0.0,0.0,0.0,0.0,0.0,0.0,0.0,0.0,-4.5871,-4.594,-4.6091,-4.6211,-4.63,-4.63,-4.63,-4.5578,-4.3879,-4.3723,0.0,0.0,0.0,0.0,-4.0396,-4.0396,-4.0234,-3.9914,-3.9647,-3.9376,-3.9101,-3.8822,-3.875,-3.8822,-3.8822,-3.8833,-3.891,-3.8997,-3.9026,-3.9007,-3.9073,-3.9101,-3.9101,0.0,0.0,0.0,0.0,0.0,0.0,0.0,0.0,0.0,0.0,0.0,0.0,0.0,0.0,0.0,0.0,0.0,0.0,0.0,0.0,0.0,0.0,0.0,0.0,0.0,0.0,0.0,0.0,0.0,0.0,0.0,0.0,0.0,-3.2074,-3.0722,-2.9689,-2.9419,-2.9891,-3.0078,-2.993,-3.0211,-3.0229,-2.9653,-2.8623,-2.7856,-2.7589,-2.6688,-2.7277,-2.9719,-2.918,-2.93,-3.0511,-3.1803,-3.2028,-3.1049,-3.3248,-3.4309,-3.4413,-3.5132,-3.5487,-3.5604,-3.6132,-3.6358,-3.6358,-3.6358,-3.6358,-3.6358,-3.6358,-3.6358,-3.6358,-3.6358,-3.6534,-3.6896,0.0,0.0,0.0,0.0,0.0,0.0,0.0,0.0,0.0,0.0,-4.5871,-4.594,-4.6091,-4.6138,-4.6187,-4.6296,-4.63,-4.6105,-4.5617,0.0,0.0,0.0,0.0,0.0,-4.0476,-4.0463,-4.0325,-4.006,-3.9766,-3.9526,-3.9245,-3.8979,-3.8881,-3.8968,-3.8968,-3.8979,-3.9045,-3.9073,-3.9129,-3.9192,-3.9129,-3.9101,-3.9101,0.0,0.0,0.0,0.0,0.0,0.0,0.0,0.0,0.0,0.0,0.0,0.0,0.0,0.0,0.0,0.0,0.0,0.0,0.0,0.0,0.0,0.0,0.0,0.0,0.0,0.0,0.0,0.0,0.0,0.0,0.0,0.0,-3.1928,-3.1328,-3.0241,-2.9521,-2.9702,-2.9849,-2.993,-2.9942,-3.0553,-3.0268,-2.85,-2.8718,-2.8232,-2.6773,-2.6784,-2.7102,-2.7803,-2.839,-2.9133,-3.023,-3.1945,-3.3017,-3.3434,-3.4686,-3.5355,-3.5556,-3.5799,-3.5968,-3.6144,-3.6295,-3.6358,-3.6358,-3.6358,-3.6358,-3.6358,-3.6358,-3.6358,-3.6358,-3.6358,-3.664,-3.7188,0.0,0.0,0.0,0.0,0.0,0.0,0.0,0.0,0.0,0.0,-4.5802,-4.5894,-4.5959,-4.606,-4.6138,-4.6211,-4.6273,-4.6144,-4.5773,0.0,0.0,0.0,0.0,-4.1042,-4.0511,-4.0499,-4.0396,-4.0177,-3.9854,-3.9599,-3.9427,-3.9073,-3.895,-3.9092,-3.9092,-3.9156,-3.9272,-3.9272,-3.9324,-3.9376,-3.9298,-3.9219,-3.9183,-3.9129,-3.9101,-3.9175,-3.9592,-3.9941,-4.0293,-4.0755,0.0,0.0,0.0,0.0,0.0,0.0,0.0,0.0,0.0,0.0,0.0,0.0,0.0,0.0,0.0,0.0,0.0,0.0,0.0,0.0,0.0,0.0,0.0,0.0,-3.3171,-3.2023,-3.1673,-3.0509,-2.9766,-2.9949,-3.0232,-3.0453,-3.0453,-3.1065,-3.0749,-2.9204,-2.9669,-2.9234,-2.7412,-2.7563,-2.7976,-2.8654,-2.8755,-2.9442,-3.0734,-3.2309,-3.3059,-3.3266,-3.4872,-3.5716,-3.5812,-3.6098,-3.6275,0.0,-3.6358,-3.6358,-3.6358,-3.6358,-3.6358,0.0,0.0,0.0,0.0,0.0,-3.6734,-3.7201,0.0,0.0,0.0,0.0,0.0,0.0,0.0,0.0,0.0,0.0,0.0,-4.5786,-4.58,-4.5949,-4.6076,-4.6084,-4.6206,-4.5917,0.0,0.0,0.0,-4.2159,-4.209,-4.1594,-4.0518,-4.0499,-4.043,-4.0288,-3.9897,-3.967,-3.9575,-3.9129,-3.9036,-3.921,-3.921,-3.9324,-3.9502,-3.9502,-3.9526,-3.9526,-3.9526,-3.9427,-3.9324,-3.9192,-3.9129,-3.9073,-3.8921,-3.9264,-3.9841,-3.9841,0.0,0.0,0.0,0.0,0.0,0.0,0.0,0.0,0.0,0.0,0.0,0.0,0.0,0.0,0.0,0.0,0.0,0.0,0.0,0.0,0.0,0.0,0.0,0.0,-3.3101,-3.2218,-3.2514,-3.1279,-3.0245,-3.0245,-3.0758,-3.1174,-3.132,-3.1632,-3.1513,-3.0996,-3.1088,-3.0454,-2.8828,0.0,0.0,0.0,0.0,-3.044,-3.1779,-3.2789,-3.2889,-3.1982,-3.4409,-3.562,-3.562,-3.6086,-3.6358,-3.6358,-3.6358,-3.6358,-3.6358,-3.6358,-3.6358,-3.6358,-3.6358,-3.6358,-3.6358,-3.6452,-3.6734,-3.7108,0.0,0.0,0.0,0.0,0.0,0.0,0.0,0.0,0.0,-4.5586,-4.562,-4.5684,-4.5786,-4.5835,-4.5871,-4.593,-4.6052,-4.5792,0.0,0.0,-4.3731,-4.2179,-4.2005,-4.1499,-4.0611,-4.0543,-4.0408,-4.0214,-3.9922,-3.9683,-3.9526,-3.921,-3.9156,-3.9272,-3.9272,-3.9376,-3.9502,-3.9502,-3.9556,-3.9647,-3.9532,-3.9483,-3.9477,-3.9427,-3.9298,-3.9101,-3.9165,-3.9053,-3.8792,-3.8983,-3.9405,-3.9904,-3.9904,0.0,0.0,0.0,0.0,0.0,0.0,0.0,0.0,0.0,0.0,0.0,0.0,0.0,0.0,0.0,0.0,0.0,0.0,0.0,0.0,-3.4467,-3.3101,-3.2218,-3.2514,-3.1468,-3.0581,-3.0581,-3.0822,-3.1221,-3.1743,-3.2111,-3.2174,-3.1631,-3.1938,-3.1608,-3.0513,-3.0781,-3.1142,-3.1433,-3.2141,-3.2598,-3.2901,-3.3918,-3.4421,-3.4213,0.0,0.0,-3.562,-3.5908,-3.6193,-3.6358,-3.6358,-3.6358,-3.6358,-3.6358,-3.6358,-3.6358,-3.6358,-3.6358,-3.6452,-3.6534,-3.6828,-3.7108,0.0,0.0,0.0,0.0,0.0,0.0,0.0,0.0,0.0,0.0,-4.5586,-4.5637,-4.575,-4.5786,-4.5829,-4.5894,-4.6016,0.0,0.0,-4.5401,-4.4757,-4.3424,-4.2911,-4.2179,-4.1162,-4.0684,-4.0339,-4.0099,-3.9857,-3.9679,-3.9551,-3.9324,-3.9324,-3.9502,-3.9502,-3.9575,-3.9712,-3.9712,-3.9758,-3.9848,-3.9758,-3.9717,-3.9717,-3.9556,-3.935,-3.9101,-3.9036,-3.87,-3.83,-3.8415,-3.8605,-3.88,-3.88,-3.9005,-3.9192,0.0,0.0,0.0,0.0,0.0,0.0,0.0,0.0,0.0,0.0,0.0,0.0,0.0,0.0,-3.5703,0.0,0.0,-3.4802,-3.4467,-3.3282,-3.2428,-3.2791,-3.1737,-3.0906,-3.0906,-3.1366,-3.1882,-3.2236,-3.2666,-3.2721,-3.2149,-3.28,-3.2655,-3.1304,-3.195,-3.2387,-3.2387,-3.2387,-3.2689,-3.3201,-3.3709,-3.4017,-3.4017,-3.492,-3.5428,-3.562,-3.6003,-3.6275,-3.6358,-3.6358,-3.6358,-3.6383,-3.6659,-3.6772,-3.6797,-3.7073,-3.6847,-3.6452,-3.6546,-3.6828,-3.7108,0.0,0.0,0.0,0.0,0.0,0.0,0.0,0.0,0.0,0.0,0.0,-4.5622,-4.5657,-4.5742,-4.5808,0.0,0.0,0.0,0.0,-4.6028,-4.5602,-4.4588,-4.3924,-4.296,-4.1728,-4.0987,-4.0405,-3.9975,-3.9826,-3.9693,-3.9575,-3.9427,-3.9477,-3.9693,-3.9693,-3.9762,-3.9889,-3.9889,-3.9933,-3.9996,-3.9867,-3.9848,-3.987,-3.9532,-3.9279,-3.9055,-3.8807,-3.8423,-3.8068,-3.8101,-3.8034,-3.7949,-3.7915,-3.781,-3.7631,-3.7354,-3.7027,0.0,0.0,0.0,0.0,0.0,0.0,0.0,0.0,0.0,-3.6515,-3.5929,-3.5657,-3.5359,-3.5001,-3.4935,-3.4846,-3.4641,-3.3617,-3.2987,-3.3196,-3.2307,-3.159,-3.1452,-3.2063,-3.2575,-3.2779,-3.3188,-3.3256,-3.2862,-3.3695,-3.3582,-3.2264,-3.3001,-3.3511,-3.3511,-3.2689,-3.26,-3.3511,-3.3511,-3.3511,-3.3511,-3.492,-3.562,-3.562,-3.6181,-3.642,-3.6521,-3.6634,-3.6684,-3.6709,-3.7161,-3.7349,-3.7387,-3.7839,-3.7462,-3.6684,-3.6684,-3.7064,-3.7429,0.0,0.0,0.0,0.0,0.0,0.0,0.0,0.0,0.0,0.0,0.0,0.0,0.0,0.0,0.0,0.0,0.0,0.0,-4.5901,-4.5804,-4.5345,-4.4465,-4.4215,-4.334,-4.1731,-4.1493,-4.0901,-3.9914,-3.9892,-3.9739,-3.9526,-3.9502,-3.9575,-3.9693,-3.9693,-3.9762,-3.9889,-3.9889,-3.9933,-3.9975,-3.967,-3.9575,-3.9599,-3.9216,-3.9054,-3.898,-3.8828,-3.8455,-3.8018,-3.8068,-3.7931,-3.7739,-3.7649,-3.7613,-3.7577,-3.7372,0.0,-3.6908,-3.6742,-3.6938,-3.7134,-3.6983,-3.7439,-3.779,0.0,0.0,-3.6657,-3.6353,-3.5849,-3.5359,-3.5001,-3.4935,-3.4993,-3.5238,-3.4583,-3.3974,-3.3899,-3.3615,-3.3106,-3.243,-3.243,-3.2863,-3.3777,-3.3921,-3.4078,-3.4497,-3.4642,-3.4666,-3.4421,-3.4531,-3.4628,-3.4628,-3.4519,-3.4519,-3.4628,-3.4628,-3.4628,-3.4628,-3.532,-3.562,-3.562,-3.6181,-3.6621,-3.7123,-3.7613,-3.7826,-3.7826,-3.7889,-3.7914,-3.7927,-3.799,-3.7939,-3.7826,-3.7826,-3.8108,-3.8788,0.0,0.0,0.0,0.0,0.0,0.0,0.0,0.0,0.0,0.0,0.0,0.0,0.0,0.0,0.0,0.0,0.0,0.0,-4.5838,-4.5616,-4.5299,-4.4935,-4.4269,-4.3555,-4.2764,-4.2202,-4.1377,-4.0303,-4.0376,-4.0113,-3.9483,-3.9599,-3.9693,-3.9826,-3.9826,-3.9867,-3.9889,-3.9889,-3.9933,-3.9975,-3.9647,-3.9551,-3.9551,-3.899,-3.8759,-3.8759,-3.8718,-3.8378,0.0,0.0,-3.7863,-3.7667,-3.7613,-3.7577,-3.7577,-3.7521,-3.7259,0.0,-3.7141,-3.7292,-3.7463,0.0,-3.8018,-3.817,-3.7735,-3.7183,-3.6711,-3.6492,-3.591,-3.5359,-3.5001,-3.4935,-3.5007,0.0,-3.4911,-3.4375,-3.4033,-3.3978,-3.3684,-3.3071,-3.3224,-3.3561,-3.4006,-3.4318,-3.4595,-3.4811,-3.4823,-3.4823,-3.4823,-3.4823,-3.4823,-3.4823,-3.4823,-3.4823,-3.4823,-3.4823,-3.4932,-3.503,-3.5734,-3.6172,-3.6366,-3.698,-3.745,-3.7676,-3.7902,-3.8002,-3.804,-3.8366,-3.8504,-3.8542,-3.8868,-3.8981,-3.8906,-3.8253,-3.8298,-3.8968,0.0,0.0,0.0,0.0,0.0,0.0,0.0,0.0,0.0,0.0,0.0,0.0,0.0,0.0,0.0,0.0,0.0,0.0,0.0,-4.538,-4.5206,-4.5145,-4.4379,-4.3796,-4.346,-4.2806,-4.1983,-4.0977,-4.091,-4.0528,-3.9889,-3.9736,-3.9693,-3.9781,-3.9693,-3.9651,-3.9651,-3.9651,-3.9739,-3.9848,-3.9433,-3.9357,-3.9389,-3.8748,-3.8478,-3.8478,-3.8478,-3.8285,0.0,0.0,-3.7846,-3.7757,-3.7649,-3.7613,-3.7577,-3.7577,-3.7476,-3.7329,-3.7404,0.0,0.0,-3.8244,-3.8438,-3.8463,-3.806,-3.7552,-3.7011,-3.6538,-3.6085,-3.5604,-3.5001,-3.5082,-3.5272,-3.5587,-3.5467,-3.5121,-3.4527,-3.4582,-3.4414,-3.3603,-3.3945,-3.4258,-3.4258,-3.4607,-3.4823,-3.4823,-3.4823,-3.4823,-3.4823,-3.4823,-3.4823,-3.4823,-3.4823,-3.4823,-3.4823,-3.4968,-3.515,-3.5454,-3.6284,-3.6739,-3.7022,-3.7878,-3.8253,-3.8253,-3.8404,-3.8467,-3.8504,-3.8931,-3.9094,-3.9132,-3.9534,-3.9697,-3.9597,-3.8869,-3.8865,-3.9445,0.0,0.0,0.0,0.0,0.0,0.0,0.0,0.0,0.0,0.0,0.0,0.0,0.0,0.0,0.0,0.0,0.0,0.0,0.0,-4.5101,-4.4943,-4.4825,-4.4657,-4.4221,-4.3403,-4.3262,-4.2769,-4.1954,-4.1318,-4.0995,-4.0939,-3.997,-3.9526,-3.9502,-3.9163,-3.9036,-3.9036,-3.9036,-3.9242,-3.9551,-3.8894,-3.8828,-3.9044,-3.8446,-3.8225,-3.8225,-3.8225,0.0,0.0,0.0,-3.7933,-3.7864,-3.7757,-3.7631,0.0,-3.7577,-3.781,-3.7953,0.0,0.0,-3.8804,-3.8706,-3.8747,-3.881,-3.8941,-3.8318,-3.7589,-3.6845,-3.6554,-3.6054,-3.5052,-3.5451,-3.5947,-3.6241,-3.6606,-3.666,-3.5758,-3.5943,-3.5583,-3.4123,-3.4487,-3.4811,0.0,-3.4823,-3.4823,-3.4823,-3.4823,-3.4823,-3.4823,-3.4823,-3.4823,-3.4823,-3.4823,-3.4823,-3.4823,-3.534,-3.5692,-3.6001,-3.6748,-3.7294,-3.7593,-3.8479,-3.8843,-3.8881,-3.9408,-3.9647,-3.9647,-3.9659,-3.9672,-3.9672,-3.9685,-3.9697,-3.9685,-3.9943,-4.0236,-4.073,0.0,0.0,0.0,0.0,0.0,0.0,0.0,0.0,0.0,0.0,0.0,0.0,0.0,0.0,0.0,0.0,0.0,0.0,0.0,-4.4757,-4.4572,-4.4546,-4.4336,-4.408,-4.3818,-4.3741,-4.326,-4.2261,-4.2132,-4.1657,-4.0933,-4.0215,-3.99,-3.9863,-3.925,-3.9008,-3.9008,-3.9008,-3.9063,-3.9163,-3.8778,-3.8658,-3.873,-3.8354,-3.8192,-3.8192,0.0,0.0,0.0,-3.8036,-3.8002,-3.7933,-3.7739,-3.7667,-3.7757,-3.8107,-3.794,-3.7887,-3.8885,0.0,-3.8555,-3.9613,-3.9218,-3.8574,-3.8374,-3.7806,-3.7055,-3.6228,-3.5991,-3.5737,-3.5052,-3.5465,-3.5977,-3.627,-3.6794,-3.7096,-3.6769,-3.6494,-3.6038,-3.5151,-3.487,0.0,0.0,0.0,0.0,-3.4823,-3.4823,-3.4823,-3.4823,-3.4823,-3.4823,-3.4823,-3.5172,-3.5352,-3.5352,-3.6081,-3.6548,-3.6761,-3.7816,-3.8566,-3.9018,-3.932,-3.9421,-3.9433,-3.9609,-3.9697,-3.9697,-3.9697,-3.9697,-3.9697,-3.9697,-3.9697,-3.9697,-3.9981,-4.0287,-4.0694,0.0,0.0,0.0,0.0,0.0,0.0,0.0,0.0,0.0,0.0,0.0,0.0,0.0,0.0,0.0,0.0,0.0,0.0,0.0,0.0,-4.4336,-4.4279,-4.4091,-4.4005,-4.4005,-4.391,-4.3504,-4.2824,-4.2576,-4.2036,-4.1302,-4.0657,-4.0351,-4.0333,-3.9768,-3.9399,-3.9142,-3.9142,-3.9017,-3.8828,-3.8554,-3.851,-3.8554,-3.8289,-3.8192,0.0,0.0,0.0,0.0,-3.8036,-3.7984,-3.7933,-3.7739,-3.7864,-3.8094,-3.821,-3.8273,-3.8466,-3.9221,-3.8874,-3.8609,-3.9493,-3.8887,-3.8067,-3.7806,-3.7648,-3.7131,-3.607,-3.6102,-3.6102,-3.5198,-3.5657,-3.6241,-3.6385,-3.7171,-3.7696,-3.7548,-3.7253,-3.6806,-3.5903,-3.5553,-3.5199,0.0,0.0,0.0,-3.4823,-3.4823,-3.4823,-3.4823,-3.4823,-3.4919,-3.51,-3.5437,-3.5713,-3.5893,-3.6727,-3.7409,-3.791,-3.8791,-3.9346,-3.9697,-3.9697,-3.9697,-3.9697,-3.9697,-3.9697,-3.9697,-3.9697,-3.9697,-3.9697,-3.9697,-3.9788,-3.989,-4.0185,-4.0681,-4.1358,0.0,0.0,0.0,0.0,0.0,0.0,0.0,0.0,0.0,0.0,0.0,0.0,0.0,0.0,0.0,0.0,0.0,0.0,0.0,0.0,0.0,-4.4005,-4.4005,-4.3974,-4.3974,-4.373,-4.3579,-4.3545,-4.2582,-4.2111,-4.2111,-4.1223,-4.0823,-4.0823,-4.0581,-4.0076,-3.9441,-3.9441,-3.9122,-3.8596,-3.8361,-3.8391,-3.8541,-3.8289,0.0,0.0,0.0,0.0,0.0,0.0,0.0,-3.7935,-3.7829,-3.8256,-3.8652,-3.8064,-3.8773,-3.9508,-3.8573,-3.8623,-3.886,-3.8439,-3.787,-3.7476,-3.7417,-3.7812,-3.7754,-3.6274,-3.6845,-3.7071,0.0,0.0,-3.6796,-3.6643,-3.7717,-3.8436,-3.8104,-3.8205,-3.783,0.0,0.0,0.0,0.0,0.0,0.0,-3.4823,0.0,-3.4823,-3.4823,-3.4859,-3.51,-3.5605,-3.5665,-3.5942,-3.6435,-3.7285,-3.8221,-3.9362,-3.9581,-3.9697,-3.9697,-3.9697,-3.9697,-3.9697,-3.9697,-3.9697,-3.9697,-3.9697,-3.9697,-3.9697,-3.9697,-3.989,-4.0185,-4.0389,-4.1272,-4.2501,0.0,0.0,0.0,0.0,0.0,0.0,0.0,0.0,0.0,0.0,0.0,0.0,0.0,0.0,0.0,0.0,0.0,0.0,0.0,0.0,0.0,0.0,0.0,0.0,0.0,0.0,0.0,0.0,0.0,-4.2425,-4.2232,-4.1515,-4.1155,-4.1137,-4.0562,-4.0184,-4.0004,-4.0004,-3.959,-3.8974,0.0,-3.8561,-3.8088,0.0,0.0,0.0,0.0,0.0,0.0,0.0,0.0,0.0,0.0,-3.8702,-3.8686,-3.8825,-3.8741,-3.874,-3.9362,-3.8863,-3.827,-3.8701,-3.8606,-3.8286,-3.7578,-3.8197,-3.8351,-3.6383,-3.6554,-3.6862,0.0,0.0,0.0,-3.7315,-3.8321,0.0,-3.9088,-3.8908,0.0,-3.7547,0.0,-3.5941,-3.492,-3.4823,0.0,0.0,-3.4823,-3.4823,-3.4823,-3.5196,-3.5473,-3.5617,-3.6386,-3.6855,-3.6988,-3.7947,-3.8914,-3.9594,-3.9697,-3.9697,-3.9697,-3.9697,-3.9697,-3.9697,-3.9697,-3.9697,-3.9697,-3.9697,-3.9697,-3.9697,-3.9697,-3.989,-4.0185,-4.0389,-4.1272,-4.2598,0.0,0.0,0.0,0.0,0.0,0.0,0.0,0.0,0.0,0.0,0.0,0.0,0.0,0.0,0.0,0.0,0.0,0.0,0.0,0.0,0.0,0.0,0.0,0.0,0.0,0.0,0.0,0.0,0.0,0.0,0.0,-4.1998,-4.1841,-4.1823,-4.1438,-4.1063,-4.0739,-4.0739,0.0,0.0,0.0,0.0,0.0,0.0,0.0,0.0,0.0,0.0,0.0,0.0,0.0,-3.8631,-3.8831,-3.8876,-3.8831,-3.8783,0.0,-3.88,-3.8987,-3.8518,-3.7943,-3.8116,-3.8059,-3.7844,-3.7134,-3.7738,-3.8049,-3.672,-3.6955,0.0,-3.6798,0.0,0.0,0.0,0.0,0.0,-3.9482,-3.9758,-3.954,0.0,-3.7507,0.0,-3.5571,-3.5017,-3.4823,0.0,-3.4823,-3.4931,-3.516,-3.5461,-3.5833,-3.629,-3.6892,-3.7416,-3.7855,-3.8693,-3.927,-3.9697,-3.9697,-3.9697,-3.9697,-3.9697,-3.9823,-4.0061,0.0,-4.0187,-4.0413,-4.0413,-4.0413,-4.0413,-4.0413,-4.061,-4.1014,-4.1234,-4.2409,-4.4152,0.0,0.0,0.0,0.0,0.0,0.0,0.0,0.0,0.0,0.0,0.0,0.0,0.0,0.0,0.0,0.0,0.0,0.0,0.0,0.0,0.0,0.0,0.0,0.0,0.0,0.0,0.0,0.0,0.0,0.0,0.0,0.0,0.0,0.0,0.0,0.0,0.0,0.0,0.0,0.0,0.0,0.0,0.0,0.0,0.0,0.0,0.0,0.0,0.0,0.0,-3.9652,-3.8787,-3.8784,-3.8973,-3.9037,-3.8367,-3.8606,-3.8941,-3.8084,-3.7812,-3.7711,-3.7121,-3.706,-3.6984,-3.6616,-3.7076,-3.7537,-3.7079,0.0,-3.7946,-3.7609,-3.7653,-3.7853,-3.7927,0.0,-3.9736,-3.9524,-4.0416,-4.0546,-3.9387,-3.8328,-3.7428,-3.6414,-3.5453,-3.4931,-3.4931,-3.5004,-3.5208,-3.5593,-3.5749,-3.6278,-3.7264,-3.73,-3.783,-3.8841,-3.9154,-3.9478,-3.9697,-3.9697,-3.9697,-3.9697,-3.9772,-4.0061,-4.0513,-4.0588,0.0,-4.1342,-4.1342,-4.1342,-4.1342,-4.1342,-4.1651,-4.2182,-4.2368,-4.3921,-4.5943,0.0,0.0,0.0,0.0,0.0,0.0,0.0,0.0,0.0,0.0,-4.6791,-4.5714,0.0,0.0,0.0,0.0,0.0,0.0,0.0,0.0,0.0,0.0,0.0,0.0,0.0,0.0,0.0,0.0,0.0,0.0,0.0,0.0,0.0,0.0,0.0,0.0,0.0,0.0,0.0,0.0,0.0,0.0,0.0,0.0,0.0,0.0,0.0,0.0,0.0,0.0,-3.9919,-3.9829,-3.9771,-3.9497,-3.9043,-3.8188,-3.7873,-3.7679,-3.7519,-3.7476,-3.7417,-3.706,-3.7389,-3.7551,-3.6662,-3.7783,0.0,0.0,-3.7908,-3.8657,-3.8301,-3.7949,-3.8001,-3.8531,0.0,0.0,0.0,0.0,-4.0845,0.0,0.0,0.0,0.0,0.0,0.0,0.0,0.0,-3.5978,-3.5629,-3.6447,-3.7204,-3.7829,-3.8065,-3.8428,-3.8841,-3.9154,-3.9478,-3.9697,-3.9697,-3.9697,-3.971,-4.0162,-4.0425,-4.0538,-4.1003,0.0,-4.1342,-4.1342,-4.1342,-4.1342,-4.1342,-4.1651,-4.2275,-4.3243,-4.4043,-4.5011,0.0,0.0,0.0,0.0,0.0,0.0,0.0,-4.875,-4.8453,-4.7657,-4.6842,-4.5879,-4.4703,-4.4202,-4.3929,0.0,0.0,0.0,0.0,0.0,0.0,0.0,0.0,0.0,0.0,0.0,0.0,0.0,0.0,0.0,0.0,0.0,0.0,0.0,0.0,0.0,0.0,0.0,0.0,0.0,0.0,0.0,0.0,0.0,0.0,0.0,0.0,0.0,0.0,0.0,-4.0336,-4.0294,-3.9699,-3.8903,-3.8197,-3.7754,-3.7535,-3.7358,-3.721,-3.721,-3.7183,-3.7251,-3.7498,-3.7638,-3.7573,0.0,0.0,0.0,-3.8467,-3.8796,-3.8938,0.0,0.0,0.0,0.0,0.0,0.0,0.0,0.0,0.0,0.0,0.0,0.0,0.0,0.0,0.0,0.0,-3.6699,-3.6459,-3.718,-3.7826,-3.8198,-3.8526,-3.8736,-3.905,-3.9374,-3.9581,-3.9697,-3.9697,-3.9848,-4.0136,-4.0388,-4.0827,-4.1392,-4.1656,0.0,-4.2195,-4.2195,-4.2195,-4.2183,-4.2292,-4.3028,-4.3952,-4.4649,-4.5742,-4.6993,0.0,0.0,0.0,0.0,0.0,0.0,0.0,-4.8587,-4.8365,-4.7737,-4.6962,-4.6239,-4.5645,-4.4568,-4.3851,0.0,0.0,0.0,0.0,0.0,0.0,0.0,0.0,0.0,0.0,0.0,0.0,0.0,0.0,0.0,0.0,0.0,0.0,0.0,0.0,0.0,0.0,0.0,0.0,0.0,0.0,0.0,0.0,0.0,0.0,0.0,0.0,0.0,0.0,0.0,-4.0534,-4.0271,-3.9348,-3.8423,-3.7637,-3.7519,-3.7358,-3.7134,-3.6923,-3.6986,-3.7157,-3.7432,-3.7615,-3.7846,-3.8319,-3.8402,0.0,0.0,-3.8892,-3.8993,-3.932,0.0,0.0,0.0,0.0,0.0,0.0,0.0,0.0,0.0,0.0,0.0,0.0,0.0,0.0,0.0,0.0,0.0,-3.736,-3.7757,-3.8092,-3.8409,-3.8631,-3.8945,-3.9258,-3.9581,-3.9697,-3.9697,-3.9697,-3.9986,-4.0513,-4.0639,-4.1229,-4.2158,-4.2283,0.0,0.0,-4.2974,-4.2974,-4.2974,-4.3283,-4.4235,-4.5608,-4.6123,-4.7462,-4.9184,0.0,0.0,0.0,0.0,0.0,0.0,0.0,-4.8587,-4.8569,-4.8495,-4.7774,-4.7222,-4.7095,-4.5137,-4.3804,0.0,0.0,0.0,0.0,0.0,0.0,0.0,0.0,0.0,0.0,0.0,0.0,0.0,0.0,0.0,0.0,0.0,0.0,0.0,0.0,0.0,0.0,0.0,0.0,0.0,0.0,0.0,0.0,0.0,0.0,0.0,0.0,0.0,0.0,0.0,0.0,-3.9489,-3.9242,-3.8794,-3.8351,-3.7985,0.0,0.0,-3.6554,-3.7001,-3.7479,-3.7492,-3.7969,-3.8365,-3.8264,0.0,0.0,-3.8756,-3.9184,-3.955,-3.9409,0.0,0.0,0.0,0.0,-4.0242,0.0,0.0,0.0,0.0,0.0,0.0,0.0,0.0,0.0,0.0,0.0,0.0,-3.7914,-3.795,-3.8092,-3.8409,-3.8631,-3.8945,-3.9258,-3.9581,-3.9697,-3.9697,-3.9697,-3.9986,-4.0538,-4.1028,-4.1593,-4.2183,-4.2685,0.0,0.0,-4.2974,-4.2974,-4.2974,-4.3283,-4.4235,-4.5714,-4.6943,-4.8168,-4.9281,0.0,0.0,0.0,0.0,0.0,0.0,-4.842,-4.842,-4.842,-4.842,-4.7721,-4.7224,-4.7187,-4.5901,-4.4869,-4.4391,0.0,0.0,0.0,0.0,0.0,0.0,0.0,0.0,0.0,0.0,0.0,0.0,0.0,0.0,0.0,0.0,0.0,0.0,0.0,0.0,0.0,0.0,0.0,0.0,0.0,0.0,0.0,0.0,0.0,0.0,0.0,0.0,0.0,0.0,0.0,0.0,-3.9799,-3.9648,0.0,0.0,-3.7597,-3.7561,-3.7218,-3.752,-3.8054,-3.8534,-3.8723,-3.891,-3.936,0.0,0.0,-3.936,-3.9444,-3.9481,-3.9409,0.0,0.0,0.0,0.0,0.0,0.0,0.0,0.0,0.0,0.0,0.0,0.0,0.0,0.0,0.0,0.0,0.0,-3.9,-3.8384,-3.8198,-3.8631,-3.8736,-3.905,-3.9581,-3.9697,-3.9697,-3.9697,-4.0036,-4.0475,-4.1028,-4.158,-4.2133,-4.266,-4.2886,0.0,0.0,-4.2974,-4.2974,-4.3085,-4.4248,-4.5369,-4.6605,-4.8282,-4.9455,-5.0419,0.0,0.0,0.0,0.0,0.0,-4.8306,-4.8306,-4.8306,-4.8306,-4.8306,-4.7829,-4.7462,-4.7462,-4.6746,-4.603,-4.548,-4.4435,0.0,0.0,0.0,0.0,0.0,0.0,0.0,0.0,0.0,-4.0436,-4.037,-4.037,0.0,0.0,0.0,0.0,0.0,0.0,0.0,0.0,0.0,0.0,0.0,0.0,0.0,0.0,0.0,0.0,0.0,0.0,0.0,0.0,0.0,0.0,0.0,0.0,0.0,0.0,0.0,-3.8252,-3.8497,-3.7769,-3.8014,-3.8574,-3.9198,-3.9352,-3.9419,0.0,0.0,0.0,-3.961,-3.9481,-3.9484,-3.9679,0.0,0.0,0.0,0.0,-4.1082,0.0,0.0,0.0,0.0,0.0,0.0,0.0,0.0,0.0,0.0,0.0,0.0,0.0,-3.9494,-3.9,-3.8841,-3.8945,-3.9154,-3.9697,-3.9697,-3.9697,-3.9697,-4.0249,-4.0802,-4.1354,-4.1907,-4.2459,-4.2974,-4.2974,0.0,0.0,-4.2974,-4.3184,-4.3615,-4.498,-4.6306,-4.7735,-4.9106,-5.0316,-5.1214,0.0,0.0,0.0,0.0,0.0,0.0,-4.8306,-4.8306,-4.8306,-4.8306,-4.8306,-4.8306,-4.8306,-4.759,-4.7095,-4.7095,-4.5535,0.0,0.0,0.0,0.0,0.0,0.0,0.0,0.0,0.0,-4.0238,-4.0121,-4.0121,-4.0121,-4.0121,-4.0121,0.0,0.0,0.0,0.0,0.0,0.0,0.0,0.0,0.0,0.0,0.0,0.0,0.0,0.0,0.0,0.0,0.0,0.0,0.0,0.0,0.0,0.0,0.0,0.0,-3.9055,-3.8997,-3.8132,-3.8463,-3.8994,-3.9009,-3.951,-3.991,0.0,0.0,-3.9625,-3.9409,-3.9424,-3.9619,-4.0277,-4.0099,0.0,0.0,0.0,0.0,0.0,0.0,0.0,0.0,0.0,0.0,0.0,0.0,0.0,0.0,0.0,0.0,0.0,-4.1604,-4.0718,-3.8841,-3.9154,-3.9478,-3.9697,-3.9697,-3.9697,-3.9697,-4.0249,-4.0802,-4.1354,-4.1907,-4.2459,0.0,0.0,0.0,0.0,-4.2974,-4.3615,-4.4778,-4.5302,-4.684,-4.8894,-4.9415,-5.0316,-5.1214,0.0,0.0,0.0,0.0,0.0,0.0,0.0,-4.8306,-4.8306,-4.8306,-4.8306,-4.8306,-4.8306,-4.8027,-4.7842,-4.7842,-4.6377,0.0,0.0,0.0,0.0,0.0,0.0,0.0,0.0,0.0,-4.0138,-4.007,-4.007,-4.007,-4.007,-3.9986,-3.9986,0.0,0.0,0.0,0.0,0.0,0.0,0.0,0.0,0.0,0.0,0.0,0.0,0.0,0.0,0.0,0.0,0.0,0.0,0.0,0.0,0.0,0.0,-4.0578,0.0,0.0,-3.8984,-3.9092,-3.9536,-3.9622,-3.9632,-3.964,-3.9696,0.0,-3.9616,-3.9993,-4.0083,-4.0218,-4.0815,-4.0985,0.0,0.0,0.0,0.0,0.0,0.0,0.0,0.0,0.0,0.0,0.0,0.0,0.0,0.0,0.0,0.0,0.0,-4.2461,-4.1874,-4.1293,-4.1392,-4.1505,-4.1828,-4.1828,-4.1828,-4.1828,-4.2809,-4.2981,-4.2394,-4.3454,-4.3559,0.0,0.0,0.0,0.0,-4.2974,-4.3615,-4.4778,-4.6096,-4.7545,-4.8993,-5.022,-5.0917,-5.1214,0.0,0.0,0.0,0.0,0.0,0.0,0.0,-4.8306,-4.8306,-4.8306,-4.8306,-4.8267,-4.8286,-4.8226,-4.8187,-4.813,-4.7001,0.0,0.0,0.0,0.0,0.0,0.0,0.0,0.0,-4.1118,-4.0813,-4.0778,-4.0778,-4.0778,-4.0778,-4.0673,-4.0673,-4.0778,-4.0725,0.0,0.0,0.0,0.0,0.0,0.0,0.0,-4.166,0.0,0.0,0.0,0.0,0.0,0.0,0.0,0.0,0.0,0.0,0.0,0.0,0.0,-4.1039,-4.0877,0.0,-3.938,-3.9625,-3.9711,-3.9568,0.0,0.0,0.0,-3.9978,-4.0636,-4.0771,-4.098,-4.1486,-4.1622,0.0,0.0,0.0,0.0,0.0,0.0,0.0,0.0,0.0,0.0,0.0,0.0,0.0,0.0,0.0,0.0,0.0,-4.3829,-4.364,-4.3735,-4.2958,-4.2682,-4.2792,-4.2792,-4.2792,-4.2806,-4.3986,-4.3961,-4.2906,-4.416,-4.4357,0.0,0.0,0.0,0.0,-4.4235,-4.4872,-4.6032,-4.7238,-4.8482,-4.9625,-5.0728,-5.1214,-5.1214,0.0,0.0,0.0,0.0,0.0,0.0,0.0,-4.8306,-4.8306,-4.8306,-4.8306,-4.8286,-4.8187,-4.8206,-4.8108,-4.7951,0.0,0.0,0.0,0.0,0.0,0.0,0.0,0.0,-4.2173,-4.2139,-4.1997,-4.1904,-4.1904,-4.1904,-4.1904,-4.1904,-4.1904,-4.1921,-4.1997,-4.1997,0.0,0.0,0.0,0.0,0.0,0.0,0.0,0.0,0.0,0.0,0.0,0.0,0.0,0.0,0.0,0.0,0.0,0.0,0.0,0.0,0.0,0.0,0.0,-3.9424,0.0,0.0,0.0,0.0,0.0,0.0,0.0,-4.1309,-4.1444,-4.1654,-4.2312,-4.2041,0.0,0.0,0.0,0.0,0.0,0.0,0.0,0.0,0.0,0.0,0.0,0.0,0.0,0.0,0.0,0.0,0.0,-4.5504,-4.5595,-4.588,-4.4045,-4.2985,-4.2985,-4.2985,-4.2985,-4.2999,-4.4242,-4.4199,-4.3152,-4.4255,-4.4781,0.0,0.0,0.0,0.0,-4.6333,-4.6971,-4.8021,-4.861,-4.9542,-5.0596,-5.1041,-5.1214,-5.1214,0.0,0.0,0.0,0.0,0.0,0.0,0.0,0.0,0.0,0.0,-4.8247,-4.8226,-4.8187,-4.8046,-4.7783,0.0,0.0,0.0,0.0,0.0,0.0,0.0,0.0,0.0,-4.2964,-4.2299,-4.1904,-4.1904,-4.1904,-4.1904,-4.1904,-4.1827,-4.181,-4.1921,-4.181,-4.181,0.0,0.0,0.0,0.0,0.0,0.0,0.0,0.0,0.0,0.0,-4.3635,-4.3578,0.0,0.0,0.0,0.0,0.0,0.0,0.0,0.0,-4.1917,-4.1327,-4.0478,0.0,-3.9544,-4.0053,-4.0172,-4.0337,0.0,0.0,-4.1339,-4.1998,0.0,-4.2249,-4.2589,0.0,0.0,0.0,0.0,0.0,0.0,0.0,0.0,0.0,0.0,0.0,0.0,0.0,0.0,0.0,0.0,0.0,0.0,-4.579,-4.579,-4.588,-4.5398,-4.5201,-4.5201,-4.5201,-4.5201,-4.5216,-4.5895,-4.567,-4.4719,-4.5451,-4.5627,0.0,0.0,0.0,-4.6333,-4.6333,-4.6971,-4.8021,-4.861,-4.9542,-5.0596,-5.1041,-5.1214,-5.1214,0.0,0.0,0.0,0.0,0.0,0.0,0.0,0.0,0.0,0.0,0.0,0.0,0.0,0.0,0.0,0.0,0.0,0.0,0.0,0.0,0.0,0.0,0.0,-4.3665,-4.3511,-4.3069,-4.2756,-4.2682,-4.2682,-4.2682,-4.2682,-4.2584,-4.2641,-4.2682,-4.2584,-4.2641,0.0,0.0,0.0,0.0,-4.3344,0.0,0.0,0.0,0.0,0.0,-4.3998,-4.3939,0.0,-4.3864,-4.3805,-4.3763,0.0,0.0,0.0,0.0,-4.2558,-4.228,-4.1186,-4.039,-3.9963,-4.0307,-4.0621,-4.1025,-4.1683,0.0,0.0,0.0,0.0,0.0,0.0,0.0,0.0,0.0,0.0,0.0,0.0,0.0,0.0,0.0,0.0,0.0,0.0,0.0,0.0,0.0,0.0,0.0,0.0,-4.588,-4.588,-4.588,-4.588,-4.588,-4.588,-4.588,-4.588,-4.5895,-4.6519,-4.6254,-4.52,-4.5775,-4.5929,0.0,0.0,0.0,-4.7371,-4.7558,-4.8155,-4.905,-4.9513,-5.0124,-5.0662,-5.1026,-5.1214,-5.1214,0.0,0.0,0.0,0.0,0.0,0.0,0.0,0.0,0.0,0.0,0.0,0.0,0.0,0.0,0.0,0.0,0.0,0.0,0.0,0.0,0.0,0.0,0.0,-4.4155,-4.3898,-4.3898,-4.3763,-4.3628,-4.3628,-4.3628,-4.3628,-4.3628,-4.3628,-4.3628,-4.3628,-4.3687,0.0,0.0,0.0,0.0,-4.3998,0.0,0.0,0.0,0.0,0.0,0.0,0.0,0.0,-4.3628,-4.3628,-4.3628,-4.3628,0.0,0.0,0.0,0.0,0.0,-4.2077,-4.1207,-4.0696,-4.0696,-4.1115,-4.1713,-4.2357,0.0,0.0,0.0,0.0,0.0,0.0,0.0,0.0,0.0,0.0,0.0,0.0,0.0,0.0,0.0,0.0,0.0,0.0,0.0,0.0,0.0,0.0,0.0,0.0,-4.588,-4.588,-4.588,-4.588,-4.588,-4.588,-4.588,-4.588,-4.5895,-4.6432,-4.6203,-4.5345,-4.5839,-4.6121,-4.6206,0.0,0.0,-4.858,-4.8851,-4.9326,-5.0022,-5.0484,-5.0718,-5.0807,-5.112,-5.1154,-5.105,0.0,0.0,0.0,0.0,0.0,0.0,0.0,0.0,0.0,0.0,0.0,0.0,0.0,0.0,0.0,0.0,0.0,0.0,0.0,0.0,0.0,0.0,-4.3956,-4.3956,-4.3898,-4.3763,-4.3628,-4.3628,-4.3628,-4.3628,-4.3628,-4.3628,-4.3628,-4.3628,-4.3628,-4.3628,-4.3628,-4.3628,-4.3628,-4.3628,-4.3687,0.0,0.0,0.0,0.0,0.0,0.0,0.0,0.0,-4.3628,-4.3628,-4.3628,-4.3628,0.0,0.0,0.0,0.0,0.0,-4.3299,-4.2683,-4.2058,-4.2058,-4.2132,-4.2387,0.0,0.0,0.0,0.0,0.0,0.0,0.0,0.0,0.0,0.0,0.0,0.0,0.0,0.0,0.0,0.0,0.0,0.0,0.0,0.0,0.0,0.0,0.0,0.0,0.0,-4.588,-4.588,-4.588,-4.588,-4.588,-4.588,-4.588,-4.588,-4.588,-4.5982,-4.5935,-4.5844,-4.5931,-4.6172,-4.6677,0.0,-4.7145,-4.7927,-4.8194,-4.8653,-4.9333,-4.9833,-5.0347,-5.0807,-5.112,-5.087,-5.0316,0.0,0.0,0.0,0.0,0.0,0.0,0.0,0.0,0.0,0.0,0.0,0.0,0.0,0.0,0.0,0.0,0.0,0.0,0.0,0.0,0.0,-4.3763,-4.3763,-4.3763,-4.3763,-4.3628,-4.3628,-4.3628,-4.3628,-4.3628,-4.3628,-4.3628,-4.3628,-4.3628,-4.3628,-4.3628,-4.3628,-4.3628,-4.3628,-4.3628,0.0,0.0,0.0,0.0,0.0,0.0,0.0,0.0,0.0,0.0,-4.3876,-4.4191,-4.4191,0.0,0.0,0.0,0.0,0.0,-4.4234,-4.382,-4.3395,-4.2959,-4.2895,-4.297,0.0,0.0,0.0,0.0,0.0,0.0,0.0,0.0,0.0,0.0,0.0,0.0,0.0,0.0,0.0,0.0,0.0,0.0,0.0,0.0,0.0,0.0,0.0,0.0,0.0,0.0,-4.588,-4.588,-4.588,-4.588,-4.588,-4.588,-4.588,-4.588,-4.588,-4.588,-4.588,-4.588,-4.604,-4.6316,0.0,-4.6679,-4.7259,-4.7721,-4.8179,-4.886,-4.9352,-4.9714,-5.0075,-5.0393,-5.0259,-4.9884,0.0,0.0,0.0,0.0,0.0,0.0,0.0,0.0,0.0,0.0,0.0,0.0,0.0,0.0,0.0,0.0,0.0,0.0,0.0,0.0,-4.3822,-4.3628,-4.3628,-4.3628,-4.3628,-4.3628,-4.3628,-4.3628,-4.3628,-4.3628,-4.3628,-4.3628,-4.3628,-4.3628,-4.3628,-4.3628,-4.3628,-4.3628,-4.3628,-4.3628,0.0,0.0,0.0,0.0,0.0,0.0,0.0,0.0,0.0,0.0,0.0,0.0,0.0,0.0,0.0,-4.6046,-4.5865,-4.5576,-4.5033,-4.4557,-4.4066,-4.3472,0.0,0.0,0.0,0.0,0.0,0.0,0.0,0.0,0.0,0.0,0.0,0.0,0.0,0.0,0.0,0.0,0.0,0.0,0.0,0.0,0.0,0.0,0.0,0.0,0.0,0.0,0.0,0.0,-4.588,-4.588,-4.588,-4.588,-4.588,-4.588,-4.588,-4.588,-4.588,-4.588,-4.588,-4.588,-4.588,-4.588,-4.588,-4.6156,-4.6606,-4.7151,-4.7715,-4.829,-4.885,-4.9134,-4.9374,-4.9674,-4.9674,-4.9509,0.0,0.0,0.0,0.0,0.0,0.0,0.0,0.0,0.0,0.0,0.0,0.0,0.0,0.0,0.0,0.0,0.0,0.0,0.0,0.0,-4.3822,-4.3628,-4.3628,-4.3628,-4.3628,-4.3628,-4.3628,-4.3628,-4.3628,-4.3628,-4.3628,-4.3628,-4.3628,-4.3628,-4.3628,-4.3628,-4.3628,-4.3628,-4.3628,-4.3628,-4.3628,0.0,0.0,0.0,0.0,0.0,0.0,0.0,0.0,0.0,0.0,0.0,0.0,0.0,-4.6825,-4.6825,-4.628,-4.569,-4.5634,-4.4555,-4.3409,-4.3329,-4.3329,0.0,-4.3329,-4.3329,0.0,-4.3329,0.0,0.0,0.0,0.0,0.0,0.0,0.0,0.0,0.0,0.0,0.0,0.0,0.0,0.0,0.0,0.0,0.0,0.0,0.0,0.0,0.0,0.0,0.0,-4.588,-4.588,-4.588,-4.588,-4.588,-4.588,-4.588,-4.588,-4.588,-4.588,-4.588,-4.588,-4.588,-4.588,-4.5909,-4.6043,-4.6491,-4.7051,-4.7716,-4.8179,-4.873,-4.9329,-4.9372,-4.9042,-4.8608,0.0,0.0,0.0,0.0,0.0,0.0,0.0,0.0,0.0,0.0,0.0,0.0,0.0,0.0,0.0,0.0,0.0,0.0,0.0,0.0,-4.3687,-4.3628,-4.3628,-4.3628,-4.3628,-4.3628,-4.3628,-4.3628,-4.3628,-4.3628,-4.3628,-4.3628,-4.3628,-4.3628,-4.3628,-4.3628,-4.3628,-4.3628,-4.3628,-4.3628,-4.3628,-4.3628,0.0,0.0,0.0,0.0,0.0,0.0,0.0,0.0,-4.5864,-4.6477,0.0,-4.699,-4.7587,-4.7587,-4.699,-4.6253,-4.5841,-4.4887,-4.3927,-4.3394,-4.3329,0.0,0.0,-4.3329,-4.3329,-4.3329,-4.3329,0.0,0.0,0.0,0.0,0.0,0.0,0.0,0.0,0.0,0.0,0.0,0.0,0.0,0.0,0.0,0.0,0.0,0.0,0.0,0.0,0.0,0.0,-4.588,-4.588,-4.588,-4.588,-4.588,-4.588,-4.588,-4.588,-4.588,-4.588,-4.588,-4.588,-4.588,-4.588,-4.597,-4.6135,-4.6506,-4.6816,-4.7214,-4.7581,-4.7833,-4.8042,-4.8025,-4.792,-4.7698,0.0,0.0,0.0,0.0,0.0,0.0,0.0,0.0,0.0,0.0,0.0,0.0,0.0,0.0,0.0,0.0,0.0,0.0,-4.3839,-4.3704,-4.3628,-4.3628,-4.3628,-4.3628,-4.3628,-4.3628,-4.3628,-4.3628,-4.3628,-4.3628,-4.3628,-4.3628,-4.3628,-4.3628,-4.3628,-4.3628,-4.3628,-4.3628,-4.3628,-4.3628,-4.3628,-4.3761,0.0,0.0,0.0,0.0,0.0,0.0,0.0,0.0,-4.6626,-4.7255,0.0,0.0,0.0,-4.8001,-4.7404,-4.6673,-4.6182,-4.5316,-4.4373,0.0,0.0,0.0,-4.3329,-4.3329,-4.3329,-4.3329,-4.3329,0.0,0.0,0.0,0.0,0.0,0.0,0.0,0.0,0.0,0.0,0.0,0.0,0.0,0.0,0.0,0.0,0.0,0.0,0.0,0.0,0.0,0.0,0.0,-4.588,-4.588,-4.588,-4.588,-4.588,-4.588,-4.588,-4.588,-4.588,-4.588,-4.588,-4.588,-4.597,-4.6046,-4.621,-4.658,-4.6858,-4.7019,-4.7207,-4.7309,-4.7309,-4.7309,-4.7309,-4.7309,0.0,0.0,0.0,0.0,0.0,0.0,0.0,0.0,0.0,0.0,0.0,0.0,0.0,0.0,0.0,0.0,0.0,0.0,-4.3628,-4.3628,-4.3628,-4.3628,-4.3628,-4.3628,-4.3628,-4.3628,-4.3628,-4.3628,-4.3628,-4.3628,-4.3628,-4.3628,-4.3628,-4.3628,-4.3628,-4.3628,-4.3628,-4.3628,-4.3628,-4.3628,-4.3628,-4.4059,-4.4688,0.0,0.0,0.0,0.0,0.0,0.0,0.0,-4.7404,-4.8001,0.0,0.0,0.0,0.0,-4.7404,-4.6811,-4.6811,-4.5665,-4.451,0.0,0.0,0.0,0.0,0.0,0.0,0.0,0.0,0.0,0.0,0.0,0.0,0.0,0.0,0.0,0.0,0.0,0.0,0.0,0.0,0.0,0.0,0.0,0.0,0.0,0.0,0.0,0.0,0.0,0.0,0.0,-4.588,-4.588,-4.588,-4.588,-4.588,-4.588,-4.588,-4.588,-4.588,-4.588,-4.588,-4.588,-4.6135,-4.621,-4.621,-4.6741,-4.7019,-4.7309,-4.7309,-4.7309,-4.7309,-4.7309,-4.7309,-4.7309,0.0,0.0,0.0,0.0,0.0,0.0,0.0,0.0,0.0,0.0,0.0,0.0,0.0,0.0,0.0,0.0,0.0,0.0,-4.3628,-4.3628,-4.3628,-4.3628,-4.3628,-4.3628,-4.3628,-4.3628,-4.3628,-4.3628,-4.3628,-4.3628,-4.3628,-4.3628,-4.3628,-4.3628,-4.3628,-4.3628,-4.3628,-4.3628,-4.3628,-4.3678,-4.4175,-4.4489,-4.4754,0.0,0.0,0.0,0.0,0.0,0.0,0.0,0.0,0.0,0.0,0.0,0.0,-4.8001,-4.7404,-4.6673,-4.6182,-4.5243,0.0,0.0,0.0,0.0,0.0,0.0,0.0,0.0,0.0,0.0,0.0,0.0,0.0,0.0,0.0,0.0,0.0,0.0,0.0,0.0,0.0,0.0,0.0,0.0,0.0,0.0,0.0,0.0,0.0,0.0,0.0,0.0,-4.6417,-4.6417,-4.6417,-4.6417,-4.6328,-4.6135,-4.6135,-4.606,-4.588,-4.588,-4.588,-4.588,-4.6135,-4.6314,-4.6506,-4.7033,-4.7207,-4.7309,-4.7309,-4.7309,-4.7309,-4.7309,-4.7309,-4.7309,0.0,0.0,0.0,0.0,0.0,0.0,0.0,0.0,0.0,0.0,0.0,0.0,0.0,0.0,0.0,0.0,0.0,0.0,0.0,0.0,-4.3628,-4.3628,-4.3628,-4.3628,-4.3628,-4.3628,-4.3628,-4.3628,-4.3628,-4.3628,-4.3628,-4.3628,-4.3628,-4.3628,-4.3628,-4.3628,-4.3628,-4.3628,-4.3794,-4.4092,-4.4506,-4.5036,-4.5616,0.0,0.0,0.0,0.0,0.0,0.0,0.0,0.0,0.0,0.0,0.0,0.0,-4.8001,-4.7638,-4.7118,-4.6324,0.0,0.0,0.0,0.0,0.0,0.0,0.0,0.0,0.0,0.0,0.0,0.0,0.0,0.0,0.0,0.0,0.0,0.0,0.0,0.0,0.0,0.0,0.0,0.0,0.0,0.0,0.0,0.0,0.0,0.0,0.0,0.0,0.0,-4.6594,-4.6594,-4.6594,-4.6594,-4.6506,-4.6403,-4.6403,-4.6328,-4.615,-4.597,-4.597,-4.606,-4.6299,-4.6668,-4.6858,-4.7207,-4.7309,-4.7309,-4.7309,-4.7309,-4.7309,-4.7309,-4.7309,-4.7309,0.0,0.0,0.0,0.0,0.0,0.0,0.0,0.0,0.0,0.0,0.0,0.0,0.0,0.0,0.0,0.0,0.0,0.0,0.0,0.0,-4.3628,-4.3628,-4.3628,-4.3628,-4.3628,-4.3628,-4.3628,-4.3628,-4.3628,-4.3628,-4.3628,-4.3628,-4.3628,-4.3628,-4.3628,-4.3628,-4.3628,-4.3694,-4.4092,-4.4705,-4.4837,-4.5698,-4.6908,-4.6974,0.0,0.0,0.0,0.0,0.0,0.0,0.0,0.0,-4.8001,0.0,-4.8001,-4.8001,-4.7935,-4.7704,-4.6896,0.0,0.0,0.0,0.0,0.0,0.0,0.0,0.0,0.0,0.0,0.0,0.0,0.0,0.0,0.0,0.0,0.0,0.0,0.0,0.0,0.0,0.0,0.0,0.0,0.0,0.0,0.0,0.0,0.0,0.0,0.0,0.0,-4.6683,-4.6683,-4.6683,-4.6683,-4.6683,-4.6683,-4.6594,-4.6594,-4.6594,-4.6594,-4.615,-4.6046,-4.6299,-4.6741,-4.7019,-4.7309,-4.7309,-4.7309,-4.7309,-4.7309,-4.7309,-4.7309,-4.7309,-4.7309,-4.7309,0.0,0.0,0.0,0.0,0.0,0.0,0.0,0.0,0.0,0.0,0.0,0.0,0.0,0.0,0.0,0.0,0.0,0.0,0.0,0.0,-4.3628,-4.3628,-4.3628,-4.3628,-4.3628,-4.3628,-4.3628,-4.3628,-4.3628,-4.3628,-4.3628,-4.3628,-4.3628,-4.3628,-4.3628,-4.3628,-4.3661,-4.4224,-4.4539,-4.4787,-4.5947,-4.6609,-4.6957,-4.7537,-4.7868,0.0,0.0,0.0,0.0,0.0,0.0,0.0,-4.8001,-4.8001,-4.8001,-4.8001,-4.7555,-4.6896,0.0,-4.539,0.0,0.0,0.0,0.0,0.0,0.0,0.0,0.0,0.0,0.0,0.0,0.0,0.0,0.0,0.0,0.0,0.0,0.0,0.0,0.0,0.0,0.0,0.0,0.0,0.0,0.0,0.0,0.0,0.0,0.0,0.0,-4.7121,-4.7121,-4.7121,-4.7121,-4.7121,-4.7033,0.0,-4.6844,-4.6756,-4.6594,-4.6506,-4.6594,-4.6756,-4.6829,-4.7019,-4.7309,-4.7309,-4.7309,-4.7309,-4.7309,-4.7309,-4.7309,-4.7309,-4.7309,-4.7309,0.0,0.0,0.0,0.0,0.0,0.0,0.0,0.0,0.0,0.0,0.0,0.0,0.0,0.0,0.0,0.0,0.0,0.0,0.0,0.0,0.0,-4.3628,-4.3628,-4.3628,-4.3628,-4.3628,-4.3628,-4.3628,-4.3628,-4.3628,-4.3628,-4.3628,-4.3628,-4.3628,-4.3628,-4.3628,-4.3678,-4.439,-4.4887,-4.5317,-4.6444,-4.7106,-4.7471,-4.7852,-4.8001,-4.8001,-4.8001,0.0,0.0,0.0,0.0,0.0,0.0,0.0,-4.8001,-4.8001,-4.7704,-4.7202,0.0,0.0,0.0,0.0,0.0,0.0,0.0,0.0,0.0,0.0,0.0,0.0,0.0,0.0,0.0,0.0,0.0,0.0,0.0,0.0,0.0,0.0,0.0,0.0,0.0,0.0,0.0,0.0,0.0,0.0,0.0,-4.7309,-4.7309,-4.7309,-4.7309,-4.7309,-4.7309,-4.7309,-4.7207,-4.7106,-4.7106,-4.7033,-4.6946,-4.6756,-4.6844,-4.6916,-4.7019,-4.7207,-4.7309,-4.7309,-4.7309,-4.7309,-4.7309,-4.7309,-4.7309,-4.7309,-4.7309,-4.7309,0.0,0.0,0.0,0.0,0.0,0.0,0.0,0.0,0.0,0.0,0.0,0.0,0.0,0.0,0.0,0.0,0.0,0.0,0.0,0.0,0.0,0.0,-4.3628,-4.3628,-4.3628,-4.3628,-4.3628,-4.3628,-4.3628,0.0,0.0,-4.3628,-4.3628,-4.3628,-4.3628,-4.3694,-4.386,-4.4572,-4.5301,-4.6046,-4.6792,-4.7454,-4.8001,-4.8001,-4.8001,-4.8001,-4.8001,-4.8001,-4.8001,-4.8001,0.0,0.0,0.0,0.0,-4.8001,-4.8001,-4.8001,-4.7787,0.0,0.0,0.0,0.0,0.0,0.0,0.0,0.0,0.0,0.0,0.0,0.0,0.0,0.0,0.0,0.0,0.0,0.0,0.0,0.0,0.0,0.0,0.0,0.0,0.0,0.0,0.0,0.0,0.0,0.0,-4.6935,-4.695,-4.695,-4.695,-4.695,-4.695,-4.695,-4.695,-4.695,-4.6965,-4.707,-4.713,-4.713,-4.7061,-4.6931,-4.7019,-4.7207,-4.7309,-4.7309,-4.7309,-4.7309,-4.7309,-4.7309,-4.7309,-4.7309,-4.7309,-4.7309,-4.7309,0.0,0.0,0.0,0.0,0.0,0.0,0.0,0.0,0.0,0.0,0.0,0.0,0.0,0.0,0.0,0.0,0.0,0.0,0.0,0.0,0.0,-4.3628,-4.3628,-4.3628,-4.3628,-4.3628,-4.3628,-4.3628,0.0,0.0,0.0,0.0,0.0,-4.3628,-4.3628,-4.3959,-4.4589,-4.5334,-4.6079,-4.6825,-4.7554,-4.7918,-4.8001,-4.8001,-4.8001,-4.8001,-4.8001,-4.8001,-4.8001,-4.8001,-4.8001,0.0,0.0,0.0,-4.8001,-4.8001,-4.8001,-4.7704,0.0,0.0,0.0,0.0,0.0,0.0,0.0,0.0,0.0,0.0,0.0,0.0,0.0,0.0,0.0,0.0,0.0,0.0,0.0,0.0,0.0,0.0,0.0,0.0,0.0,0.0,0.0,0.0,0.0,0.0,-4.5559,-4.5559,-4.5559,-4.5559,-4.5559,-4.5559,-4.5559,-4.5559,-4.5559,-4.5559,-4.6172,-4.6456,-4.6471,-4.6954,-4.7207,-4.7207,-4.7309,-4.7309,-4.7309,-4.7309,-4.7309,-4.7309,-4.7309,-4.7309,-4.7309,-4.7309,-4.7309,-4.7309,0.0,0.0,0.0,0.0,0.0,0.0,0.0,0.0,0.0,0.0,0.0,0.0,0.0,0.0,0.0,0.0,0.0,0.0,0.0,0.0,0.0,-4.3628,-4.3628,-4.3628,-4.3628,-4.3628,-4.3628,-4.3628,0.0,0.0,0.0,-4.3628,-4.3628,0.0,0.0,0.0,-4.4771,-4.5914,-4.6593,-4.6957,-4.7703,-4.8001,-4.8001,-4.8001,-4.8001,-4.8001,-4.8001,-4.8001,-4.8001,-4.8001,-4.8001,-4.8001,-4.8001,0.0,0.0,0.0,-4.8001,0.0,0.0,0.0,0.0,0.0,0.0,0.0,0.0,0.0,0.0,0.0,0.0,0.0,0.0,0.0,0.0,0.0,0.0,0.0,0.0,0.0,0.0,0.0,0.0,0.0,0.0,0.0,0.0,0.0,0.0,-4.49,-4.5274,-4.5289,-4.5289,-4.5289,-4.5289,-4.5289,-4.5289,-4.5289,-4.5289,-4.5289,-4.5603,-4.5753,-4.5753,-4.6037,-4.6591,-4.7309,-4.7309,-4.7309,-4.7309,-4.7309,-4.7309,-4.7309,-4.7309,-4.7309,-4.7309,-4.7309,-4.7309,-4.7309,0.0,0.0,0.0,0.0,0.0,0.0,0.0,0.0,0.0,0.0,0.0,0.0,0.0,0.0,0.0,0.0,0.0,0.0,0.0,0.0,0.0,-4.3628,-4.3628,-4.3628,-4.3628,-4.3628,-4.3628,0.0,0.0,0.0,-4.3628,-4.3628,-4.3628,0.0,-4.4373,-4.4787,0.0,0.0,0.0,-4.7222,-4.7785,-4.8001,-4.8001,-4.8001,-4.8001,-4.8001,-4.8001,-4.8001,-4.8001,-4.8001,-4.8001,-4.8001,-4.8001,-4.8001,0.0,0.0,0.0,0.0,0.0,0.0,0.0,0.0,0.0,0.0,0.0,0.0,0.0,0.0,0.0,0.0,0.0,0.0,0.0,0.0,0.0,0.0,0.0,0.0,0.0,0.0,0.0,0.0,0.0,0.0,0.0,0.0,0.0,-4.4272,-4.4766,-4.5026,-4.5107,-4.5107,-4.5107,-4.5107,-4.5107,-4.4862,-4.4796,-4.4796,-4.496,-4.505,-4.505,-4.5214,-4.5843,-4.68,-4.698,-4.7145,-4.7309,-4.7309,-4.7309,-4.7309,-4.7309,-4.7309,-4.7309,-4.7309,-4.7309,-4.7309,0.0,0.0,0.0,0.0,0.0,0.0,0.0,0.0,0.0,0.0,0.0,0.0,-4.3462,-4.3628,-4.3628,-4.3628,0.0,0.0,0.0,0.0,0.0,-4.3628,-4.3628,0.0,-4.3628,-4.3628,0.0,0.0,0.0,0.0,-4.3628,-4.3628,-4.3628,-4.3661,-4.4373,-4.5086,-4.5781,0.0,0.0,0.0,0.0,0.0,0.0,0.0,0.0,0.0,-4.8001,-4.8001,-4.8001,-4.8001,-4.8001,-4.8001,-4.8001,-4.8001,-4.8001,0.0,0.0,0.0,0.0,0.0,0.0,0.0,0.0,0.0,0.0,0.0,0.0,0.0,0.0,0.0,0.0,0.0,0.0,0.0,0.0,0.0,0.0,0.0,0.0,0.0,0.0,0.0,0.0,0.0,0.0,0.0,0.0,-4.3404,-4.3434,-4.4096,-4.4542,-4.4542,-4.4542,-4.4542,-4.4542,-4.3814,-4.3434,-4.3449,-4.4062,-4.4362,-4.4392,-4.5005,-4.5334,-4.5439,-4.6097,-4.6726,-4.7309,-4.7309,-4.7309,-4.7309,-4.7309,-4.7309,-4.7309,-4.7309,-4.7309,-4.7309,0.0,0.0,0.0,0.0,0.0,0.0,0.0,0.0,0.0,0.0,0.0,0.0,0.0,-4.3628,-4.3628,-4.3628,-4.3628,0.0,0.0,0.0,0.0,-4.3628,-4.3628,-4.3628,-4.3628,-4.3628,0.0,0.0,0.0,-4.3628,-4.3628,-4.3628,-4.386,-4.434,-4.5069,-4.5533,-4.5864,-4.709,0.0,0.0,0.0,0.0,0.0,0.0,0.0,0.0,0.0,0.0,0.0,0.0,-4.8001,-4.8001,-4.8001,-4.8001,-4.8001,-4.8001,-4.7787,0.0,0.0,0.0,0.0,0.0,0.0,0.0,0.0,0.0,0.0,0.0,0.0,0.0,0.0,0.0,0.0,0.0,0.0,0.0,0.0,0.0,0.0,0.0,0.0,0.0,0.0,0.0,0.0,0.0,0.0,0.0,-4.4812,-4.5227,-4.5374,-4.5258,-4.5258,-4.5258,-4.5258,-4.4434,-4.4066,-4.4082,-4.3792,-4.3688,-4.3688,-4.3928,-4.4272,-4.4676,-4.493,-4.5409,-4.6022,-4.6022,-4.6022,-4.6022,-4.6022,-4.6022,-4.6022,-4.6022,-4.6022,-4.6022,0.0,0.0,0.0,0.0,0.0,0.0,0.0,0.0,0.0,-4.1326,0.0,0.0,0.0,0.0,-4.3628,-4.3628,-4.3628,-4.3628,-4.3628,-4.3628,-4.3628,-4.3628,-4.3628,-4.3628,-4.3628,0.0,0.0,0.0,0.0,0.0,0.0,-4.3628,-4.3992,-4.4721,-4.5467,-4.593,0.0,0.0,0.0,-4.8001,0.0,0.0,-4.8001,0.0,0.0,0.0,0.0,0.0,0.0,0.0,0.0,0.0,-4.8001,-4.8001,-4.8001,-4.8001,0.0,0.0,0.0,0.0,0.0,0.0,0.0,0.0,0.0,0.0,0.0,0.0,0.0,0.0,0.0,0.0,0.0,0.0,0.0,0.0,0.0,0.0,0.0,0.0,0.0,0.0,0.0,0.0,0.0,0.0,0.0,0.0,-4.5809,-4.6205,-4.6292,-4.6182,-4.6198,-4.6056,-4.5697,-4.5184,-4.4737,-4.451,-4.3927,-4.3551,-4.3329,-4.3329,-4.3569,-4.3988,-4.3988,-4.4481,-4.5289,-4.5289,-4.5289,-4.5289,-4.5289,-4.5289,-4.5289,-4.5289,-4.5289,-4.5289,0.0,0.0,0.0,0.0,0.0,0.0,0.0,0.0,-4.0647,-4.1326,0.0,0.0,0.0,0.0,0.0,-4.3628,-4.3628,-4.3628,-4.3628,-4.3628,-4.3628,-4.3628,0.0,0.0,0.0,0.0,0.0,0.0,0.0,0.0,0.0,0.0,-4.4042,-4.4754,-4.5483,-4.6228,-4.6974,0.0,-4.8001,-4.8001,0.0,-4.8001,-4.8001,0.0,0.0,0.0,-4.8001,-4.8001,0.0,-4.8001,0.0,0.0,0.0,0.0,0.0,0.0,0.0,0.0,0.0,0.0,0.0,0.0,0.0,0.0,0.0,0.0,0.0,0.0,0.0,0.0,0.0,0.0,0.0,0.0,0.0,0.0,0.0,0.0,0.0,0.0,0.0,0.0,0.0,0.0,0.0,0.0,0.0,-4.6064,-4.6244,-4.6952,-4.7255,-4.7186,-4.7118,-4.6689,-4.5769,-4.5769,-4.5332,-4.451,-4.451,-4.4066,-4.3329,-4.3329,-4.3329,-4.3329,-4.3329,-4.4062,-4.5229,-4.5229,-4.5229,-4.5229,-4.5229,-4.5229,-4.5229,-4.5229,-4.5229,-4.5229,0.0,0.0,0.0,0.0,0.0,0.0,-3.9379,-4.0332,-4.1193,0.0,0.0,0.0,-4.3611,-4.3628,-4.3628,-4.3628,-4.3628,-4.3628,-4.3628,-4.3628,-4.3628,-4.3628,-4.3628,-4.3628,-4.3628,0.0,0.0,0.0,0.0,0.0,0.0,0.0,0.0,0.0,-4.6262,-4.7007,-4.7703,-4.7918,0.0,0.0,-4.8001,-4.8001,0.0,0.0,0.0,0.0,0.0,-4.8001,-4.8001,0.0,-4.8001,-4.8001,0.0,0.0,0.0,0.0,0.0,0.0,-4.8001,0.0,0.0,0.0,0.0,0.0,0.0,0.0,0.0,0.0,0.0,0.0,0.0,0.0,0.0,0.0,0.0,0.0,0.0,0.0,0.0,0.0,0.0,0.0,0.0,0.0,0.0,0.0,-4.6848,-4.7172,-4.7836,-4.8048,-4.8129,-4.8129,-4.7951,-4.7737,-4.7522,-4.6811,-4.6111,-4.5332,-4.4812,-4.4066,-4.3329,-4.3329,-4.3329,-4.3329,-4.3329,-4.3539,-4.3868,-4.3868,-4.3868,-4.3868,-4.3868,-4.3868,-4.3868,-4.3868,-4.3868,-4.3868,0.0,0.0,0.0,0.0,0.0,-3.9592,-3.9325,-4.0498,-4.1409,0.0,0.0,0.0,-4.3628,-4.3628,-4.3628,-4.3628,-4.3628,-4.3628,-4.3628,-4.3628,-4.3628,-4.3628,-4.3628,-4.3628,-4.3628,-4.391,0.0,0.0,0.0,0.0,0.0,0.0,0.0,0.0,0.0,0.0,0.0,0.0,0.0,0.0,-4.8001,0.0,0.0,-4.8001,-4.8001,0.0,0.0,0.0,-4.8001,-4.8001,-4.8001,0.0,0.0,0.0,0.0,0.0,0.0,0.0,0.0,0.0,0.0,0.0,0.0,0.0,-4.7337,-4.7337,0.0,0.0,0.0,0.0,0.0,0.0,0.0,0.0,0.0,0.0,0.0,0.0,0.0,0.0,0.0,0.0,0.0,0.0,0.0,-4.7737,-4.7901,-4.8161,-4.8673,-4.8673,-4.8673,-4.8627,-4.842,-4.8292,-4.8227,-4.7605,-4.6759,-4.5697,-4.5243,-4.4358,-4.3329,-4.3329,-4.3329,-4.3329,-4.3329,-4.3329,-4.3329,-4.3329,-4.3329,-4.3329,-4.3329,-4.3329,-4.3329,-4.3329,-4.3329,-4.3329,0.0,0.0,-4.0087,-3.9625,-3.9432,-3.9272,-3.9272,-4.0498,-4.1409,0.0,-4.27,-4.3628,-4.3628,-4.3628,-4.3628,-4.3628,-4.3628,-4.3628,-4.3628,-4.3628,-4.3628,-4.3628,-4.3628,-4.3628,-4.3628,-4.4241,0.0,0.0,0.0,0.0,0.0,0.0,0.0,0.0,0.0,0.0,0.0,0.0,0.0,-4.8001,-4.8001,-4.8001,0.0,0.0,-4.8001,-4.8001,-4.8001,-4.8001,-4.8001,-4.8001,-4.8001,0.0,0.0,0.0,0.0,0.0,-4.8001,0.0,0.0,0.0,0.0,0.0,0.0,0.0,-4.8001,-4.8001,-4.8001,0.0,0.0,0.0,0.0,0.0,0.0,0.0,0.0,0.0,0.0,0.0,0.0,0.0,0.0,0.0,0.0,-4.782,-4.8373,-4.8786,-4.8832,-4.8894,-4.9001,-4.9001,-4.8956,-4.8849,-4.8627,-4.842,-4.8227,-4.8066,-4.7218,-4.5697,-4.5697,-4.4887,-4.3329,-4.3329,-4.3329,-4.3329,-4.3329,-4.3329,-4.3329,-4.3329,-4.3329,-4.3329,-4.3329,-4.3329,-4.3329,-4.3329,-4.3329,-4.3329,0.0,0.0,-4.0153,-3.9919,-3.9556,-3.9272,-3.9272,-4.0498,-4.1409,-4.1409,-4.27,-4.3628,-4.3628,-4.3628,-4.3628,-4.3628,-4.3628,-4.3628,-4.3628,-4.3628,-4.3628,-4.3628,-4.3628,-4.3628,-4.3628,-4.3761,-4.3761,0.0,0.0,0.0,0.0,0.0,0.0,0.0,0.0,0.0,0.0,0.0,0.0,-4.8001,-4.8001,0.0,-4.8001,-4.8001,-4.8001,-4.8001,-4.8001,-4.8001,-4.8001,-4.8001,-4.8001,-4.8001,0.0,0.0,0.0,-4.8001,0.0,0.0,0.0,0.0,0.0,0.0,0.0,0.0,-4.8001,-4.8001,-4.8001,0.0,0.0,0.0,0.0,0.0,0.0,0.0,0.0,0.0,0.0,0.0,0.0,0.0,0.0,0.0,0.0,-4.8098,-4.8373,-4.8786,-4.8894,-4.894,-4.9001,-4.9001,-4.9001,-4.894,-4.8673,-4.8483,-4.842,-4.8115,-4.7218,-4.5697,-4.5697,-4.4887,-4.3329,-4.3329,-4.3329,-4.3329,-4.3329,-4.3329,-4.3329,-4.3329,-4.3329,-4.3329,-4.3329,-4.3329,-4.3329,-4.3329,-4.3329,-4.3329,0.0,-4.0607,-4.04,-3.9782,-3.9644,-3.954,-3.9325,-4.0498,-4.1409,-4.1409,-4.27,-4.3628,-4.3628,-4.3628,-4.3628,-4.3628,-4.3628,-4.3628,-4.3628,-4.3628,-4.3628,-4.3628,-4.3628,-4.3628,-4.3628,-4.3628,-4.3628,-4.3628,0.0,0.0,0.0,0.0,0.0,0.0,0.0,0.0,0.0,0.0,-4.8001,-4.8001,-4.8001,0.0,-4.8001,-4.8001,-4.8001,-4.8001,-4.8001,-4.8001,-4.8001,-4.8001,-4.8001,0.0,0.0,-4.8001,-4.8001,0.0,-4.8001,-4.8001,0.0,0.0,0.0,-4.8001,0.0,0.0,0.0,-4.8001,-4.8001,0.0,0.0,0.0,0.0,0.0,0.0,0.0,0.0,0.0,0.0,0.0,0.0,0.0,0.0,0.0,0.0,-4.8436,-4.8627,-4.8894,-4.894,-4.9001,-4.9001,-4.9001,-4.9001,-4.9001,-4.8753,-4.8627,-4.8483,-4.8244,-4.7253,-4.5697,-4.5697,-4.4887,-4.3329,-4.3329,-4.3329,-4.3329,-4.3329,-4.3329,-4.3329,-4.3329,-4.3329,-4.3329,-4.3329,-4.3329,-4.3329,-4.3329,-4.3329,-4.3329,-4.0368,-4.0546,-4.0497,-3.9468,-3.9592,-3.9731,-3.9379,-4.0382,-4.1359,-4.1789,-4.2999,-4.3827,-4.3827,-4.3711,-4.3628,-4.3628,-4.3628,-4.3628,-4.3628,-4.3628,-4.3628,-4.3628,-4.3628,-4.3628,-4.3628,-4.3628,-4.3628,-4.3628,0.0,0.0,0.0,0.0,0.0,0.0,0.0,0.0,0.0,0.0,0.0,-4.7802,0.0,-4.8001,-4.8001,-4.8001,-4.8001,-4.8001,-4.8001,-4.8001,-4.8001,-4.8001,-4.8001,-4.8001,-4.8001,-4.8001,0.0,0.0,0.0,0.0,0.0,0.0,0.0,0.0,0.0,-4.8001,0.0,0.0,0.0,0.0,0.0,0.0,0.0,0.0,0.0,0.0,0.0,0.0,0.0,0.0,0.0,0.0,0.0,0.0,0.0,-4.8707,-4.8894,-4.9001,-4.9001,-4.9001,-4.9001,-4.9001,-4.9001,-4.9001,-4.8894,-4.8707,-4.8483,-4.8292,-4.7388,-4.5697,-4.5697,-4.4887,-4.3329,-4.3329,-4.3329,-4.3329,-4.3329,-4.3329,-4.3329,-4.3329,-4.3329,-4.3329,-4.3329,-4.3329,-4.3329,-4.3329,-4.3329,-4.3329,-3.9781,-3.9969,-4.0103,-3.9415,-3.9309,-3.9379,-3.9325,-3.9967,-4.1193,-4.3115,-4.4075,-4.4572,0.0,0.0,0.0,0.0,0.0,0.0,-4.3628,0.0,-4.3628,-4.3628,-4.3628,-4.3628,-4.3628,-4.3628,-4.3628,-4.3628,0.0,0.0,0.0,0.0,0.0,0.0,-4.6319,0.0,0.0,0.0,-4.7135,0.0,-4.7736,-4.8001,0.0,-4.8001,-4.8001,-4.8001,-4.8001,-4.8001,-4.8001,0.0,-4.8001,-4.8001,0.0,-4.8001,-4.8001,0.0,0.0,0.0,0.0,0.0,0.0,0.0,-4.8001,0.0,0.0,0.0,0.0,0.0,0.0,0.0,0.0,0.0,0.0,0.0,0.0,0.0,0.0,0.0,0.0,0.0,0.0,0.0,0.0,0.0,-4.9001,-4.9001,-4.9001,-4.9001,-4.9001,-4.9001,-4.9001,-4.9001,-4.8894,-4.8707,-4.8483,-4.8292,-4.7388,-4.5697,-4.5697,-4.4887,-4.3329,-4.3329,-4.3329,-4.3329,-4.3329,-4.3329,-4.3329,-4.3329,-4.3329,-4.3329,-4.3329,-4.3329,-4.3329,-4.3329,-4.3329,-4.3329,-4.0269,-4.0319,-4.022,-3.952,-3.9609,-3.9696,-3.9379,-4.0613,-4.1939,0.0,0.0,0.0,0.0,0.0,0.0,0.0,0.0,-4.3628,0.0,0.0,-4.3628,-4.3628,-4.3628,-4.3628,-4.3628,-4.3628,-4.3628,-4.3763,-4.3763,0.0,0.0,0.0,0.0,0.0,-4.5939,0.0,-4.6362,0.0,-4.6666,0.0,0.0,0.0,0.0,-4.8001,-4.8001,-4.8001,-4.8001,-4.8001,-4.8001,0.0,-4.8001,0.0,0.0,0.0,0.0,0.0,0.0,0.0,0.0,0.0,0.0,0.0,0.0,0.0,-4.8001,0.0,-4.8001,0.0,0.0,0.0,0.0,0.0,0.0,0.0,0.0,0.0,0.0,0.0,0.0,0.0,0.0,0.0,0.0,0.0,0.0,0.0,-4.9001,-4.9001,-4.9001,-4.9001,-4.9001,-4.9001,-4.8956,-4.8753,-4.8483,-4.842,-4.7655,-4.6324,-4.5897,-4.511,-4.3989,-4.3472,-4.3329,-4.3329,-4.3329,-4.3329,-4.3329,-4.3329,-4.3329,-4.3329,-4.3329,-4.3329,-4.3329,-4.3329,-4.3329,-4.3329,-4.0938,0.0,0.0,0.0,0.0,-4.0037,-3.9644,0.0,0.0,0.0,0.0,0.0,-4.3976,-4.3744,0.0,0.0,-4.3628,-4.3628,0.0,0.0,-4.3628,0.0,0.0,0.0,0.0,-4.3687,-4.3763,-4.3939,-4.3939,0.0,0.0,0.0,0.0,0.0,0.0,-4.5714,-4.5554,0.0,0.0,-4.6908,-4.6919,-4.7403,-4.8001,-4.8001,-4.8001,-4.8001,-4.8001,-4.8001,-4.8001,-4.8001,-4.8001,0.0,-4.8001,0.0,0.0,0.0,0.0,0.0,-4.8001,0.0,0.0,0.0,0.0,0.0,0.0,0.0,0.0,0.0,0.0,0.0,0.0,0.0,0.0,0.0,0.0,0.0,0.0,0.0,0.0,0.0,0.0,0.0,0.0,0.0,0.0,-4.9001,-4.9001,-4.9001,-4.9001,-4.9001,-4.9001,-4.9001,-4.9001,-4.8815,-4.8483,-4.8483,-4.7918,-4.6811,-4.604,-4.5258,-4.4434,-4.3708,-4.3329,-4.3329,-4.3329,-4.3329,-4.3329,-4.3329,-4.3329,-4.3329,-4.3329,-4.3329,-4.3329,-4.3329,-4.3329,-4.3329,-4.1481,-4.1348,0.0,0.0,0.0,0.0,0.0,0.0,0.0,0.0,0.0,0.0,0.0,0.0,0.0,0.0,0.0,-4.3628,-4.3628,0.0,-4.3628,0.0,0.0,-4.3687,0.0,0.0,-4.3956,-4.4097,-4.4097,0.0,0.0,0.0,0.0,0.0,0.0,-4.526,-4.6257,-4.5656,-4.5773,-4.6391,-4.6908,-4.745,-4.8001,0.0,-4.8001,-4.8001,-4.8001,0.0,0.0,-4.8001,-4.8001,0.0,0.0,0.0,0.0,0.0,0.0,0.0,0.0,0.0,0.0,-4.8001,0.0,0.0,0.0,0.0,-4.8483,0.0,0.0,0.0,0.0,0.0,0.0,0.0,0.0,0.0,0.0,0.0,0.0,0.0,0.0,0.0,0.0,0.0,0.0,-4.9001,-4.9001,-4.9001,-4.9001,-4.9001,-4.9001,-4.9001,-4.9001,-4.8815,-4.8483,-4.8483,-4.7918,-4.6811,-4.604,-4.5258,-4.4434,-4.3708,-4.3329,-4.3329,-4.3329,-4.3329,-4.3329,-4.3329,-4.3329,-4.3329,-4.3329,-4.3329,-4.3329,-4.3329,-4.3329,-4.3329,0.0,0.0,0.0,0.0,0.0,0.0,0.0,-4.1647,0.0,0.0,0.0,0.0,0.0,-4.3761,-4.3628,0.0,0.0,-4.3628,-4.3628,-4.3628,0.0,0.0,0.0,-4.3881,0.0,0.0,0.0,0.0,0.0,0.0,0.0,0.0,0.0,0.0,0.0,-4.4727,0.0,0.0,0.0,0.0,0.0,-4.7947,-4.8115,0.0,0.0,-4.8001,-4.8001,-4.8001,0.0,-4.8001,-4.8001,-4.8001,-4.8001,-4.8001,-4.8001,-4.8001,-4.8001,0.0,0.0,0.0,-4.8163,-4.8308,0.0,0.0,0.0,0.0,0.0,0.0,0.0,0.0,0.0,0.0,0.0,0.0,0.0,0.0,0.0,0.0,0.0,0.0,0.0,0.0,0.0,0.0,0.0,-4.9001,-4.9001,-4.9001,-4.9001,-4.9001,-4.9001,-4.9001,-4.9001,-4.8815,-4.8483,-4.8483,-4.8227,-4.7555,-4.6828,-4.604,-4.5258,-4.4434,-4.3771,-4.3329,-4.3329,-4.3329,-4.3329,-4.3329,-4.3329,-4.3329,-4.3329,-4.3329,-4.3329,-4.3329,-4.3329,-4.3329,-4.176,0.0,0.0,0.0,0.0,0.0,0.0,0.0,0.0,0.0,-4.4382,0.0,-4.3872,0.0,-4.4006,0.0,-4.3747,-4.3763,-4.3747,-4.3747,0.0,-4.3939,-4.3939,0.0,0.0,0.0,0.0,0.0,0.0,-4.444,0.0,0.0,0.0,0.0,0.0,0.0,-4.4417,0.0,-4.5917,0.0,0.0,-4.8373,0.0,0.0,-4.8115,-4.8001,0.0,-4.8001,-4.8001,-4.8001,-4.8001,-4.8049,-4.8049,-4.8115,-4.8179,-4.8179,-4.8179,-4.8179,-4.8292,-4.8292,0.0,-4.8483,-4.8547,0.0,-4.8627,0.0,0.0,0.0,0.0,0.0,0.0,0.0,0.0,0.0,0.0,0.0,0.0,-4.9001,0.0,0.0,0.0,0.0,0.0,0.0,-4.9001,-4.9001,-4.9001,-4.9001,0.0,0.0,-4.9001,-4.9001,-4.9001,-4.8877,-4.8627,-4.8547,-4.8373,-4.8049,-4.7186,-4.6534,-4.6056,-4.4962,-4.422,-4.3693,-4.3394,-4.3329,-4.3329,-4.3329,-4.3329,-4.3329,-4.3329,-4.3329,-4.3329,-4.3329,-4.3329,-4.3329,0.0,0.0,0.0,0.0,-4.1272,0.0,0.0,0.0,-4.3807,0.0,-4.5452,-4.5546,-4.4387,-4.4665,-4.4776,-4.4296,-4.4115,0.0,-4.4205,-4.4048,0.0,0.0,-4.4097,-4.4138,-4.431,0.0,0.0,0.0,0.0,0.0,0.0,0.0,0.0,0.0,-4.4626,0.0,-4.4677,-4.5432,-4.621,-4.7022,-4.8276,-4.8707,-4.8483,-4.8483,-4.8308,-4.8001,-4.8001,-4.8001,-4.8001,-4.8001,-4.8115,-4.8227,-4.8227,-4.8356,-4.8483,-4.8483,-4.8483,-4.8483,-4.8483,-4.8483,-4.8547,-4.8547,0.0,0.0,0.0,0.0,-4.9001,0.0,0.0,0.0,0.0,0.0,0.0,0.0,0.0,0.0,0.0,0.0,0.0,0.0,0.0,0.0,0.0,-4.9001,-4.9001,-4.9001,-4.9001,-4.9001,0.0,0.0,-4.9001,-4.9001,-4.9001,-4.8956,-4.8786,-4.8627,-4.842,-4.8163,-4.7321,-4.6828,-4.6742,-4.5227,-4.451,-4.445,-4.363,-4.3329,-4.3329,-4.3329,-4.3329,-4.3329,-4.3329,-4.3329,-4.3409,-4.3329,-4.3329,-4.3329,-4.2634,-4.2418,-4.2435,0.0,-4.2626,-4.2323,0.0,0.0,0.0,0.0,-4.5615,-4.5875,-4.6132,-4.5915,-4.5896,-4.6346,-4.5925,0.0,0.0,0.0,0.0,-4.4818,-4.4446,-4.431,-4.4514,-4.4514,0.0,-4.5125,0.0,0.0,-4.5125,0.0,0.0,0.0,0.0,0.0,-4.5157,-4.6095,-4.7259,-4.8477,-4.868,-4.8769,0.0,0.0,-4.842,-4.8356,-4.8356,-4.8356,-4.8356,-4.8356,-4.842,-4.842,-4.842,-4.8483,-4.8483,-4.8483,-4.8483,-4.8547,-4.8707,-4.8707,-4.8769,-4.8815,-4.894,-4.8956,0.0,0.0,0.0,0.0,0.0,0.0,0.0,0.0,0.0,0.0,0.0,0.0,0.0,0.0,0.0,0.0,0.0,0.0,0.0,-4.9001,-4.9001,-4.9001,-4.9001,-4.9001,0.0,0.0,0.0,-4.9001,-4.9001,-4.8956,-4.8786,-4.8627,-4.842,-4.8163,-4.7836,-4.7404,-4.6742,-4.5825,-4.5036,-4.445,-4.363,-4.3329,-4.3329,-4.3329,-4.3329,-4.3329,-4.3329,-4.3771,-4.4282,-4.3551,-4.3329,-4.3409,-4.2844,0.0,0.0,-4.3692,0.0,0.0,-4.4733,0.0,0.0,-4.6147,-4.6794,0.0,-4.7087,-4.7282,-4.7509,-4.7746,-4.7395,0.0,-4.7121,0.0,0.0,-4.6083,-4.544,-4.5125,-4.5249,-4.5052,0.0,-4.5648,0.0,0.0,-4.5648,0.0,0.0,0.0,0.0,-4.5407,0.0,-4.6717,-4.7869,-4.9001,-4.8894,0.0,0.0,-4.8753,-4.8736,-4.8736,-4.8736,-4.861,-4.8483,-4.8483,-4.8547,-4.8627,-4.8627,-4.869,-4.8736,-4.8736,-4.8736,-4.8753,-4.8832,-4.8894,-4.8894,-4.9001,-4.9001,-4.9001,-4.9001,-4.9001,-4.9001,0.0,0.0,0.0,0.0,0.0,0.0,0.0,0.0,0.0,0.0,0.0,0.0,0.0,0.0,0.0,0.0,-4.9001,-4.9001,-4.9001,-4.9001,-4.9001,0.0,0.0,0.0,-4.9001,-4.9001,-4.894,-4.8894,-4.869,-4.8564,-4.8356,-4.8179,-4.7836,-4.727,-4.655,-4.5969,-4.5447,-4.4662,-4.4373,-4.4373,-4.4373,-4.4358,-4.4419,-4.454,-4.4915,-4.5342,-4.4765,-4.454,-4.4615,0.0,0.0,0.0,0.0,0.0,0.0,0.0,-4.7268,0.0,-4.7048,0.0,-4.8811,-4.7925,-4.8786,-4.9297,-4.8937,0.0,-4.8661,-4.8745,-4.7908,-4.7434,-4.7392,-4.6674,-4.6204,-4.6098,-4.5648,0.0,0.0,0.0,-4.5749,-4.6213,0.0,0.0,0.0,0.0,0.0,0.0,-4.7261,-4.8186,0.0,-4.9001,-4.9001,-4.9001,-4.9001,-4.9001,-4.9001,-4.9001,-4.8798,-4.8547,-4.8547,-4.869,-4.8849,-4.8849,-4.8894,-4.9001,-4.9001,-4.9001,-4.9001,-4.9001,-4.9001,-4.9001,-4.9001,-4.9001,-4.9001,-4.9001,-4.9001,-4.9001,-4.9001,-4.9001,-4.9001,0.0,0.0,0.0,0.0,0.0,0.0,0.0,0.0,0.0,0.0,0.0,0.0,0.0,0.0,-4.9001,-4.9001,-4.9001,0.0,0.0,0.0,0.0,-4.9001,-4.9001,-4.9001,-4.9001,0.0,-4.8707,-4.8547,-4.8292,-4.8179,-4.8066,-4.7186,-4.688,-4.6795,-4.6111,-4.5753,-4.5753,-4.5753,-4.5809,-4.5992,-4.626,-4.6384,-4.6384,-4.6523,-4.6609,-4.6523,0.0,0.0,0.0,0.0,0.0,-4.744,-4.744,-4.7547,-4.7821,-4.8431,-4.8782,-4.9352,-5.0479,-5.0349,-5.0428,-5.0987,-5.0576,0.0,0.0,0.0,0.0,-4.7998,-4.74,-4.6765,-4.6116,-4.6,-4.6196,0.0,-4.666,-4.666,-4.6771,0.0,0.0,0.0,0.0,0.0,-4.796,-4.7711,0.0,-4.9715,-4.9229,-4.9001,-4.9001,-4.9001,-4.9001,-4.9001,-4.9001,-4.894,-4.894,-4.894,-4.894,-4.894,-4.894,-4.9001,-4.9001,-4.9001,-4.9001,-4.9001,-4.9001,-4.9001,-4.9001,-4.9001,-4.9001,-4.9001,-4.9001,-4.9001,-4.9001,-4.9001,-4.9001,-4.9001,-4.9001,0.0,0.0,0.0,0.0,0.0,0.0,0.0,0.0,0.0,0.0,0.0,0.0,0.0,0.0,0.0,0.0,0.0,0.0,0.0,0.0,0.0,-4.9001,0.0,0.0,0.0,-4.8769,-4.8769,-4.8373,-4.8292,-4.8356,-4.7455,-4.7085,-4.7172,-4.64,-4.6119,-4.6119,-4.6119,-4.6119,-4.626,-4.7036,-4.7373,-4.7456,-4.8225,-4.8513,-4.837,0.0,0.0,0.0,0.0,0.0,0.0,0.0,-4.829,0.0,-4.8815,-4.9637,-5.0434,-5.1212,-5.1398,-5.1634,-5.2012,-5.1817,-5.1589,-5.1509,-5.0868,-5.0068,-4.9153,-4.8504,0.0,-4.6926,-4.666,-4.6753,-4.7302,-4.7062,-4.7062,-4.7302,0.0,0.0,0.0,0.0,-4.7875,0.0,0.0,0.0,-4.9832,-4.9212,-4.9001,-4.9001,-4.9001,-4.9001,-4.9001,-4.9001,-4.9001,-4.9001,-4.9001,-4.9001,-4.9001,-4.9001,-4.9001,-4.9001,-4.9001,-4.9001,-4.9001,-4.9001,-4.9001,-4.9001,-4.9001,-4.9001,-4.9001,-4.9001,-4.9001,-4.9001,-4.9001,-4.9001,-4.9001,-4.9001,-4.9001,0.0,0.0,0.0,0.0,0.0,0.0,0.0,0.0,0.0,0.0,0.0,0.0,0.0,0.0,0.0,0.0,0.0,0.0,0.0,0.0,0.0,0.0,0.0,0.0,0.0,-4.8786,-4.8564,-4.85,-4.8483,-4.8,-4.7852,-4.7885,-4.7539,-4.7389,-4.7389,-4.7473,-4.7539,-4.7605,-4.8096,-4.8306,-4.837,-4.8861,-4.9001,-4.894,0.0,-4.6069,0.0,0.0,-4.7428,0.0,-4.8822,-4.9202,-4.942,-4.942,-5.0506,-5.1357,-5.1538,-5.2118,-5.2498,-5.2498,-5.2498,-5.2498,-5.2498,-5.19,-5.1104,-5.0126,-4.9492,-4.8713,-4.7735,-4.7302,-4.7258,0.0,-4.7258,-4.7302,0.0,0.0,0.0,0.0,0.0,0.0,0.0,0.0,-4.9046,-4.9972,-4.9529,-4.9376,-4.9376,-4.9212,-4.9168,-4.9168,-4.9063,-4.9001,-4.9001,-4.9001,-4.9001,-4.9001,-4.9001,-4.9001,-4.9001,-4.9001,-4.9001,-4.9001,-4.9001,-4.9001,-4.9001,-4.9001,-4.9001,-4.9001,-4.9001,-4.9001,-4.9001,-4.9001,-4.9001,-4.9001,-4.9001,-4.9001,0.0,0.0,0.0,0.0,0.0,0.0,0.0,0.0,0.0,0.0,0.0,0.0,0.0,0.0,0.0,-4.9001,-4.9001,-4.9001,-4.9001,0.0,0.0,-4.9001,-4.9001,0.0,-4.8956,-4.8832,-4.8832,-4.8707,-4.861,-4.8564,-4.8547,-4.861,-4.861,-4.861,-4.861,-4.8769,-4.8832,-4.8832,-4.894,-4.9001,-4.9001,-4.9001,-4.9001,-4.9001,0.0,0.0,0.0,0.0,0.0,0.0,0.0,-5.0144,-5.1067,-5.1067,-5.1194,-5.1574,-5.2299,-5.2444,-5.2498,-5.2498,-5.2498,-5.2498,-5.2498,-5.2426,-5.1701,-5.0162,-5.0017,-4.9257,-4.7735,-4.7657,-4.7657,0.0,0.0,-4.7657,0.0,0.0,0.0,0.0,0.0,0.0,0.0,-4.8537,-4.9164,-5.0385,-5.047,-5.0535,-5.048,-4.9971,-4.9832,-4.9715,-4.9168,-4.9001,-4.9001,-4.9001,-4.9001,-4.9001,-4.9001,-4.9001,-4.9001,-4.9001,-4.9001,-4.9001,-4.9001,-4.9001,-4.9001,-4.9001,-4.9001,-4.9001,-4.9001,-4.9001,-4.9001,-4.9001,-4.9001,-4.9001,-4.9001,-4.9001,-4.9001,0.0,0.0,0.0,0.0,0.0,0.0,0.0,0.0,0.0,0.0,-4.9001,0.0,0.0,-4.9001,-4.9001,-4.9001,-4.9001,-4.9001,-4.9001,0.0,-4.9001,-4.9001,-4.9001,-4.9001,-4.9001,-4.8832,-4.8832,-4.894,-4.8832,-4.8832,-4.894,-4.894,-4.894,-4.894,-4.894,-4.9001,-4.9001,-4.9001,-4.9001,-4.9001,-4.9001,-4.9001,-4.9001,0.0,0.0,0.0,0.0,0.0,0.0,0.0,-5.0578,-5.1466,-5.1955,-5.2009,-5.2136,-5.2462,-5.2498,-5.2498,-5.2498,-5.2498,-5.2498,-5.2498,-5.2498,-5.1774,-5.0162,-5.009,-4.9347,-4.7753,-4.7717,-4.7717,0.0,0.0,0.0,0.0,0.0,0.0,0.0,0.0,-4.7962,-4.8887,-4.836,-4.8838,-4.9852,-4.9585,-4.9556,-4.9698,-4.9815,-4.989,-4.989,-5.0011,-5.0011,-5.0011,-5.0011,-4.9598,-4.9001,-4.9001,-4.9001,-4.9001,-4.9001,-4.9001,-4.9001,-4.9001,-4.9001,-4.9001,-4.9001,-4.9001,-4.9001,-4.9001,-4.9001,-4.9001,-4.9001,-4.9001,-4.9001,-4.9001,-4.9001,-4.9001,0.0,0.0,0.0,0.0,0.0,0.0,0.0,0.0,0.0,0.0,0.0,0.0,0.0,0.0,-4.9001,-4.9001,-4.9001,-4.9001,-4.9001,0.0,-4.9001,-4.9001,-4.9001,-4.9001,-4.9001,-4.8956,-4.8956,-4.9001,-4.894,-4.8956,-4.9001,-4.9001,-4.9001,-4.9001,-4.9001,-4.9001,-4.9001,-4.9001,-4.9001,-4.9001,-4.9001,-4.9001,-4.9001,-4.7717,0.0,-4.7772,0.0,-4.8731,-4.9528,-5.0325,-5.1122,-5.1846,-5.2426,-5.2498,-5.2498,-5.2498,-5.2498,-5.2498,-5.2498,-5.2498,-5.2498,-5.2498,-5.2281,-5.152,-5.0144,-4.9854,0.0,-4.7735,-4.7717,-4.7717,-4.7717,-4.7717,0.0,0.0,0.0,0.0,0.0,-4.7554,-4.7879,-4.8525,-4.8181,-4.855,-4.9333,-4.9153,-4.9199,-4.9388,-4.9837,-4.9924,-4.9829,-5.0317,-5.0425,-5.0425,-5.0425,-5.0011,-4.9479,-4.9333,-4.9168,-4.9001,-4.9001,-4.9001,-4.9001,-4.9001,-4.9001,-4.9001,-4.9001,-4.9001,-4.9001,-4.9001,-4.9001,-4.9001,-4.9001,-4.9001,-4.9001,-4.9001,-4.9001,-4.9001,-4.9001,0.0,0.0,0.0,0.0,0.0,0.0,-4.9001,-4.9001,-4.9001,0.0,0.0,0.0,0.0,0.0,-4.9001,-4.9001,0.0,0.0,0.0,0.0,0.0,-4.9001,-4.9001,-4.9001,-4.9001,-4.9001,-4.9001,-4.9001,-4.9001,-4.9001,-4.9001,-4.9001,-4.9001,-4.9001,-4.9001,-4.9001,-4.9001,-4.9001,-4.9001,-4.9001,-4.9001,-4.9001,-4.7717,-4.7717,-4.7953,-4.8768,-4.9546,-5.0343,-5.1158,-5.1973,-5.248,-5.2498,-5.2498,-5.2498,-5.2498,-5.2498,-5.2498,-5.2498,-5.2498,-5.2498,-5.2498,-5.1756,-5.0941,0.0,0.0,-4.855,-4.7735,-4.7717,-4.7717,-4.7717,0.0,0.0,-4.7717,0.0,-4.7717,-4.7675,-4.7169,-4.7214,-4.7729,-4.7966,-4.8416,-4.896,-4.9782,-5.009,-5.0091,-5.0301,-5.0006,-4.952,-4.9825,-4.989,-4.989,-4.989,-5.0237,-5.0589,-5.0045,-4.9496,-4.9001,-4.9001,-4.9001,-4.9001,-4.9001,-4.9001,-4.9001,-4.9001,-4.9001,-4.9001,-4.9001,-4.9001,-4.9001,-4.9001,-4.9001,-4.9001,-4.9001,-4.9001,-4.9001,-4.9001,0.0,0.0,0.0,0.0,0.0,0.0,-4.9001,-4.9001,-4.9001,0.0,0.0,0.0,0.0,0.0,0.0,0.0,0.0,-4.9001,-4.9001,0.0,-4.9001,-4.9001,-4.9001,-4.9001,-4.9001,-4.9001,-4.9001,-4.9001,-4.9001,-4.9001,-4.9001,-4.9001,-4.9001,-4.9001,-4.9001,-4.9001,-4.9001,-4.9001,-4.9001,-4.9001,-4.9001,-4.9001,-4.7717,-4.7717,-4.7971,-4.8768,-4.9564,-5.0361,-5.1176,-5.1973,-5.2498,-5.2498,-5.2498,-5.2498,-5.2498,-5.2498,-5.2498,0.0,-5.2498,-5.2263,0.0,-5.143,-5.0687,-4.9347,-4.9057,-4.8532,-4.7735,-4.7717,-4.7717,-4.7717,0.0,0.0,0.0,-4.7717,-4.7717,-4.7699,-4.7511,-4.7554,-4.7735,-4.7782,-4.7985,-4.8289,-4.8586,-4.8782,-4.9008,-4.9434,-4.9457,-4.9447,-5.0481,-5.0865,-5.0954,-5.149,-5.15,-5.126,-5.1122,-5.0607,-5.0163,-5.0163,-5.0163,-5.0067,-4.9715,-4.9615,-4.9496,-4.9107,-4.9333,-4.9496,-4.9107,-4.9333,-4.9513,-4.9046,-4.9333,-4.9496,-4.9063,-4.9001,-4.9001,-4.9001,-4.9001,0.0,0.0,0.0,0.0,0.0,-4.8257,-4.8054,0.0,-4.7496,0.0,0.0,0.0,0.0,0.0,0.0,0.0,0.0,-4.9001,0.0,-4.9001,-4.9001,-4.9001,-4.9001,-4.9001,-4.9001,-4.9001,-4.9001,-4.9001,-4.9001,-4.9001,-4.9001,-4.9001,-4.9001,-4.9001,-4.9001,-4.9001,-4.9001,-4.9001,-4.9001,-4.9001,-4.9001,-4.7717,-4.7717,-4.7971,-4.8768,-4.9329,-4.9908,-5.0723,-5.1267,-5.1593,-5.1593,-5.1593,-5.1593,-5.1593,-5.1593,0.0,-5.2009,-5.2045,-5.1701,-5.0886,-5.056,-4.9945,-4.8949,-4.8623,-4.8224,-4.7717,0.0,0.0,-4.7717,-4.7717,-4.7717,-4.7717,-4.7717,-4.7717,-4.7717,-4.7717,-4.7717,-4.7717,-4.7717,-4.7782,-4.7886,-4.7886,-4.799,-4.8187,-4.8851,-4.8959,-4.8889,-5.0078,-5.0505,-5.0595,-5.1099,-5.1149,-5.109,-5.1395,-5.1204,-5.087,-5.0519,-5.022,-5.0011,-4.9656,-4.9555,-4.9436,-4.9107,-4.9273,-4.9436,-4.9063,-4.9273,-4.9453,-4.9063,-4.9273,-4.9453,-4.9063,-4.9001,-4.9001,-4.9001,-4.9001,-4.89,-4.8646,0.0,0.0,0.0,0.0,0.0,0.0,-4.6786,-4.6786,0.0,0.0,0.0,0.0,0.0,0.0,-4.8595,-4.8595,0.0,-4.9001,-4.9001,-4.9001,-4.9001,-4.9001,-4.9001,-4.9001,-4.9001,-4.9001,-4.9001,-4.9001,-4.9001,-4.9001,-4.9001,-4.9001,-4.9001,-4.9001,-4.9001,-4.9001,-4.9001,-4.9001,-4.9001,-4.7717,-4.7717,0.0,0.0,-4.8912,0.0,-4.9963,-5.009,-5.009,-5.009,-5.009,-5.009,-5.009,-5.009,-5.0361,-5.1067,0.0,0.0,0.0,-4.9329,-4.8894,-4.884,-4.8116,-4.7717,-4.7717,-4.7717,-4.7717,-4.7717,-4.7717,-4.7717,-4.7717,-4.7717,-4.7717,-4.7717,-4.7717,-4.7717,-4.7717,-4.7717,-4.7717,-4.7717,-4.7717,-4.7717,-4.779,-4.855,-4.8461,-4.8068,-4.8871,-4.9156,-4.9174,-4.9228,-4.9657,-5.0216,-5.0977,-5.1194,-5.0998,-5.0288,-4.9656,-4.9212,-4.9168,-4.9168,-4.9168,-4.9107,-4.9107,-4.9063,-4.9063,-4.9063,-4.9063,-4.9001,-4.9063,-4.9046,-4.8934,-4.8978,-4.8961,-4.8911,-4.8894,-4.8734,-4.8039,0.0,0.0,0.0,0.0,0.0,0.0,-4.6692,-4.6633,0.0,0.0,0.0,0.0,0.0,-4.7005,-4.7817,-4.7834,-4.8156,-4.8849,-4.8849,-4.8883,-4.8934,-4.8934,-4.8951,-4.9001,-4.9001,-4.9001,-4.9001,-4.9001,-4.9001,-4.9001,-4.9001,-4.9001,-4.9001,-4.9001,-4.9001,-4.9001,-4.9001,-4.9001,-4.9001,0.0,0.0,-4.7971,-4.8768,-4.8912,-4.9184,-4.9963,-5.009,-5.009,-5.009,-5.009,-5.009,-5.009,-5.009,-4.9927,-4.951,-5.0017,-5.0035,-4.9238,-4.9021,-4.8641,-4.8025,-4.7808,-4.7717,-4.7717,-4.7717,-4.7717,-4.7717,-4.7717,-4.7717,-4.7717,-4.7717,-4.7717,-4.7717,-4.7717,-4.7717,-4.7717,-4.7717,-4.7717,-4.7717,-4.7717,-4.7717,-4.7735,-4.7916,-4.7904,-4.789,-4.8684,-4.8991,-4.9063,-4.9676,-4.9983,-5.0108,-5.0307,-5.0054,-5.0008,-5.1472,-5.1786,-5.1569,-5.1122,-5.0947,-5.0893,-5.0442,-4.9971,-4.9674,-4.9674,-4.9674,-4.9555,-4.9107,-4.9394,-4.9384,-4.8335,-4.8481,-4.8609,-4.8043,-4.8277,-4.8481,-4.8307,-4.8273,-4.7977,0.0,-4.6805,-4.6344,-4.5709,-4.5341,-4.5111,0.0,0.0,0.0,0.0,-4.5111,-4.5703,-4.7022,-4.7056,-4.7141,-4.731,-4.731,-4.7597,-4.8173,-4.8173,-4.8477,-4.9001,-4.9001,-4.9001,-4.9001,-4.9001,-4.9001,-4.9001,-4.9001,-4.9001,-4.9001,-4.9001,-4.9001,-4.9001,-4.9001,-4.9001,-4.9001,-4.7717,-4.7717,-4.7844,-4.8297,-4.8369,-4.8514,-4.8931,-4.9003,-4.9003,-4.9003,-4.9003,-4.9003,-4.9003,-4.9003,-4.8822,-4.8405,-4.9094,-4.922,-4.8405,-4.8369,-4.817,-4.7735,-4.7717,-4.7717,-4.7717,-4.7717,-4.7717,-4.7717,-4.7717,-4.7717,-4.7717,-4.7717,-4.7717,-4.7717,-4.7717,-4.7717,-4.7717,-4.7717,-4.7717,-4.7717,-4.7717,-4.7717,-4.7717,-4.7717,-4.7717,-4.7772,-4.8206,-4.8369,-4.8424,-4.8858,-4.9003,-4.9075,-4.9438,-4.9352,-4.9369,-5.0923,-5.1034,-5.0566,-5.0249,-5.013,-5.0079,-4.9732,-4.943,-4.9229,-4.9229,-4.9229,-4.9118,-4.8798,-4.8968,-4.8997,-4.8282,-4.8346,-4.8427,-4.801,-4.8207,-4.8294,-4.7908,-4.7855,-4.7557,-4.6818,-4.6445,-4.6152,-4.57,-4.5232,-4.4889,-4.4889,-4.472,0.0,-4.4587,-4.4587,-4.5111,-4.6261,-4.6295,-4.6447,-4.6786,-4.6786,-4.7005,-4.7411,-4.7411,-4.7614,-4.8003,-4.8342,-4.8511,-4.8528,-4.8849,-4.9001,-4.9001,-4.9001,-4.9001,-4.9001,-4.9001,-4.9001,-4.9001,-4.9001,-4.9001,-4.9001,-4.7717,-4.7717,-4.7717,-4.7717,-4.7717,-4.7717,-4.7717,-4.7717,-4.7717,-4.7717,-4.7717,-4.7717,-4.7717,-4.7717,-4.7717,-4.7717,-4.8333,-4.8442,-4.7753,-4.7717,-4.7717,-4.7717,-4.7717,-4.7717,-4.7717,-4.7717,-4.7717,-4.7717,-4.7717,-4.7717,-4.7717,-4.7717,-4.7717,-4.7717,-4.7717,-4.7717,-4.7717,-4.7717,-4.7717,-4.7717,-4.7717,-4.7717,-4.7717,-4.7717,-4.7717,-4.7717,-4.7717,-4.7717,-4.7717,-4.7717,-4.7717,-4.7826,-4.8514,-4.8731,-4.8858,-4.9528,-4.9019,-4.8322,-4.8602,-4.8673,-4.8622,-4.852,-4.852,-4.852,-4.8416,-4.8416,-4.8416,-4.8416,-4.8416,-4.8381,-4.8259,-4.8293,-4.8309,-4.8186,-4.8219,-4.8073,-4.7368,0.0,-4.7033,-4.6429,-4.6262,-4.6213,-4.6098,-4.5597,-4.525,-4.5214,-4.4814,-4.4587,-4.4587,-4.4587,-4.4874,-4.5517,-4.5534,-4.5838,-4.6447,-4.6464,-4.6515,-4.6616,-4.6616,-4.6684,-4.6802,-4.7462,-4.775,-4.7784,-4.8409,-4.8731,-4.8832,-4.8832,-4.89,-4.9001,-4.9001,-4.9001,-4.9001,-4.9001,-4.9001,-4.9001,-4.7717,-4.7717,-4.7717,-4.7717,-4.7717,-4.7717,-4.7717,-4.7717,-4.7717,-4.7717,-4.7717,-4.7717,-4.7717,-4.7717,-4.7717,-4.7717,-4.7826,-4.7844,-4.7717,-4.7717,-4.7717,-4.7717,-4.7717,-4.7717,-4.7717,-4.7717,-4.7717,-4.7717,-4.7717,-4.7717,-4.7717,-4.7717,-4.7717,-4.7717,-4.7717,-4.7717,-4.7717,-4.7717,-4.7717,-4.7717,-4.7717,-4.7717,-4.7717,-4.7717,-4.7717,-4.7717,-4.7717,-4.7717,-4.7717,-4.7717,-4.7717,-4.7735,-4.7862,-4.7898,-4.7916,-4.8043,-4.7933,-4.8135,-4.9469,-4.983,-4.9721,-4.9198,-4.9101,-4.8954,-4.852,-4.8416,-4.8416,-4.8416,-4.8416,-4.8206,-4.7505,-4.7731,-4.7844,-4.7233,-4.7528,-4.7793,-4.7648,0.0,-4.7594,-4.7468,-4.7062,-4.6613,-4.6147,-4.5597,-4.5125,-4.472,-4.4626,-4.4587,-4.4587,-4.4587,-4.4621,-4.4756,-4.4756,-4.4807,-4.4925,-4.4925,-4.5246,-4.5872,-4.5872,-4.6194,-4.6786,-4.6921,-4.6972,-4.6972,-4.709,-4.7496,-4.8088,-4.8088,-4.8443,-4.9001,-4.9001,-4.9001,-4.9001,-4.9001,-4.9001,-4.9001,-4.7717,-4.7717,-4.7717,-4.7717,-4.7717,-4.7717,-4.7717,-4.7717,-4.7717,-4.7717,-4.7717,-4.7717,-4.7717,-4.7717,-4.7717,-4.7717,-4.7717,-4.7717,-4.7717,-4.7717,-4.7717,-4.7717,-4.7717,-4.7717,-4.7717,-4.7717,-4.7717,-4.7717,-4.7717,-4.7717,-4.7717,-4.7717,-4.7717,-4.7717,-4.7717,-4.7717,-4.7717,-4.7717,-4.7717,-4.7717,-4.7717,-4.7717,-4.7717,-4.7717,-4.7717,-4.7717,-4.7717,-4.7717,-4.7717,-4.7717,-4.7717,-4.7717,-4.7717,-4.7717,-4.7717,-4.7717,-4.7717,-4.7862,-4.8605,-4.8865,-4.8865,-4.855,-4.8514,-4.8496,-4.8254,-4.8163,-4.8163,-4.8163,-4.8163,-4.8084,-4.7689,-4.7831,-4.7915,-4.7554,-4.7705,0.0,0.0,-4.7847,-4.7847,-4.7847,-4.7645,-4.7309,-4.6799,-4.6466,-4.6032,-4.5283,-4.5213,-4.5052,-4.4737,-4.4737,-4.4682,-4.4587,-4.4587,-4.4587,-4.4587,-4.4587,-4.4756,-4.5094,-4.5094,-4.528,-4.5618,-4.6024,-4.621,-4.6227,-4.6616,-4.6989,-4.731,-4.731,-4.7513,-4.7851,-4.8257,-4.8426,-4.8477,-4.8849,-4.9001,-4.9001,-4.7717,-4.7717,-4.7717,-4.7717,-4.7717,-4.7717,-4.7717,-4.7717,-4.7717,-4.7717,-4.7717,-4.7717,-4.7717,-4.7717,-4.7717,-4.7717,-4.7717,-4.7717,-4.7717,-4.7717,-4.7717,-4.7717,-4.7717,-4.7717,-4.7717,-4.7717,-4.7717,-4.7717,-4.7717,-4.7717,-4.7717,-4.7717,-4.7717,-4.7717,-4.7717,-4.7717,-4.7717,-4.7717,-4.7717,-4.7717,-4.7717,-4.7717,-4.7717,-4.7717,-4.7717,-4.7717,-4.7717,-4.7717,-4.7717,-4.7717,-4.7717,-4.7717,-4.7717,-4.7759,-4.7759,-4.7783,-4.7783,-4.7783,-4.7759,-4.7842,-4.7925,-4.7925,-4.7988,-4.7992,-4.7992,-4.7992,-4.7992,-4.7992,-4.7992,-4.7992,-4.7992,-4.7992,-4.7992,-4.7992,0.0,0.0,0.0,-4.7992,-4.7992,-4.7992,-4.7992,-4.7811,-4.7327,-4.723,-4.6837,-4.5985,-4.5918,-4.5614,-4.5069,-4.5123,-4.5069,-4.4961,-4.472,-4.4587,-4.4587,-4.4587,-4.4587,-4.4587,-4.4587,-4.4587,-4.4604,-4.5179,-4.5449,-4.5483,-4.6024,-4.638,-4.6532,-4.6532,-4.665,-4.6853,-4.7428,-4.7648,-4.7733,-4.8335,-4.8555,-4.8572,-4.7717,-4.7717,-4.7717,-4.7717,-4.7717,-4.7717,-4.7717,-4.7717,-4.7717,-4.7717,-4.7717,-4.7717,-4.7717,-4.7717,-4.7717,-4.7717,-4.7717,-4.7717,-4.7717,-4.7717,-4.7717,-4.7717,-4.7717,-4.7717,-4.7717,-4.7717,-4.7717,-4.7717,-4.7717,-4.7717,-4.7717,-4.7717,-4.7717,-4.7717,-4.7717,-4.7717,-4.7717,-4.7717,-4.7717,-4.7717,-4.7717,-4.7717,-4.7717,-4.7717,-4.7717,-4.7717,-4.7717,-4.7717,-4.7717,-4.7717,-4.7717,-4.7717,-4.7861,-4.7879,-4.7902,-4.797,-4.7992,-4.7951,-4.7902,-4.7947,-4.7992,-4.7992,-4.7992,-4.7992,-4.7992,-4.7992,-4.7992,-4.7992,-4.7992,-4.7992,-4.7992,-4.7992,-4.7992,-4.7992,0.0,0.0,-4.7992,-4.7992,-4.7992,-4.7992,-4.7992,-4.7793,-4.7237,-4.7194,-4.6955,-4.6383,-4.6336,-4.6161,-4.5665,-4.6017,-4.6116,-4.6017,-4.5106,-4.4587,-4.4587,-4.4587,-4.4587,-4.4587,-4.4587,-4.4587,-4.4587,-4.4637,-4.4654,-4.4654,-4.4722,-4.5145,-4.5788,-4.5788,-4.6177,-4.6802,-4.6853,-4.687,-4.6887,-4.7097,-4.7172,-4.7274,-4.7717,-4.7717,-4.7717,-4.7717,-4.7717,-4.7717,-4.7717,-4.7717,-4.7717,-4.7717,-4.7717,-4.7717,-4.7717,-4.7717,-4.7717,-4.7717,-4.7717,-4.7717,-4.7717,-4.7717,-4.7717,-4.7717,-4.7717,-4.7717,-4.7717,-4.7717,-4.7717,-4.7717,-4.7717,-4.7717,-4.7717,-4.7717,-4.7717,-4.7717,-4.7717,-4.7717,-4.7717,-4.7717,-4.7717,-4.7717,-4.7717,-4.7717,-4.7717,-4.7717,-4.7717,-4.7717,-4.7717,-4.7717,-4.7717,-4.7717,-4.7717,-4.7717,-4.7759,-4.7777,-4.7801,-4.7824,-4.7866,-4.7925,-4.7902,-4.8006,-4.813,-4.813,-4.8169,-4.819,-4.819,-4.819,-4.819,-4.819,-4.819,-4.819,-4.819,-4.819,-4.819,-4.819,0.0,-4.819,-4.819,-4.819,-4.819,-4.819,-4.819,-4.7995,-4.7488,-4.7697,-4.7572,-4.6763,-4.6972,-4.6882,-4.6358,-4.6049,-4.5767,-4.5459,-4.5015,-4.4923,-4.5035,-4.5035,-4.4906,-4.4587,-4.4587,-4.4587,-4.4587,-4.4587,-4.4626,-4.472,-4.472,-4.4946,-4.5256,-4.5256,-4.5426,-4.5733,-4.6192,-4.638,-4.6431,-4.6948,-4.7101,-4.7152,-4.7717,-4.7717,-4.7717,-4.7717,-4.7717,-4.7717,-4.7717,-4.7717,-4.7717,-4.7717,-4.7717,-4.7717,-4.7717,-4.7717,-4.7717,-4.7717,-4.7717,-4.7609,-4.7355,-4.7102,-4.7065,-4.7319,-4.7083,-4.6957,-4.6957,-4.6957,-4.6957,-4.6957,-4.721,-4.7319,-4.7337,-4.7591,-4.7717,-4.7717,-4.7717,-4.7717,-4.7717,-4.7717,-4.7717,-4.7717,-4.7717,-4.7717,-4.7717,-4.7717,-4.7717,-4.7717,-4.7717,-4.7717,-4.7717,-4.7717,-4.7717,-4.7717,-4.7759,-4.7801,-4.7824,-4.7824,-4.7925,-4.8024,-4.8006,-4.8108,-4.8226,-4.8187,-4.8247,-4.8306,-4.8306,-4.8306,-4.8306,-4.8306,-4.8306,-4.8306,-4.8306,-4.8306,-4.8306,-4.8306,-4.8306,-4.8306,-4.8306,-4.8306,-4.8306,-4.8306,-4.8306,-4.8172,-4.7856,-4.8132,-4.8035,-4.7396,-4.765,-4.765,-4.7204,-4.6595,-4.6165,-4.5968,-4.5918,-4.59,-4.5915,-4.5459,-4.5052,-4.4737,-4.4737,-4.4737,-4.4737,-4.4737,-4.4793,-4.4886,-4.4886,-4.4923,-4.4978,-4.4978,-4.4978,-4.5029,-4.5559,-4.5764,-4.5815,-4.6383,-4.6571,-4.6606,-4.7717,-4.7717,-4.7717,-4.7717,-4.7717,-4.7717,-4.7717,-4.7717,-4.7717,-4.7717,-4.7717,-4.7717,-4.7717,-4.7717,-4.7717,-4.7717,-4.7699,-4.7355,-4.654,-4.5743,-4.5653,-4.645,-4.5725,-4.5291,-4.5291,-4.5291,-4.5291,-4.5291,-4.6106,-4.6504,-4.6504,-4.7319,-4.7681,-4.7681,-4.7681,-4.7681,-4.7699,-4.7699,-4.7699,-4.7717,-4.7717,-4.7717,-4.7717,-4.7717,-4.7717,-4.7717,-4.7717,-4.7717,-4.7717,-4.7717,-4.7717,-4.7717,-4.7861,-4.7966,-4.8032,-4.8148,-4.8187,-4.8226,-4.8267,-4.8306,-4.8267,-4.8226,-4.8247,-4.8306,-4.8306,-4.8306,-4.8306,-4.8306,-4.8306,-4.8306,-4.8306,-4.8306,-4.8306,-4.8306,-4.8306,-4.8306,-4.8306,-4.8306,-4.8306,-4.8306,-4.8306,-4.8306,-4.8306,-4.8306,-4.8306,-4.8306,-4.8306,-4.8286,-4.8187,-4.7765,-4.7663,-4.7992,-4.7992,-4.7733,-4.7194,-4.5767,-4.5032,-4.4978,-4.4978,-4.4978,-4.4978,-4.4978,-4.4978,-4.5032,-4.5032,-4.5032,-4.5032,-4.5032,-4.5032,-4.5032,-4.5032,-4.5032,-4.5032,-4.5177,-4.523,-4.535,-4.7717,-4.7717,-4.7717,-4.7717,-4.7717,-4.7717,-4.7717,-4.7717,-4.7717,-4.7717,-4.7717,-4.7717,-4.7717,-4.7717,-4.7717,-4.7717,-4.7192,-4.6522,-4.5707,-4.4892,-4.4566,-4.4802,-4.5128,-4.5291,-4.5291,-4.5291,-4.5291,-4.5291,-4.5544,-4.5653,-4.5653,-4.5906,-4.6015,-4.6015,-4.6015,-4.6341,-4.6866,-4.6866,-4.7192,-4.7717,-4.7717,-4.7717,-4.7717,-4.7717,-4.7717,-4.7717,-4.7717,-4.7717,-4.7699,-4.7819,-4.7861,-4.7861,-4.7947,-4.7951,-4.7992,-4.805,-4.805,-4.8072,-4.8072,-4.8169,-4.8265,-4.8247,-4.8286,-4.8306,-4.8306,-4.8306,-4.8306,-4.8306,-4.8306,-4.8306,-4.8306,-4.8306,-4.8306,-4.8306,-4.8306,-4.8306,-4.8306,-4.8306,-4.8306,-4.8306,-4.8306,-4.8306,-4.8306,-4.8306,-4.8306,-4.8306,-4.8306,-4.8132,-4.7793,-4.7669,-4.7482,-4.7222,-4.7222,-4.7178,-4.6981,-4.6358,-4.5868,-4.5477,-4.5177,-4.4978,-4.4978,-4.4978,-4.5213,-4.5631,-4.5631,-4.5885,-4.6328,-4.6328,-4.6328,-4.6328,-4.6328,-4.6328,-4.628,-4.602,-4.5887,-4.5871,-4.7717,-4.7717,-4.7717,-4.7717,-4.7717,-4.7717,-4.7717,-4.7717,-4.7717,-4.7717,-4.7717,-4.7717,-4.7717,-4.7428,-4.7228,-4.7228,-4.6196,-4.5345,-4.4856,-4.4059,-4.3625,-4.3625,-4.4077,-4.4349,-4.4349,-4.4349,-4.4349,-4.4349,-4.4675,-4.482,-4.4838,-4.5146,-4.5291,-4.5291,-4.5291,-4.5562,-4.6033,-4.6033,-4.6305,-4.6757,-4.6757,-4.6757,-4.6757,-4.6757,-4.6757,-4.6757,-4.6799,-4.6817,-4.6858,-4.6939,-4.6997,-4.6979,-4.7041,-4.7281,-4.7536,-4.7576,-4.7834,-4.809,-4.8111,-4.8169,-4.8247,-4.8267,-4.8306,-4.8306,-4.8306,-4.8306,-4.8306,-4.8306,-4.8306,-4.8306,-4.8306,-4.8306,-4.8306,-4.8306,-4.8306,-4.8306,-4.8306,-4.8306,-4.8306,-4.8306,-4.8306,-4.8306,-4.8306,-4.8306,-4.8306,-4.8306,-4.8306,-4.8172,-4.7897,-4.7856,-4.7733,-4.7464,-4.7464,-4.7464,-4.7464,-4.7097,-4.6671,-4.6165,-4.5885,-4.5751,-4.5751,-4.5751,-4.5935,-4.631,-4.631,-4.6519,-4.6908,-4.6908,-4.6908,-4.6908,-4.6908,-4.6908,-4.6863,-4.6584,-4.6459,-4.6411,-4.7717,-4.7717,-4.7717,-4.7717,-4.7717,-4.7717,-4.7717,-4.7717,-4.7717,-4.7717,-4.7717,-4.7681,-4.7609,-4.6939,-4.6468,-4.6413,-4.4983,-4.4059,-4.3987,-4.3299,-4.2882,-4.2882,-4.2882,-4.2882,-4.2882,-4.2882,-4.2882,-4.2882,-4.3625,-4.3987,-4.4005,-4.4729,-4.5091,-4.5091,-4.5091,-4.5128,-4.5182,-4.5182,-4.5236,-4.5291,-4.5291,-4.5291,-4.5291,-4.5291,-4.5309,-4.5349,-4.5446,-4.5485,-4.5524,-4.5601,-4.5621,-4.564,-4.564,-4.6132,-4.6736,-4.685,-4.7401,-4.8007,-4.8066,-4.8141,-4.8196,-4.8196,-4.8251,-4.8306,-4.8306,-4.8306,-4.8306,-4.8306,-4.8306,-4.8306,-4.8306,-4.8306,-4.8306,-4.8306,-4.8306,-4.8306,-4.8306,-4.8306,-4.8306,-4.8306,-4.8306,-4.8306,-4.8306,-4.8306,-4.8306,-4.8306,-4.8306,-4.8306,-4.8306,-4.8306,-4.8306,-4.8306,-4.8306,-4.8306,-4.8306,-4.7856,-4.7421,-4.6954,-4.6908,-4.6908,-4.6908,-4.6908,-4.6908,-4.6954,-4.6954,-4.6999,-4.7044,-4.7044,-4.7044,-4.7044,-4.7044,-4.7044,-4.7044,-4.6972,-4.6972,-4.6972,-4.7717,-4.7717,-4.7717,-4.7717,-4.7717,-4.7717,-4.7717,-4.7717,-4.7717,-4.7717,-4.7717,-4.7464,-4.683,-4.6613,-4.625,-4.5617,-4.4675,-4.3824,-4.319,-4.2991,-4.2882,-4.2882,-4.2882,-4.2882,-4.2882,-4.2882,-4.2882,-4.2882,-4.3063,-4.3154,-4.3154,-4.3335,-4.3407,-4.3407,-4.3407,-4.3769,-4.4349,-4.4349,-4.4711,-4.5291,-4.5291,-4.5291,-4.5309,-4.5406,-4.5446,-4.5485,-4.5563,-4.5563,-4.5601,-4.5716,-4.5772,-4.5828,-4.5828,-4.5938,-4.6085,-4.614,-4.625,-4.6397,-4.6416,-4.6893,-4.737,-4.737,-4.7847,-4.8306,-4.8306,-4.8306,-4.8306,-4.8306,-4.8306,-4.8306,-4.8306,-4.8306,-4.8306,-4.8306,-4.8306,-4.8306,-4.8306,-4.8306,-4.8306,-4.8306,-4.8306,-4.8306,-4.8306,-4.8306,-4.8306,-4.8306,-4.8306,-4.8306,-4.8306,-4.8306,-4.8306,-4.8306,-4.8306,-4.8306,-4.8306,-4.821,-4.7897,-4.7464,-4.7071,-4.6908,-4.6908,-4.6908,-4.7115,-4.7464,-4.7464,-4.765,-4.8014,-4.8014,-4.8014,-4.8014,-4.8014,-4.8014,-4.7974,-4.759,-4.7453,-4.7417,-4.7717,-4.7717,-4.7717,-4.7717,-4.7717,-4.7717,-4.7717,-4.7717,-4.7717,-4.7717,-4.7717,-4.7391,-4.6595,-4.616,-4.5454,-4.4258,-4.3769,-4.3335,-4.2918,-4.2882,-4.2882,-4.2882,-4.2882,-4.2882,-4.2882,-4.2882,-4.2882,-4.2882,-4.2882,-4.2882,-4.2882,-4.2882,-4.2882,-4.2882,-4.2882,-4.3118,-4.3516,-4.3516,-4.3826,-4.4263,-4.4263,-4.4284,-4.4322,-4.436,-4.4398,-4.4416,-4.4528,-4.4565,-4.462,-4.4656,-4.4728,-4.4745,-4.4745,-4.5021,-4.5333,-4.5333,-4.5608,-4.5902,-4.5902,-4.6214,-4.6544,-4.6544,-4.715,-4.7847,-4.8214,-4.8306,-4.8306,-4.8306,-4.8306,-4.8306,-4.8306,-4.8306,-4.8306,-4.8306,-4.8306,-4.8306,-4.8306,-4.8306,-4.8306,-4.8306,-4.8306,-4.8306,-4.8306,-4.8306,-4.8306,-4.8306,-4.8306,-4.8306,-4.8306,-4.8306,-4.8306,-4.8306,-4.8306,-4.8306,-4.8306,-4.8306,-4.8172,-4.7937,-4.7692,-4.7567,-4.7567,-4.7567,-4.7692,-4.7937,-4.7937,-4.8075,-4.8306,-4.8306,-4.8306,-4.8306,-4.8306,-4.8306,-4.8267,-4.8028,-4.7925,-4.7907,-4.7717,-4.7717,-4.7717,-4.7717,-4.7717,-4.7717,-4.7717,-4.7717,-4.7717,-4.7717,-4.7717,-4.7355,-4.6413,-4.5454,-4.4349,-4.3009,-4.2882,-4.2882,-4.2882,-4.2882,-4.2882,-4.2882,-4.2882,-4.2882,-4.2882,-4.2882,-4.2882,-4.2882,-4.2882,-4.2882,-4.2882,-4.2882,-4.2882,-4.2882,-4.2882,-4.2882,-4.2882,-4.2938,-4.2994,-4.3104,-4.3104,-4.316,-4.3196,-4.3214,-4.3251,-4.3251,-4.3376,-4.3446,-4.3497,-4.3497,-4.3497,-4.3497,-4.3497,-4.3956,-4.4488,-4.4488,-4.4966,-4.548,-4.548,-4.559,-4.5681,-4.5681,-4.6305,-4.7076,-4.7755,-4.8104,-4.8306,-4.8306,-4.8306,-4.8306,-4.8306,-4.8306,-4.8306,-4.8306,-4.8306,-4.8306,-4.8306,-4.8306,-4.8306,-4.8306,-4.8306,-4.8306,-4.8306,-4.8306,-4.8306,-4.8306,-4.8306,-4.8306,-4.8306,-4.8306,-4.8306,-4.8306,-4.8306,-4.8306,-4.8306,-4.8306,-4.8306,-4.8306,-4.8306,-4.8306,-4.8306,-4.8306,-4.8306,-4.8306,-4.8306,-4.8306,-4.8306,-4.8306,-4.8306,-4.8306,-4.8306,-4.8306,-4.8306,-4.8306,-4.8306,-4.8306,-4.7717,-4.7717,-4.7717,-4.7717,-4.7717,-4.7717,-4.7717,-4.7717,-4.7717,-4.7717,-4.7717,-4.7138,-4.5635,-4.4114,-4.3136,-4.29,-4.2882,-4.2882,-4.2882,-4.2882,-4.2882,-4.2882,-4.2882,-4.2882,-4.2882,-4.2882,-4.2882,-4.2882,-4.2882,-4.2882,-4.2882,-4.2882,-4.2882,-4.2882,-4.2882,-4.2882,-4.29,-4.2994,-4.3104,-4.3104,-4.3142,-4.3214,-4.3196,-4.334,-4.3376,-4.3376,-4.3463,-4.3497,-4.3497,-4.3497,-4.3497,-4.3497,-4.3497,-4.3552,-4.3644,-4.3644,-4.3736,-4.3809,-4.3809,-4.4323,-4.4874,-4.4874,-4.548,-4.6085,-4.6195,-4.7297,-4.8306,-4.8306,-4.8306,-4.8306,-4.8306,-4.8306,-4.8306,-4.8306,-4.8306,-4.8306,-4.8306,-4.8306,-4.8306,-4.8306,-4.8306,-4.8306,-4.8306,-4.8306,-4.8306,-4.8306,-4.8306,-4.8306,-4.8306,-4.8306,-4.8306,-4.8306,-4.8306,-4.8306,-4.8306,-4.8306,-4.8306,-4.8306,-4.8306,-4.8306,-4.8306,-4.8306,-4.8306,-4.8306,-4.8306,-4.8306,-4.8306,-4.8306,-4.8306,-4.8306,-4.8306,-4.8306,-4.8306,-4.8306,-4.8306,-4.8306,-4.7717,-4.7717,-4.7717,-4.7717,-4.7717,-4.7717,-4.7717,-4.7717,-4.7717,-4.7717,-4.7319,-4.6595,-4.5436,-4.386,-4.2882,-4.2882,-4.2882,-4.2882,-4.2882,-4.2882,-4.2882,-4.2882,-4.2882,-4.2882,-4.2882,-4.2882,-4.2882,-4.2882,-4.2882,-4.2882,-4.2882,-4.2882,-4.2882,-4.2882,-4.2882,-4.2882,-4.2882,-4.2938,-4.3049,-4.3104,-4.3123,-4.3178,-4.3214,-4.3251,-4.334,-4.3429,-4.3463,-4.3497,-4.3497,-4.3497,-4.3497,-4.3497,-4.3497,-4.3497,-4.3497,-4.3497,-4.3497,-4.3497,-4.3497,-4.3754,-4.403,-4.403,-4.4635,-4.5241,-4.5241,-4.614,-4.7095,-4.7553,-4.7645,-4.7774,-4.8233,-4.8306,-4.8306,-4.8306,-4.8306,-4.8306,-4.8306,-4.8306,-4.8306,-4.8306,-4.8306,-4.8306,-4.8306,-4.8306,-4.8306,-4.8306,-4.8306,-4.8306,-4.8306,-4.8306,-4.8306,-4.8306,-4.8306,-4.8306,-4.8306,-4.8306,-4.8306,-4.8306,-4.8306,-4.8306,-4.8306,-4.8306,-4.8306,-4.8306,-4.8306,-4.8306,-4.8306,-4.8306,-4.8306,-4.8306,-4.8306,-4.8306,-4.8306,-4.8306,-4.8306,-4.8306]}]]